[[{"header":{"parameterUnit":"m.s-1","parameterCategory":1,"la1":31.0,"la2":29.5877,"lo1":-88.7671,"lo2":-86.6584,"dy":0.0162,"dx":0.0185,"nx":115,"ny":88,"refTime":"2024-05-28T06:00:00:Z","depth":0,"parameterNumber":2,"parameterNumberName":"U-component_of_WINDS"},"data":[0.0,0.0,0.0,0.0,0.0,0.0,0.0,0.0,0.0,0.0,0.0,0.0,0.0,0.0,0.0,0.0,0.0,0.0,0.0,0.0,0.0,0.0,0.0,0.0,0.0,0.0,0.0,0.0,0.0,0.0,0.0,0.0,0.0,0.0,0.0,0.0,0.0,0.0,0.0,0.0,0.0,0.0,0.0,0.0,0.0,0.0,0.0,0.0,0.0,0.0,0.0,0.0,0.0,0.0,0.0,0.0,0.0,0.0,0.0,0.0,0.0,0.0,0.0,0.0,0.0,0.0,0.0,0.0,0.0,0.0,0.0,0.0,0.0,0.0,0.0,0.0,0.0,0.0,0.0,0.0,0.0,0.0,0.0,0.0,0.0,0.0,0.0,0.0,0.0,0.0,0.0,0.0,0.0,0.0,0.0,0.0,0.0,0.0,0.0,0.0,0.0,0.0,0.0,0.0,0.0,0.0,0.0,0.0,0.0,0.0,0.0,0.0,0.0,0.0,0.0,0.0,0.0,0.0,0.0,0.0,0.0,0.0,0.0,0.0,0.0,0.0,0.0,0.0,0.0,0.0,0.0,0.0,0.0,0.0,0.0,0.0,0.0,0.0,0.0,0.0,0.0,0.0,0.0,0.0,0.0,0.0,0.0,0.0,0.0,0.0,0.0,0.0,0.0,0.0,0.0,0.0,0.0,0.0,0.0,0.0,0.0,0.0,0.0,0.0,0.0,0.0,0.0,0.0,0.0,0.0,0.0,0.0,0.0,0.0,0.0,0.0,0.0,0.0,0.0,0.0,0.0,0.0,0.0,0.0,0.0,0.0,0.0,0.0,0.0,0.0,0.0,0.0,0.0,0.0,0.0,0.0,0.0,0.0,0.0,0.0,0.0,0.0,0.0,0.0,0.0,0.0,0.0,0.0,0.0,0.0,0.0,0.0,0.0,0.0,0.0,0.0,0.0,0.0,0.0,0.0,0.0,0.0,0.0,0.0,0.0,0.0,0.0,0.0,0.0,0.0,0.0,0.0,0.0,0.0,0.0,0.0,0.0,0.0,0.0,0.0,0.0,0.0,0.0,0.0,0.0,0.0,0.0,0.0,0.0,0.0,0.0,0.0,0.0,0.0,0.0,0.0,0.0,0.0,0.0,0.0,0.0,0.0,0.0,0.0,0.0,0.0,0.0,0.0,0.0,0.0,0.0,0.0,0.0,0.0,0.0,0.0,0.0,0.0,0.0,0.0,0.0,0.0,0.0,0.0,0.0,0.0,0.0,0.0,0.0,0.0,0.0,0.0,0.0,0.0,0.0,0.0,0.0,0.0,0.0,0.0,0.0,0.0,0.0,0.0,0.0,0.0,0.0,0.0,0.0,0.0,0.0,0.0,0.0,0.0,0.0,0.0,0.0,0.0,0.0,0.0,0.0,0.0,0.0,0.0,0.0,0.0,0.0,0.0,0.0,0.0,0.0,0.0,0.0,0.0,0.0,0.0,0.0,0.0,0.0,0.0,0.0,0.0,0.0,0.0,0.0,0.0,0.0,0.0,0.0,0.0,0.0,0.0,0.0,0.0,0.0,0.0,0.0,0.0,0.0,0.0,0.0,0.0,0.0,0.0,0.0,0.0,0.0,0.0,0.0,0.0,0.0,0.0,0.0,0.0,0.0,0.0,0.0,0.0,0.0,0.0,0.0,0.0,0.0,0.0,0.0,0.0,0.0,0.0,0.0,0.0,0.0,0.0,0.0,0.0,0.0,0.0,0.0,0.0,0.0,0.0,0.0,0.0,0.0,0.0,0.0,0.0,0.0,0.0,0.0,0.0,0.0,0.0,0.0,0.0,0.0,0.0,0.0,0.0,0.0,0.0,0.0,0.0,0.0,0.0,0.0,0.0,0.0,0.0,0.0,0.0,0.0,0.0,0.0,0.0,0.0,0.0,0.0,0.0,0.0,0.0,0.0,0.0,0.0,0.0,0.0,0.0,0.0,0.0,0.0,0.0,0.0,0.0,0.0,0.0,0.0,0.0,0.0,0.0,0.0,0.0,0.0,0.0,0.0,0.0,0.0,0.0,0.0,0.0,0.0,0.0,0.0,0.0,0.0,0.0,0.0,0.0,0.0,0.0,0.0,0.0,0.0,0.0,0.0,0.0,0.0,0.0,0.0,0.0,0.0,0.0,0.0,0.0,0.0,0.0,0.0,0.0,0.0,0.0,0.0,0.0,0.0,0.0,0.0,0.0,0.0,0.0,0.0,0.0,0.0,0.0,0.0,0.0,0.0,0.0,0.0,0.0,0.0,0.0,0.0,0.0,0.0,0.0,0.0,0.0,0.0,0.0,0.0,0.0,0.0,0.0,0.0,0.0,0.0,0.0,0.0,0.0,0.0,0.0,0.0,0.0,0.0,0.0,0.0,0.0,0.0,0.0,0.0,0.0,0.0,0.0,0.0,0.0,0.0,0.0,0.0,0.0,0.0,0.0,0.0,0.0,0.0,0.0,0.0,0.0,0.0,0.0,0.0,0.0,0.0,0.0,0.0,0.0,0.0,0.0,0.0,0.0,0.0,0.0,0.0,0.0,0.0,0.0,0.0,0.0,0.0,0.0,0.0,0.0,0.0,0.0,0.0,0.0,0.0,0.0,0.0,0.0,0.0,0.0,0.0,0.0,0.0,0.0,0.0,0.0,0.0,0.0,0.0,0.0,0.0,0.0,0.0,0.0,0.0,0.0,0.0,0.0,0.0,0.0,0.0,0.0,0.0,0.0,0.0,0.0,0.0,0.0,0.0,0.0,0.0,0.0,0.0,0.0,0.0,0.0,0.0,0.0,0.0,0.0,0.0,0.0,0.0,0.0,0.0,0.0,0.0,0.0,0.0,0.0,0.0,0.0,0.0,0.0,0.0,0.0,0.0,0.0,0.0,0.0,0.0,0.0,0.0,0.0,0.0,0.0,0.0,0.0,0.0,0.0,0.0,0.0,0.0,0.0,0.0,0.0,0.0,0.0,0.0,0.0,0.0,0.0,0.0,0.0,0.0,0.0,0.0,0.0,0.0,0.0,0.0,0.0,0.0,0.0,0.0,0.0,0.0,0.0,0.0,0.0,0.0,0.0,0.0,0.0,0.0,0.0,0.0,0.0,0.0,0.0,0.0,0.0,0.0,0.0,0.0,0.0,0.0,0.0,0.0,0.0,0.0,0.0,0.0,0.0,0.0,0.0,0.0,0.0,0.0,0.0,0.0,0.0,0.0,0.0,0.0,0.0,0.0,0.0,0.0,0.0,0.0,0.0,0.0,0.0,0.0,0.0,0.0,0.0,0.0,0.0,0.0,0.0,0.0,0.0,0.0,0.0,0.0,0.0,0.0,0.0,0.0,0.0,0.0,0.0,0.0,0.0,0.0,0.0,0.0,0.0,0.0,0.0,0.0,0.0,0.0,0.0,0.0,0.0,0.0,0.0,0.0,0.0,0.0,0.0,0.0,0.0,0.0,0.0,0.0,0.0,0.0,0.0,0.0,0.0,0.0,0.0,0.0,0.0,0.0,0.0,0.0,0.0,0.0,0.0,0.0,0.0,0.0,0.0,0.0,0.0,0.0,0.0,0.0,0.0,0.0,0.0,0.0,0.0,0.0,0.0,0.0,0.0,0.0,0.0,0.0,0.0,0.0,0.0,0.0,0.0,0.0,0.0,0.0,0.0,0.0,0.0,0.0,0.0,0.0,0.0,0.0,0.0,0.0,0.0,0.0,0.0,0.0,0.0,0.0,0.0,0.0,0.0,0.0,0.0,0.0,0.0,0.0,0.0,0.0,0.0,0.0,0.0,0.0,0.0,0.0,0.0,0.0,0.0,0.0,0.0,0.0,0.0,0.0,0.0,0.0,0.0,0.0,0.0,0.0,0.0,0.0,0.0,0.0,0.0,0.0,0.0,0.0,0.0,0.0,0.0,0.0,0.0,0.0,0.0,0.0,0.0,0.0,0.0,0.0,0.0,0.0,0.0,0.0,0.0,0.0,0.0,0.0,0.0,0.0,0.0,0.0,0.0,0.0,0.0,0.0,0.0,0.0,0.0,0.0,0.0,0.0,0.0,0.0,0.0,0.0,0.0,0.0,0.0,0.0,0.0,0.0,0.0,0.0,0.0,0.0,0.0,0.0,0.0,0.0,0.0,0.0,0.0,0.0,0.0,0.0,0.0,0.0,0.0,0.0,0.0,0.0,0.0,0.0,0.0,0.0,0.0,0.0,0.0,0.0,0.0,0.0,0.0,0.0,0.0,0.0,0.0,0.0,0.0,-3.0206,0.0,0.0,0.0,0.0,0.0,0.0,0.0,0.0,0.0,0.0,0.0,0.0,0.0,0.0,0.0,0.0,0.0,0.0,0.0,0.0,0.0,0.0,0.0,0.0,0.0,0.0,0.0,0.0,0.0,0.0,0.0,0.0,0.0,0.0,0.0,0.0,0.0,0.0,0.0,0.0,0.0,0.0,0.0,0.0,0.0,0.0,0.0,0.0,0.0,0.0,0.0,0.0,0.0,0.0,0.0,0.0,0.0,0.0,0.0,0.0,0.0,0.0,0.0,0.0,0.0,0.0,0.0,0.0,0.0,0.0,0.0,0.0,0.0,0.0,0.0,0.0,0.0,0.0,0.0,0.0,0.0,0.0,0.0,0.0,0.0,0.0,0.0,0.0,0.0,0.0,0.0,0.0,0.0,0.0,0.0,0.0,0.0,0.0,0.0,0.0,0.0,0.0,0.0,0.0,0.0,0.0,0.0,0.0,0.0,0.0,-3.4756,-3.4395,-3.3625,-3.2651,-3.1466,0.0,0.0,0.0,0.0,0.0,0.0,0.0,0.0,0.0,0.0,0.0,0.0,0.0,0.0,0.0,0.0,0.0,0.0,0.0,0.0,0.0,0.0,0.0,0.0,0.0,0.0,0.0,0.0,0.0,0.0,0.0,0.0,0.0,0.0,0.0,0.0,0.0,0.0,0.0,0.0,0.0,0.0,0.0,0.0,0.0,0.0,0.0,0.0,0.0,0.0,0.0,0.0,0.0,0.0,0.0,0.0,0.0,0.0,0.0,0.0,0.0,0.0,0.0,0.0,0.0,0.0,0.0,0.0,0.0,0.0,0.0,0.0,0.0,0.0,0.0,0.0,0.0,0.0,0.0,0.0,0.0,0.0,0.0,0.0,0.0,0.0,0.0,0.0,0.0,0.0,0.0,0.0,0.0,0.0,0.0,0.0,0.0,0.0,0.0,0.0,0.0,0.0,0.0,0.0,0.0,0.0,0.0,0.0,0.0,0.0,0.0,0.0,-3.4639,-3.3551,-3.2313,0.0,0.0,0.0,0.0,0.0,0.0,0.0,0.0,0.0,0.0,0.0,0.0,0.0,0.0,0.0,0.0,0.0,0.0,0.0,0.0,0.0,0.0,0.0,0.0,0.0,0.0,0.0,0.0,0.0,0.0,0.0,0.0,0.0,0.0,0.0,0.0,0.0,0.0,0.0,0.0,0.0,0.0,0.0,0.0,0.0,0.0,0.0,0.0,0.0,0.0,0.0,0.0,0.0,0.0,0.0,0.0,0.0,0.0,0.0,0.0,0.0,0.0,0.0,0.0,0.0,0.0,0.0,0.0,0.0,0.0,0.0,0.0,0.0,0.0,0.0,0.0,0.0,0.0,0.0,0.0,0.0,0.0,0.0,0.0,0.0,0.0,0.0,0.0,0.0,0.0,0.0,0.0,0.0,0.0,0.0,0.0,0.0,0.0,0.0,0.0,0.0,0.0,0.0,0.0,0.0,0.0,0.0,0.0,0.0,0.0,-3.5807,-3.7271,-3.586,0.0,-3.1909,0.0,0.0,0.0,0.0,0.0,0.0,0.0,0.0,0.0,0.0,0.0,0.0,0.0,0.0,0.0,0.0,0.0,0.0,0.0,0.0,0.0,0.0,0.0,0.0,0.0,0.0,0.0,0.0,0.0,0.0,0.0,0.0,0.0,0.0,0.0,0.0,0.0,0.0,0.0,0.0,0.0,0.0,0.0,0.0,0.0,0.0,0.0,0.0,0.0,0.0,0.0,0.0,0.0,0.0,0.0,0.0,0.0,0.0,0.0,0.0,0.0,0.0,0.0,0.0,0.0,0.0,0.0,0.0,0.0,0.0,0.0,0.0,0.0,0.0,0.0,0.0,0.0,0.0,0.0,0.0,0.0,0.0,0.0,0.0,0.0,0.0,0.0,0.0,0.0,0.0,0.0,0.0,0.0,0.0,0.0,0.0,0.0,0.0,0.0,0.0,0.0,0.0,0.0,0.0,0.0,0.0,0.0,0.0,0.0,0.0,-3.6928,-3.7641,-3.6068,-3.4343,0.0,0.0,0.0,0.0,0.0,0.0,0.0,0.0,0.0,0.0,0.0,0.0,0.0,0.0,0.0,0.0,0.0,0.0,0.0,0.0,0.0,0.0,0.0,0.0,0.0,0.0,0.0,0.0,0.0,0.0,0.0,0.0,0.0,0.0,0.0,0.0,0.0,0.0,0.0,0.0,0.0,0.0,0.0,0.0,0.0,0.0,0.0,0.0,0.0,0.0,0.0,0.0,0.0,0.0,0.0,0.0,0.0,0.0,0.0,0.0,0.0,0.0,0.0,0.0,0.0,0.0,0.0,0.0,0.0,0.0,0.0,0.0,0.0,0.0,0.0,0.0,0.0,0.0,0.0,0.0,0.0,0.0,0.0,0.0,0.0,0.0,0.0,0.0,0.0,0.0,0.0,0.0,0.0,0.0,0.0,0.0,0.0,0.0,0.0,0.0,0.0,0.0,0.0,0.0,0.0,0.0,0.0,0.0,0.0,0.0,-3.7251,-3.7774,-3.7973,-3.6689,-3.5127,-3.3401,0.0,0.0,0.0,0.0,0.0,0.0,0.0,0.0,0.0,0.0,0.0,0.0,0.0,0.0,0.0,0.0,0.0,0.0,0.0,0.0,0.0,0.0,0.0,0.0,0.0,0.0,0.0,0.0,0.0,0.0,0.0,0.0,0.0,0.0,0.0,0.0,0.0,0.0,0.0,0.0,0.0,0.0,0.0,0.0,0.0,0.0,0.0,0.0,0.0,0.0,0.0,0.0,0.0,0.0,0.0,0.0,0.0,0.0,0.0,0.0,0.0,0.0,0.0,0.0,0.0,0.0,0.0,0.0,0.0,0.0,0.0,0.0,0.0,0.0,0.0,0.0,0.0,0.0,0.0,0.0,0.0,0.0,0.0,0.0,0.0,0.0,0.0,0.0,0.0,0.0,0.0,0.0,0.0,0.0,0.0,0.0,0.0,0.0,0.0,0.0,0.0,0.0,0.0,0.0,0.0,0.0,0.0,0.0,0.0,-3.8468,-3.8104,-3.8916,-3.8174,-3.6651,0.0,0.0,0.0,0.0,0.0,0.0,0.0,0.0,0.0,0.0,0.0,0.0,0.0,0.0,0.0,0.0,0.0,0.0,0.0,0.0,0.0,0.0,0.0,0.0,0.0,0.0,0.0,0.0,0.0,0.0,0.0,0.0,0.0,0.0,0.0,0.0,0.0,0.0,0.0,0.0,0.0,0.0,0.0,0.0,0.0,0.0,0.0,0.0,0.0,0.0,0.0,0.0,0.0,0.0,0.0,0.0,0.0,0.0,0.0,0.0,0.0,0.0,0.0,0.0,0.0,0.0,0.0,0.0,0.0,0.0,0.0,0.0,0.0,0.0,0.0,0.0,0.0,0.0,0.0,0.0,0.0,0.0,0.0,0.0,0.0,0.0,0.0,0.0,0.0,0.0,0.0,0.0,0.0,0.0,0.0,0.0,0.0,0.0,0.0,0.0,0.0,0.0,0.0,0.0,0.0,0.0,0.0,0.0,0.0,-3.7717,-3.8793,-3.9775,-4.0511,-3.8278,-3.6123,0.0,0.0,0.0,0.0,0.0,0.0,0.0,0.0,0.0,0.0,0.0,0.0,0.0,0.0,0.0,0.0,0.0,0.0,0.0,0.0,0.0,0.0,0.0,0.0,0.0,0.0,0.0,0.0,0.0,0.0,0.0,0.0,0.0,0.0,0.0,0.0,0.0,0.0,0.0,0.0,0.0,0.0,0.0,0.0,0.0,0.0,0.0,0.0,0.0,0.0,0.0,0.0,0.0,0.0,0.0,0.0,0.0,0.0,0.0,0.0,0.0,0.0,0.0,0.0,0.0,0.0,0.0,0.0,0.0,0.0,0.0,0.0,0.0,0.0,0.0,0.0,0.0,0.0,0.0,0.0,0.0,0.0,0.0,0.0,0.0,0.0,0.0,0.0,0.0,0.0,0.0,0.0,0.0,0.0,0.0,0.0,0.0,0.0,0.0,0.0,0.0,0.0,0.0,0.0,0.0,0.0,0.0,0.0,0.0,-3.7659,0.0,-4.1113,0.0,-3.8465,-3.6005,0.0,0.0,0.0,0.0,0.0,0.0,0.0,0.0,0.0,0.0,0.0,0.0,0.0,0.0,0.0,0.0,0.0,0.0,0.0,0.0,0.0,0.0,0.0,0.0,0.0,0.0,0.0,0.0,0.0,0.0,0.0,0.0,0.0,0.0,0.0,0.0,0.0,0.0,0.0,0.0,0.0,0.0,0.0,0.0,0.0,0.0,0.0,0.0,0.0,0.0,0.0,0.0,0.0,0.0,0.0,0.0,0.0,0.0,0.0,0.0,0.0,0.0,0.0,0.0,0.0,0.0,0.0,0.0,0.0,0.0,0.0,0.0,0.0,0.0,0.0,0.0,0.0,0.0,0.0,0.0,0.0,0.0,0.0,0.0,0.0,0.0,0.0,0.0,0.0,0.0,0.0,0.0,0.0,0.0,0.0,0.0,0.0,0.0,0.0,0.0,0.0,0.0,0.0,0.0,0.0,0.0,0.0,0.0,-3.6882,-4.0148,-4.182,-4.1896,-4.0368,-3.8825,-3.6468,0.0,0.0,0.0,0.0,0.0,0.0,0.0,0.0,0.0,0.0,0.0,0.0,0.0,0.0,0.0,0.0,0.0,0.0,0.0,0.0,0.0,0.0,0.0,0.0,0.0,0.0,0.0,0.0,0.0,0.0,0.0,0.0,0.0,0.0,0.0,0.0,0.0,0.0,0.0,0.0,0.0,0.0,0.0,0.0,0.0,0.0,0.0,0.0,0.0,0.0,0.0,0.0,0.0,0.0,0.0,0.0,0.0,0.0,0.0,0.0,0.0,0.0,0.0,0.0,0.0,0.0,0.0,0.0,0.0,0.0,0.0,0.0,0.0,0.0,0.0,0.0,0.0,0.0,0.0,0.0,0.0,0.0,0.0,0.0,0.0,0.0,0.0,0.0,0.0,0.0,0.0,0.0,0.0,0.0,0.0,0.0,0.0,0.0,0.0,0.0,0.0,0.0,0.0,0.0,0.0,0.0,0.0,0.0,0.0,-4.0244,-4.0798,-4.1094,-4.1027,-3.8531,-3.6106,0.0,0.0,0.0,0.0,0.0,0.0,0.0,0.0,0.0,0.0,0.0,0.0,0.0,0.0,0.0,0.0,0.0,0.0,0.0,0.0,0.0,0.0,0.0,0.0,0.0,0.0,0.0,0.0,0.0,0.0,0.0,0.0,0.0,0.0,0.0,0.0,0.0,0.0,0.0,0.0,0.0,0.0,0.0,0.0,0.0,0.0,0.0,0.0,0.0,0.0,0.0,0.0,0.0,0.0,0.0,0.0,0.0,0.0,0.0,0.0,0.0,0.0,0.0,0.0,0.0,0.0,0.0,0.0,0.0,0.0,0.0,0.0,0.0,0.0,0.0,0.0,0.0,0.0,0.0,0.0,0.0,0.0,0.0,0.0,0.0,0.0,0.0,0.0,0.0,0.0,0.0,0.0,0.0,0.0,0.0,0.0,0.0,0.0,0.0,0.0,0.0,0.0,0.0,0.0,0.0,0.0,0.0,0.0,0.0,-4.117,-4.1227,-4.1323,-4.1504,-3.8668,-3.6246,-3.4289,0.0,0.0,0.0,0.0,0.0,0.0,0.0,0.0,0.0,0.0,0.0,0.0,0.0,0.0,0.0,0.0,0.0,0.0,0.0,0.0,0.0,0.0,0.0,0.0,0.0,0.0,0.0,0.0,0.0,0.0,0.0,0.0,0.0,0.0,0.0,0.0,0.0,0.0,0.0,0.0,0.0,0.0,0.0,0.0,0.0,0.0,0.0,0.0,0.0,0.0,0.0,0.0,0.0,0.0,0.0,0.0,0.0,0.0,0.0,0.0,0.0,0.0,0.0,0.0,0.0,0.0,0.0,0.0,0.0,0.0,0.0,0.0,0.0,0.0,0.0,0.0,0.0,0.0,0.0,0.0,0.0,0.0,0.0,0.0,0.0,0.0,0.0,0.0,0.0,0.0,0.0,0.0,0.0,0.0,0.0,0.0,0.0,0.0,0.0,0.0,0.0,0.0,0.0,0.0,0.0,0.0,0.0,0.0,-4.2756,-4.2737,-4.2335,-4.1571,-3.9246,-3.6848,0.0,0.0,0.0,0.0,0.0,0.0,0.0,0.0,0.0,0.0,0.0,0.0,0.0,0.0,0.0,0.0,0.0,0.0,0.0,0.0,0.0,0.0,0.0,0.0,0.0,0.0,0.0,0.0,0.0,0.0,0.0,0.0,0.0,0.0,0.0,0.0,0.0,0.0,0.0,0.0,0.0,0.0,0.0,0.0,0.0,0.0,0.0,0.0,0.0,0.0,0.0,0.0,0.0,0.0,0.0,0.0,0.0,0.0,0.0,0.0,0.0,0.0,0.0,0.0,0.0,0.0,0.0,0.0,0.0,0.0,0.0,0.0,0.0,0.0,0.0,0.0,0.0,0.0,0.0,0.0,0.0,0.0,0.0,0.0,0.0,0.0,0.0,0.0,0.0,0.0,0.0,0.0,0.0,0.0,0.0,0.0,0.0,0.0,0.0,0.0,0.0,0.0,0.0,0.0,0.0,0.0,0.0,0.0,0.0,-4.2698,-4.2163,-4.203,-4.2383,-4.0125,-3.8005,0.0,0.0,0.0,0.0,0.0,0.0,0.0,0.0,0.0,0.0,0.0,0.0,0.0,0.0,0.0,0.0,0.0,0.0,0.0,0.0,0.0,0.0,0.0,0.0,0.0,0.0,0.0,0.0,0.0,0.0,0.0,0.0,0.0,0.0,0.0,0.0,0.0,0.0,0.0,0.0,0.0,0.0,0.0,0.0,0.0,0.0,0.0,0.0,0.0,0.0,0.0,0.0,0.0,0.0,0.0,0.0,0.0,0.0,0.0,0.0,0.0,0.0,0.0,0.0,0.0,0.0,0.0,0.0,0.0,0.0,0.0,0.0,0.0,0.0,0.0,0.0,0.0,0.0,0.0,0.0,0.0,0.0,0.0,0.0,0.0,0.0,0.0,0.0,0.0,0.0,0.0,0.0,0.0,0.0,0.0,0.0,0.0,0.0,0.0,0.0,0.0,0.0,0.0,0.0,0.0,0.0,0.0,0.0,-4.182,-4.2775,-4.266,-4.2641,-4.2775,-4.0391,-3.8396,0.0,0.0,0.0,0.0,0.0,0.0,0.0,0.0,0.0,0.0,0.0,0.0,0.0,0.0,0.0,0.0,0.0,0.0,0.0,0.0,0.0,0.0,0.0,0.0,0.0,0.0,0.0,0.0,0.0,0.0,0.0,0.0,0.0,0.0,0.0,0.0,0.0,0.0,0.0,0.0,0.0,0.0,0.0,0.0,0.0,0.0,0.0,0.0,0.0,0.0,0.0,0.0,0.0,0.0,0.0,0.0,0.0,0.0,0.0,0.0,0.0,0.0,0.0,0.0,0.0,0.0,0.0,0.0,0.0,0.0,0.0,0.0,0.0,0.0,0.0,0.0,0.0,0.0,0.0,0.0,0.0,0.0,0.0,0.0,0.0,0.0,0.0,0.0,0.0,0.0,0.0,0.0,0.0,0.0,0.0,0.0,0.0,0.0,0.0,0.0,0.0,0.0,0.0,0.0,0.0,0.0,0.0,0.0,-4.2756,-4.2679,-4.3452,-4.3491,-4.2641,-4.0368,-3.8421,0.0,0.0,0.0,0.0,0.0,0.0,0.0,0.0,0.0,0.0,0.0,0.0,0.0,0.0,0.0,0.0,0.0,0.0,0.0,0.0,0.0,0.0,0.0,0.0,0.0,0.0,0.0,0.0,0.0,0.0,0.0,0.0,0.0,0.0,0.0,0.0,0.0,0.0,0.0,0.0,0.0,0.0,0.0,0.0,0.0,0.0,0.0,0.0,0.0,0.0,0.0,0.0,0.0,0.0,0.0,0.0,0.0,0.0,0.0,0.0,0.0,0.0,0.0,0.0,0.0,0.0,0.0,0.0,0.0,0.0,0.0,0.0,0.0,0.0,0.0,0.0,0.0,0.0,0.0,0.0,0.0,0.0,0.0,0.0,0.0,0.0,0.0,0.0,0.0,0.0,0.0,0.0,0.0,0.0,0.0,0.0,0.0,0.0,0.0,0.0,0.0,0.0,0.0,0.0,0.0,0.0,0.0,0.0,-4.245,-4.18,-4.2622,-4.2641,-4.1781,-4.0654,-3.9272,0.0,0.0,0.0,0.0,0.0,0.0,0.0,0.0,0.0,0.0,0.0,0.0,0.0,0.0,0.0,0.0,0.0,0.0,0.0,0.0,0.0,0.0,0.0,0.0,0.0,0.0,0.0,0.0,0.0,0.0,0.0,0.0,0.0,0.0,0.0,0.0,0.0,0.0,0.0,0.0,0.0,0.0,0.0,0.0,0.0,0.0,0.0,0.0,-3.8206,0.0,0.0,0.0,0.0,0.0,0.0,0.0,0.0,0.0,0.0,0.0,0.0,0.0,0.0,0.0,0.0,0.0,0.0,0.0,0.0,0.0,0.0,0.0,0.0,0.0,0.0,0.0,0.0,0.0,0.0,0.0,0.0,0.0,0.0,0.0,0.0,0.0,0.0,0.0,0.0,0.0,0.0,0.0,0.0,0.0,0.0,0.0,0.0,0.0,0.0,0.0,0.0,0.0,0.0,0.0,0.0,0.0,0.0,0.0,-4.1953,-4.1523,-4.1934,-4.1972,-4.1495,-4.0702,-3.9557,0.0,0.0,0.0,0.0,0.0,0.0,0.0,0.0,0.0,0.0,0.0,0.0,0.0,0.0,0.0,0.0,0.0,0.0,0.0,0.0,0.0,0.0,0.0,0.0,0.0,0.0,0.0,0.0,0.0,0.0,0.0,0.0,0.0,0.0,0.0,0.0,0.0,0.0,0.0,0.0,0.0,0.0,0.0,0.0,0.0,0.0,0.0,0.0,0.0,0.0,0.0,0.0,0.0,0.0,0.0,0.0,0.0,0.0,0.0,0.0,0.0,0.0,0.0,0.0,0.0,0.0,0.0,0.0,0.0,0.0,0.0,0.0,0.0,0.0,0.0,0.0,0.0,0.0,0.0,0.0,0.0,0.0,0.0,0.0,0.0,0.0,0.0,0.0,0.0,0.0,0.0,0.0,0.0,0.0,0.0,0.0,0.0,0.0,0.0,0.0,0.0,0.0,0.0,0.0,0.0,0.0,0.0,-4.0138,-4.1304,-4.1323,-4.1437,-4.1437,-4.1304,-4.0654,-3.9591,-3.8132,0.0,0.0,0.0,0.0,0.0,0.0,0.0,0.0,0.0,0.0,0.0,0.0,0.0,0.0,0.0,0.0,0.0,0.0,0.0,0.0,0.0,0.0,0.0,0.0,0.0,0.0,0.0,0.0,0.0,0.0,0.0,0.0,0.0,0.0,0.0,0.0,0.0,0.0,-3.5438,-3.7552,0.0,0.0,0.0,0.0,0.0,0.0,0.0,0.0,-4.0971,0.0,0.0,0.0,0.0,0.0,0.0,0.0,0.0,0.0,0.0,0.0,0.0,0.0,0.0,0.0,0.0,0.0,0.0,0.0,0.0,0.0,0.0,0.0,0.0,0.0,0.0,0.0,0.0,0.0,0.0,0.0,0.0,0.0,0.0,0.0,0.0,0.0,0.0,0.0,0.0,0.0,0.0,0.0,0.0,0.0,0.0,0.0,0.0,0.0,0.0,0.0,0.0,0.0,0.0,0.0,0.0,-3.8763,-3.9928,-4.052,-4.0511,-4.1151,-4.117,-4.054,-4.0358,-3.9559,-3.7995,0.0,0.0,0.0,0.0,0.0,0.0,0.0,0.0,0.0,0.0,0.0,0.0,0.0,0.0,0.0,0.0,0.0,0.0,0.0,0.0,0.0,0.0,0.0,0.0,0.0,0.0,0.0,0.0,0.0,0.0,0.0,0.0,0.0,0.0,0.0,0.0,0.0,0.0,0.0,-3.9646,-4.1086,0.0,0.0,0.0,0.0,0.0,0.0,0.0,0.0,-4.1584,0.0,0.0,0.0,0.0,0.0,0.0,0.0,0.0,0.0,0.0,0.0,0.0,0.0,0.0,0.0,0.0,0.0,0.0,0.0,0.0,0.0,0.0,0.0,0.0,0.0,0.0,0.0,0.0,0.0,0.0,0.0,0.0,0.0,0.0,0.0,0.0,0.0,0.0,0.0,0.0,0.0,0.0,0.0,0.0,0.0,0.0,0.0,0.0,0.0,0.0,0.0,0.0,0.0,0.0,0.0,-3.8343,-3.9642,-4.032,-4.032,-4.0673,-4.0692,-4.0301,-3.9871,-3.9047,0.0,0.0,0.0,0.0,0.0,0.0,0.0,0.0,0.0,0.0,0.0,0.0,0.0,0.0,0.0,0.0,0.0,0.0,0.0,0.0,0.0,0.0,0.0,0.0,0.0,0.0,0.0,0.0,0.0,0.0,0.0,0.0,0.0,0.0,0.0,0.0,0.0,0.0,0.0,0.0,-4.0412,-4.1503,-4.2268,0.0,0.0,0.0,0.0,0.0,0.0,-4.1551,-4.1697,0.0,0.0,0.0,0.0,0.0,0.0,0.0,0.0,0.0,0.0,0.0,0.0,0.0,0.0,0.0,0.0,0.0,0.0,0.0,0.0,0.0,0.0,0.0,0.0,0.0,0.0,0.0,0.0,0.0,0.0,0.0,0.0,0.0,0.0,0.0,0.0,0.0,0.0,0.0,0.0,0.0,0.0,0.0,0.0,0.0,0.0,0.0,0.0,0.0,0.0,0.0,0.0,0.0,0.0,0.0,-3.7733,-3.9166,-4.0063,-4.0301,-4.032,-4.0225,-4.0014,-3.9346,-3.8514,0.0,0.0,0.0,0.0,0.0,0.0,0.0,0.0,0.0,0.0,0.0,0.0,0.0,0.0,0.0,0.0,0.0,0.0,0.0,0.0,0.0,0.0,0.0,0.0,0.0,0.0,0.0,0.0,0.0,0.0,0.0,0.0,0.0,0.0,0.0,0.0,0.0,0.0,0.0,0.0,0.0,-4.2098,-4.2571,-4.2666,0.0,0.0,0.0,0.0,-4.1323,-4.1839,0.0,0.0,0.0,0.0,0.0,0.0,0.0,0.0,0.0,0.0,0.0,0.0,0.0,0.0,0.0,0.0,0.0,0.0,0.0,0.0,0.0,0.0,0.0,0.0,0.0,0.0,0.0,0.0,0.0,0.0,0.0,0.0,0.0,0.0,0.0,0.0,0.0,0.0,0.0,0.0,0.0,0.0,0.0,0.0,0.0,0.0,0.0,0.0,0.0,0.0,0.0,0.0,0.0,0.0,0.0,0.0,-3.7679,-3.8362,-3.9226,-4.0253,-4.0301,-3.9938,-3.9183,-3.9049,-3.8257,0.0,0.0,0.0,0.0,0.0,0.0,0.0,0.0,0.0,0.0,0.0,0.0,0.0,0.0,0.0,0.0,0.0,0.0,0.0,0.0,0.0,0.0,0.0,0.0,0.0,0.0,0.0,0.0,0.0,0.0,0.0,0.0,0.0,0.0,0.0,0.0,0.0,0.0,0.0,0.0,0.0,-4.4251,-4.3644,-4.3549,-4.3561,0.0,0.0,-4.3536,-4.3819,-4.3838,0.0,0.0,0.0,0.0,0.0,0.0,0.0,0.0,0.0,0.0,0.0,0.0,0.0,0.0,0.0,0.0,0.0,0.0,0.0,0.0,0.0,0.0,0.0,0.0,0.0,0.0,0.0,0.0,0.0,0.0,0.0,0.0,0.0,0.0,0.0,0.0,0.0,0.0,0.0,0.0,0.0,0.0,0.0,0.0,0.0,0.0,0.0,0.0,0.0,0.0,0.0,0.0,0.0,0.0,0.0,-3.6257,-3.7246,-3.838,-3.932,-4.0029,-4.0077,-3.9737,-3.9021,-3.8514,-3.7483,0.0,0.0,0.0,0.0,0.0,0.0,0.0,0.0,0.0,0.0,0.0,0.0,0.0,0.0,0.0,0.0,0.0,0.0,0.0,0.0,0.0,0.0,0.0,0.0,0.0,0.0,0.0,0.0,0.0,0.0,0.0,0.0,0.0,0.0,0.0,0.0,0.0,0.0,0.0,0.0,0.0,0.0,-4.4166,-4.3882,0.0,0.0,0.0,-4.3623,-4.3384,0.0,0.0,0.0,0.0,0.0,0.0,0.0,0.0,0.0,0.0,0.0,0.0,0.0,0.0,0.0,0.0,0.0,0.0,0.0,0.0,0.0,0.0,0.0,0.0,0.0,0.0,0.0,0.0,0.0,0.0,0.0,0.0,0.0,0.0,0.0,0.0,0.0,0.0,0.0,0.0,0.0,0.0,0.0,0.0,0.0,0.0,0.0,0.0,0.0,0.0,0.0,0.0,0.0,0.0,0.0,0.0,0.0,-3.6856,-3.8183,-3.9021,-3.9411,-3.9433,-3.9047,-3.8194,-3.7538,0.0,0.0,0.0,0.0,0.0,0.0,0.0,0.0,0.0,0.0,0.0,0.0,0.0,0.0,0.0,0.0,0.0,0.0,0.0,0.0,0.0,0.0,0.0,0.0,0.0,0.0,0.0,-2.7615,0.0,0.0,0.0,0.0,0.0,0.0,0.0,0.0,0.0,0.0,0.0,0.0,0.0,0.0,-4.2808,-4.4137,-4.3999,-4.3812,0.0,0.0,-4.3792,-4.3321,-4.3335,-4.3168,0.0,0.0,0.0,0.0,0.0,0.0,0.0,0.0,0.0,0.0,0.0,0.0,0.0,0.0,0.0,0.0,0.0,0.0,0.0,0.0,0.0,0.0,0.0,0.0,0.0,0.0,0.0,0.0,0.0,0.0,0.0,0.0,0.0,0.0,0.0,0.0,0.0,0.0,0.0,0.0,0.0,0.0,0.0,0.0,0.0,0.0,0.0,0.0,0.0,0.0,0.0,0.0,0.0,0.0,0.0,-3.6652,-3.7327,-3.7775,-3.811,-3.819,-3.7476,-3.598,-3.5856,-3.5166,0.0,0.0,0.0,0.0,0.0,0.0,0.0,0.0,0.0,0.0,0.0,0.0,0.0,0.0,0.0,0.0,0.0,0.0,0.0,0.0,0.0,0.0,0.0,0.0,0.0,0.0,0.0,0.0,0.0,0.0,0.0,0.0,0.0,0.0,0.0,0.0,0.0,0.0,0.0,0.0,0.0,-4.3219,-4.3308,-4.3951,-4.4479,0.0,-4.4638,-4.4707,-4.4978,-4.5004,-4.484,-4.4215,0.0,0.0,0.0,0.0,0.0,0.0,0.0,0.0,0.0,0.0,0.0,0.0,0.0,0.0,0.0,0.0,0.0,0.0,0.0,0.0,0.0,0.0,0.0,0.0,0.0,0.0,0.0,0.0,0.0,0.0,0.0,0.0,0.0,0.0,0.0,0.0,0.0,0.0,0.0,0.0,0.0,0.0,0.0,0.0,0.0,0.0,0.0,0.0,0.0,0.0,0.0,0.0,0.0,-3.3689,-3.5432,-3.6142,-3.6677,-3.6994,-3.7034,-3.6603,-3.5666,-3.564,-3.4645,0.0,0.0,0.0,0.0,0.0,0.0,0.0,0.0,0.0,0.0,0.0,0.0,0.0,0.0,0.0,0.0,0.0,0.0,0.0,0.0,0.0,0.0,0.0,0.0,0.0,0.0,0.0,0.0,-3.0033,-3.0694,-3.192,0.0,0.0,0.0,0.0,0.0,0.0,0.0,0.0,0.0,0.0,-4.2646,-4.3718,-4.4148,0.0,0.0,-4.4587,-4.4611,-4.4753,-4.4392,-4.4064,-4.3999,-4.3647,0.0,0.0,0.0,0.0,0.0,0.0,0.0,0.0,0.0,0.0,0.0,0.0,0.0,0.0,0.0,0.0,0.0,0.0,0.0,0.0,0.0,0.0,0.0,0.0,0.0,0.0,0.0,0.0,0.0,0.0,0.0,0.0,0.0,0.0,0.0,0.0,0.0,0.0,0.0,0.0,0.0,0.0,0.0,0.0,0.0,0.0,0.0,0.0,0.0,0.0,0.0,0.0,-3.3006,-3.4658,-3.5224,-3.5629,-3.5864,-3.5892,-3.5601,-3.5002,-3.4964,-3.4074,0.0,0.0,0.0,0.0,0.0,0.0,0.0,0.0,0.0,0.0,0.0,0.0,0.0,0.0,0.0,0.0,0.0,0.0,0.0,0.0,0.0,0.0,0.0,0.0,0.0,0.0,0.0,0.0,-3.1237,-3.2238,-3.3257,0.0,0.0,0.0,0.0,0.0,0.0,0.0,0.0,0.0,0.0,-4.2508,-4.4005,-4.4207,-4.4274,-4.4414,-4.4435,-4.4444,-4.4496,-4.407,-4.38,-4.4011,0.0,0.0,0.0,0.0,0.0,0.0,0.0,0.0,0.0,0.0,0.0,0.0,0.0,0.0,0.0,0.0,0.0,0.0,0.0,0.0,0.0,0.0,0.0,0.0,0.0,0.0,0.0,-3.2484,0.0,0.0,-3.2368,0.0,0.0,0.0,0.0,0.0,0.0,0.0,0.0,0.0,0.0,0.0,0.0,0.0,0.0,0.0,0.0,0.0,0.0,0.0,0.0,0.0,0.0,-3.2977,-3.4552,-3.4588,-3.464,-3.464,-3.4697,-3.436,-3.3625,-3.3556,-3.3232,-3.2586,0.0,0.0,0.0,0.0,0.0,0.0,0.0,0.0,0.0,0.0,0.0,0.0,0.0,0.0,0.0,0.0,0.0,0.0,0.0,0.0,0.0,0.0,0.0,0.0,0.0,0.0,-3.1141,-3.2049,-3.3056,0.0,0.0,0.0,0.0,0.0,0.0,0.0,0.0,0.0,0.0,-4.2122,-4.3058,-4.3893,-4.4005,-4.4076,-4.4275,-4.4304,-4.4352,-4.447,-4.4463,-4.45,0.0,0.0,0.0,0.0,0.0,0.0,0.0,0.0,0.0,0.0,0.0,0.0,0.0,0.0,0.0,0.0,0.0,0.0,0.0,0.0,0.0,0.0,0.0,0.0,0.0,0.0,0.0,-3.3039,-3.2393,0.0,0.0,0.0,0.0,0.0,0.0,0.0,0.0,0.0,0.0,0.0,-3.4525,-3.5268,0.0,0.0,0.0,0.0,0.0,0.0,0.0,0.0,0.0,0.0,0.0,0.0,-3.2469,-3.2995,-3.352,-3.381,-3.381,-3.3806,-3.3694,-3.3455,-3.3455,-3.2879,-3.1757,0.0,0.0,0.0,0.0,0.0,0.0,0.0,0.0,0.0,0.0,0.0,0.0,0.0,0.0,0.0,0.0,0.0,0.0,0.0,0.0,0.0,0.0,0.0,0.0,0.0,-3.2581,0.0,0.0,0.0,0.0,0.0,0.0,0.0,0.0,0.0,0.0,0.0,-4.0398,-4.1107,-4.1823,-4.2555,-4.3362,-4.3758,-4.4023,0.0,0.0,0.0,0.0,0.0,0.0,0.0,0.0,0.0,0.0,0.0,0.0,0.0,0.0,-4.2589,-4.1243,-4.0612,-4.0382,-4.0659,0.0,0.0,0.0,0.0,0.0,0.0,0.0,0.0,0.0,0.0,0.0,0.0,0.0,0.0,-3.3621,-3.3072,-3.2801,0.0,0.0,0.0,0.0,0.0,0.0,0.0,0.0,-3.5036,-3.516,-3.4901,-3.5654,-3.574,0.0,-3.5506,-3.5046,0.0,0.0,0.0,0.0,0.0,0.0,0.0,0.0,-3.2614,-3.2632,-3.314,-3.3393,-3.3393,-3.3393,-3.3393,-3.3393,-3.3393,-3.2831,-3.1662,-3.1162,-3.0216,0.0,0.0,0.0,0.0,0.0,0.0,0.0,0.0,0.0,0.0,0.0,0.0,0.0,0.0,0.0,0.0,0.0,0.0,0.0,0.0,0.0,0.0,0.0,-3.3099,0.0,0.0,0.0,0.0,0.0,0.0,0.0,0.0,0.0,-3.9157,-3.9877,-4.0591,-4.1015,-4.1702,-4.2432,-4.3067,0.0,0.0,0.0,0.0,0.0,0.0,0.0,-4.4064,-4.4236,-4.4265,-4.4252,-4.4247,-4.3799,-4.3446,-4.3538,0.0,0.0,-4.2187,-4.1895,-4.175,-4.1762,-4.0835,-3.9928,-3.9786,-3.8755,-3.7851,0.0,0.0,0.0,0.0,0.0,0.0,0.0,0.0,-3.4464,-3.4628,0.0,-3.3825,0.0,0.0,0.0,0.0,0.0,-3.4206,0.0,0.0,-3.5267,-3.56,-3.5605,-3.5673,-3.6079,-3.6728,-3.6101,-3.5912,-3.6169,-3.5153,0.0,0.0,0.0,0.0,0.0,0.0,-3.3414,-3.3375,-3.3393,-3.3393,-3.3393,-3.3393,-3.3393,-3.3393,-3.3393,-3.3013,-3.2248,-3.2342,-3.1743,-3.0192,-3.0323,0.0,0.0,0.0,0.0,0.0,0.0,0.0,0.0,0.0,0.0,0.0,0.0,0.0,0.0,0.0,0.0,0.0,0.0,0.0,0.0,-3.292,0.0,0.0,0.0,0.0,0.0,0.0,0.0,0.0,0.0,0.0,-3.8736,-4.0076,-4.1085,-4.0821,0.0,0.0,0.0,0.0,-4.3248,-4.3703,-4.3835,-4.3881,-4.3881,-4.3942,-4.3989,-4.3949,0.0,0.0,-4.3221,-4.2291,-4.1729,-4.194,-4.1848,-4.2092,-4.3559,-4.3295,-4.3028,-4.2994,-4.1297,-4.0268,-4.0882,-3.927,-3.798,-3.4786,0.0,0.0,0.0,0.0,-3.548,-3.5065,-3.4732,-3.5358,-3.5028,-3.4144,-3.5321,0.0,0.0,0.0,0.0,0.0,0.0,-3.5278,-3.5318,-3.5498,-3.5616,-3.5633,-3.6738,-3.7094,-3.6829,-3.7618,-3.7824,-3.7415,-3.7087,-3.568,-3.3283,0.0,0.0,0.0,0.0,-3.3679,-3.3414,-3.3393,-3.3393,-3.3393,-3.3393,-3.3393,-3.3393,-3.3393,-3.3013,-3.2234,-3.2208,-3.1719,-3.0717,-3.0163,0.0,0.0,0.0,0.0,0.0,0.0,0.0,0.0,0.0,0.0,0.0,0.0,0.0,0.0,0.0,0.0,0.0,0.0,0.0,-3.3487,-3.3404,-3.3776,0.0,0.0,0.0,0.0,0.0,0.0,0.0,0.0,0.0,-3.9412,-4.0306,-4.0956,0.0,0.0,-4.199,-4.2098,-4.2424,-4.2829,-4.323,-4.3319,0.0,-4.3786,-4.3835,-4.3682,-4.309,-4.2535,-4.2082,-4.1932,-4.1649,-4.1489,-4.1557,-4.1519,-4.161,-4.1995,-4.211,-4.2056,-4.1973,-4.117,-4.0326,-3.9939,-3.8733,-3.7759,-3.4775,-3.4695,-3.4706,-3.4963,-3.5342,-3.4883,-3.4573,-3.439,-3.5026,-3.4948,-3.4415,-3.5291,-3.5086,-3.4067,-3.3911,0.0,0.0,0.0,-3.5549,-3.5549,-3.5549,-3.5526,-3.5571,-3.6494,-3.6848,-3.669,-3.7542,-3.7896,-3.7745,-3.7417,-3.6203,-3.4206,0.0,0.0,-3.2554,-3.298,-3.31,-3.2866,-3.3008,-3.3104,-3.3135,-3.3289,-3.3497,-3.374,-3.3452,-3.3054,-3.2585,-3.2505,-3.2115,-3.1358,-3.083,-3.0244,0.0,0.0,0.0,0.0,0.0,0.0,0.0,0.0,0.0,0.0,0.0,-3.1653,-3.2132,0.0,0.0,0.0,-3.3184,-3.3544,-3.4517,-3.4496,0.0,0.0,0.0,0.0,0.0,0.0,0.0,-3.9646,-3.9974,-4.0187,-4.0181,-4.0578,-4.0894,-4.0894,-4.118,-4.144,-4.16,0.0,-4.2246,-4.2678,-4.2941,-4.305,-4.3023,-4.319,-4.3063,-4.225,-4.1437,-4.0902,-4.0883,-4.0643,-4.0421,-4.0421,-4.0406,-4.0403,-4.0403,-4.0478,-4.0537,-4.0518,-4.0282,-3.9685,-3.8627,-3.7621,-3.6977,-3.5309,-3.5383,-3.4541,-3.4285,-3.4372,-3.4207,-3.3781,-3.3287,-3.393,-3.4478,-3.4904,-3.4431,-3.4382,-3.4736,-3.4527,0.0,-3.5654,-3.5489,-3.5406,-3.5423,-3.5469,-3.5406,-3.5308,-3.5473,-3.5883,-3.6427,-3.6446,-3.6865,-3.7542,-3.6841,-3.6121,-3.5392,-3.5128,-3.4086,-3.2318,-3.2125,-3.2054,-3.209,-3.2404,-3.2606,-3.2741,-3.31,-3.3586,-3.4171,-3.349,-3.308,-3.3006,-3.299,-3.2701,-3.2068,-3.1873,-3.113,-2.9726,0.0,0.0,0.0,0.0,0.0,0.0,0.0,0.0,0.0,0.0,0.0,0.0,0.0,0.0,0.0,-3.3829,0.0,-3.5735,-3.5908,0.0,0.0,0.0,-3.7819,-3.7793,-3.8905,-3.9733,-3.9784,0.0,0.0,-4.0871,-4.0888,-4.0894,-4.0888,-4.0894,-4.1041,-4.1401,-4.1428,-4.1626,-4.2095,-4.2487,-4.254,-4.1942,-4.2056,-4.2004,-4.1354,-4.0539,-4.0007,-3.9951,-3.9453,-3.8936,-3.8992,-3.8914,-3.8932,-3.8899,-3.8992,-3.884,-3.8748,-3.8806,-3.8484,-3.7275,-3.6396,-3.601,-3.5064,-3.5064,-3.4299,-3.446,-3.5127,-3.4058,-3.3516,-3.3404,-3.4014,-3.4105,-3.3888,-3.5177,-3.5184,-3.4194,-3.4023,-3.3795,-3.3501,-3.4308,-3.4666,-3.469,-3.5135,-3.5354,-3.5325,-3.5907,-3.6243,-3.6437,-3.6989,-3.7601,-3.8305,-3.8137,-3.7677,-3.6958,-3.6243,-3.503,-3.3353,-3.2698,-3.2557,-3.2927,-3.2423,-3.2424,-3.2983,-3.3107,-3.323,-3.3388,-3.3195,-3.2827,-3.2283,-3.2161,-3.216,-3.2271,-3.0881,-3.0289,-3.0691,-2.9064,0.0,0.0,0.0,0.0,0.0,0.0,0.0,0.0,0.0,-3.3746,-3.3594,0.0,-3.4058,0.0,-3.5638,-3.6026,-3.6374,-3.6825,0.0,0.0,-3.9128,-3.9473,-4.0032,-3.9853,-3.9922,-4.0549,-4.0256,-4.0175,-4.0676,-4.084,-4.0864,-4.0769,-4.084,-4.0942,-4.1018,-4.1041,-4.1186,-4.1512,-4.129,-4.109,-4.1163,-4.0565,-4.0147,-4.0244,-3.9559,-3.9044,-3.9062,-3.89,-3.875,-3.875,-3.875,-3.8753,-3.875,-3.875,-3.8272,-3.7294,-3.7505,-3.7734,-3.6774,-3.6081,-3.5682,-3.5349,-3.5397,-3.4698,-3.4744,-3.5202,-3.4204,-3.3575,-3.3356,-3.3665,-3.3454,-3.2954,-3.4194,-3.4303,-3.3576,-3.3664,-3.3524,-3.3244,-3.3719,-3.3953,-3.3995,-3.4545,-3.4794,-3.478,-3.5504,-3.5783,-3.5769,-3.6502,-3.7045,-3.7444,-3.7761,-3.7561,-3.682,-3.6338,-3.5482,-3.4223,-3.2807,-3.2391,-3.296,-3.2132,-3.2094,-3.2968,-3.3022,-3.3022,-3.302,-3.3294,-3.2967,-3.1894,-3.2099,-3.2123,-3.1825,-3.1114,-3.0819,-3.1023,-3.0214,-2.9802,0.0,0.0,0.0,0.0,0.0,0.0,0.0,0.0,0.0,0.0,0.0,-3.4541,-3.602,-3.6675,-3.7261,-3.7919,-3.8281,-3.8962,-4.0095,-4.0233,-4.0267,-4.0353,-3.998,-3.9733,-3.9836,-3.9428,-3.9399,-4.0062,-3.9931,-3.9838,-4.0076,-3.9907,-3.9915,-4.0227,-4.0071,-3.9905,-4.0147,-3.9975,-3.9852,-4.0018,-3.9174,-3.8632,-3.8955,-3.8594,-3.8269,-3.8627,-3.8546,-3.8483,-3.8661,-3.8707,-3.8707,-3.8707,-3.8707,-3.8175,-3.6868,-3.6705,-3.6611,-3.5583,-3.5414,-3.5417,-3.5608,-3.5738,-3.5257,-3.5046,-3.5032,-3.4577,-3.3966,-3.3278,-3.3201,-3.2789,-3.2191,-3.2532,-3.2749,-3.2888,-3.3215,-3.345,-3.3519,-3.3376,-3.3277,-3.3313,-3.3818,-3.4036,-3.4009,-3.4578,-3.4811,-3.4707,-3.5423,-3.5795,-3.591,-3.6605,-3.6688,-3.6158,-3.6042,-3.5727,-3.5098,-3.2994,-3.2116,-3.2553,-3.1668,-3.1691,-3.27,-3.2805,-3.2876,-3.2906,-3.3516,-3.3188,-3.1768,-3.2404,-3.2317,-3.1324,-3.1882,-3.1934,-3.1324,-3.1777,-3.1895,0.0,-3.1464,0.0,0.0,0.0,0.0,0.0,0.0,0.0,0.0,-3.4758,-3.529,-3.6672,-3.7491,-3.8405,-3.9525,-3.9761,-4.0112,-4.072,-4.0761,-4.048,-3.9784,-3.9543,-3.9175,-3.8646,-3.8379,-3.8511,-3.9168,-3.871,-3.8578,-3.9067,-3.864,-3.8517,-3.9101,-3.8837,-3.8562,-3.855,-3.8738,-3.8768,-3.8472,-3.7895,-3.7595,-3.7897,-3.7809,-3.7756,-3.8401,-3.8252,-3.8152,-3.8499,-3.8596,-3.8645,-3.8692,-3.8707,-3.8193,-3.6798,-3.6464,-3.5854,-3.4494,-3.4555,-3.4875,-3.4581,-3.4647,-3.5195,-3.5407,-3.5392,-3.5418,-3.4773,-3.3741,-3.3269,-3.2676,-3.2053,-3.2107,-3.217,-3.2163,-3.2155,-3.2142,-3.2192,-3.2444,-3.2602,-3.2614,-3.3145,-3.3381,-3.3381,-3.3485,-3.3537,-3.3563,-3.4147,-3.4722,-3.5291,-3.5901,-3.6439,-3.687,-3.6307,-3.6224,-3.6539,0.0,0.0,0.0,-3.1041,-3.1025,-3.1821,-3.2448,-3.2749,-3.2765,-3.3445,0.0,-3.1738,-3.2326,-3.2501,-3.2024,-3.181,0.0,0.0,0.0,0.0,0.0,0.0,0.0,0.0,0.0,0.0,0.0,-3.3617,-3.3923,-3.52,-3.7035,-3.8035,-3.7803,-3.9261,-3.9961,-3.9286,-4.012,-4.0597,-4.0427,-4.0113,-3.9871,-3.9664,-3.8539,-3.7892,-3.8373,-3.778,-3.7593,-3.8223,-3.8286,-3.8293,-3.8308,-3.7775,-3.741,-3.7558,-3.7991,-3.83,-3.834,-3.7954,-3.7542,-3.7156,-3.7046,-3.7114,-3.7469,-3.756,-3.756,-3.7703,-3.7685,-3.7756,-3.8118,-3.8219,-3.8336,-3.8611,-3.8707,-3.8395,-3.7437,-3.6758,-3.5803,-3.4201,-3.3976,-3.4044,-3.3973,-3.4312,-3.4341,-3.4787,0.0,-3.5169,-3.4912,-3.4632,-3.4091,-3.3245,-3.2236,-3.1905,-3.1726,-3.1741,-3.1683,-3.167,-3.167,-3.1853,-3.1966,-3.1994,-3.2547,-3.2788,-3.2815,-3.3093,-3.3198,-3.3224,-3.3501,-3.3822,-3.4168,-3.4771,-3.5234,-3.5636,-3.5869,-3.6191,-3.6506,-3.5081,-3.3442,-3.1615,-3.1234,-3.1052,-3.1085,-3.1802,-3.2166,-3.2183,-3.3226,0.0,0.0,0.0,0.0,0.0,0.0,0.0,0.0,0.0,0.0,-3.3239,-3.3001,-3.2978,-3.3267,-3.3154,-3.3324,-3.3913,-3.4538,-3.5054,-3.5538,-3.736,-3.8447,-3.8301,-3.9468,-4.0009,-3.9454,-3.9917,-4.0034,-3.9513,-3.914,-3.8664,-3.7879,-3.6993,-3.6404,-3.6394,-3.6205,-3.6335,-3.6996,-3.7005,-3.7137,-3.7369,-3.6808,-3.6356,-3.6395,-3.6763,-3.7064,-3.707,-3.6891,-3.6599,-3.6395,-3.6412,-3.6618,-3.6939,-3.69,-3.6941,-3.7284,-3.719,-3.719,-3.756,-3.7843,-3.8083,-3.8285,-3.8496,-3.8469,-3.7694,-3.718,-3.6354,-3.478,-3.4082,-3.3807,-3.3388,-3.3856,-3.3388,-3.3919,-3.5034,-3.4394,-3.4543,-3.5267,0.0,0.0,0.0,-3.1914,-3.1615,-3.1496,-3.1496,-3.1496,-3.1496,-3.1496,-3.1496,-3.1524,-3.2023,-3.2231,-3.2259,-3.268,-3.2906,-3.2906,-3.3013,-3.3066,-3.3108,-3.3646,-3.3933,-3.4032,-3.5103,-3.5712,-3.576,-3.5214,-3.3872,-3.1896,-3.1664,-3.1234,-3.0539,-3.1217,-3.1598,-3.1598,-3.3027,-3.3442,-3.2752,-3.3524,-3.3494,-3.2458,-3.3019,-3.3404,-3.3438,-3.384,-3.425,-3.4577,-3.4423,-3.43,-3.425,-3.4151,-3.4149,-3.4279,-3.5639,-3.6338,-3.6022,-3.7275,-3.8242,-3.857,-3.9207,-3.9542,-3.9437,-3.9489,-3.9206,-3.8402,-3.8015,-3.7292,-3.6042,-3.5482,-3.5079,-3.4521,-3.4706,-3.5032,-3.5619,-3.5525,-3.5597,-3.6177,-3.5885,-3.5532,-3.56,-3.5791,-3.5926,-3.5892,-3.6002,-3.5988,-3.5993,-3.6019,-3.6131,-3.6433,-3.6259,-3.6262,-3.6724,-3.6721,-3.6681,-3.7057,-3.7433,-3.7685,-3.7877,-3.8216,-3.8327,-3.7781,-3.7393,-3.6842,-3.5508,-3.4426,-3.383,-3.234,-3.2456,-3.2967,-3.3332,-3.3492,-3.3402,-3.3802,-3.4485,-3.4503,-3.3755,-3.2482,-3.2378,-3.2034,-3.1496,-3.1496,-3.1496,-3.1496,-3.1496,-3.1496,-3.1496,-3.1597,-3.1611,-3.164,-3.1682,-3.1739,-3.1768,-3.2259,-3.252,-3.2574,-3.3055,-3.3329,-3.3397,-3.4014,-3.4611,-3.5024,-3.4949,-3.4121,-3.2586,-3.1912,-3.125,-3.0522,-3.1217,-3.1598,-3.1664,-3.3011,-3.3458,-3.2752,-3.4005,-3.4329,-3.3472,-3.4077,-3.4426,-3.4347,-3.4388,-3.4406,-3.4374,-3.4341,-3.425,-3.4151,-3.4101,-3.4376,-3.5049,-3.6367,-3.7128,-3.7102,-3.8139,-3.8859,-3.8939,-3.9282,-3.9348,-3.8778,-3.8951,-3.8578,-3.7389,-3.6904,-3.6408,-3.5571,-3.4807,-3.4308,-3.4178,-3.4153,-3.4177,-3.4332,-3.43,-3.4513,-3.4941,-3.5027,-3.5068,-3.5447,-3.5622,-3.5622,-3.5644,-3.5734,-3.5817,-3.5839,-3.5949,-3.6019,-3.6067,-3.6041,-3.6002,-3.6178,-3.6174,-3.6241,-3.66,-3.6783,-3.7058,-3.7614,-3.7861,-3.7976,-3.799,-3.7249,-3.6225,-3.5787,-3.4713,-3.3794,-3.175,-3.2087,-3.2028,-3.2461,-3.3192,-3.3192,-3.3388,-3.3739,-3.4189,-3.4078,-3.3589,-3.32,-3.2886,-3.2602,-3.2602,-3.2378,-3.2034,-3.2034,-3.1854,-3.1511,-3.1496,-3.1496,-3.1496,-3.1496,-3.1496,-3.1524,-3.1768,-3.191,-3.1966,-3.2477,-3.2776,-3.2788,-3.3335,-3.3876,-3.4423,-3.4472,-3.4092,-3.3309,-3.2564,-3.1653,-3.0555,-3.082,-3.1184,-3.1598,-3.2249,-3.2778,-3.3185,-3.3775,-3.4083,-3.4085,-3.4341,-3.4497,-3.4497,-3.4349,-3.4275,-3.43,-3.4226,-3.4176,-3.4101,-3.4473,-3.5169,-3.6254,-3.6934,-3.7402,-3.7589,-3.8249,-3.8583,-3.8411,-3.8264,-3.7937,-3.7403,-3.7222,-3.6706,-3.5644,-3.5272,-3.4809,-3.4186,-3.3604,-3.3224,-3.3235,-3.3417,-3.3563,-3.3563,-3.3834,-3.4061,-3.4317,-3.4382,-3.4577,-3.5068,-3.5178,-3.527,-3.5554,-3.5644,-3.5689,-3.5689,-3.5734,-3.5778,-3.5778,-3.5778,-3.5761,-3.5778,-3.5778,-3.5888,-3.6049,-3.627,-3.662,-3.702,-3.7303,-3.7614,-3.7838,-3.7198,-3.6379,-3.5915,-3.4746,-3.378,-3.1334,-3.1759,-3.1222,-3.1653,-3.2698,-3.2911,-3.2967,-3.3038,-3.3719,-3.4218,-3.4367,-3.3931,-3.3634,-3.3499,-3.3499,-3.3215,-3.2766,-3.2572,-3.2213,-3.175,-3.157,-3.1496,-3.1496,-3.1496,-3.1496,-3.1496,-3.1496,-3.1496,-3.1553,-3.1966,-3.2287,-3.2425,-3.2815,-3.3303,-3.3866,-3.3892,-3.3753,-3.3399,-3.2958,-3.2078,-3.0782,-3.0567,-3.0728,-3.1252,-3.1418,-3.205,-3.3228,-3.3365,-3.3719,-3.4382,-3.4186,-3.4097,-3.4154,-3.3835,-3.368,-3.3754,-3.368,-3.3777,-3.4117,-3.4764,-3.5801,-3.7166,-3.7441,-3.7637,-3.7892,-3.8132,-3.8148,-3.7793,-3.7221,-3.668,-3.6327,-3.5733,-3.4979,-3.4207,-3.392,-3.3587,-3.2897,-3.2535,-3.2398,-3.2453,-3.2761,-3.3013,-3.3093,-3.3381,-3.364,-3.3767,-3.391,-3.4185,-3.4529,-3.4625,-3.4857,-3.527,-3.5515,-3.56,-3.5616,-3.5639,-3.5622,-3.5616,-3.5622,-3.5622,-3.5622,-3.5622,-3.5622,-3.5672,-3.5941,-3.6245,-3.6374,-3.6701,-3.7026,-3.7184,-3.661,-3.6025,-3.5342,-3.4433,-3.3656,-3.1061,-3.1086,-3.1024,-3.1061,-3.1334,-3.1919,-3.2196,-3.229,-3.3003,-3.3705,-3.4191,-3.4396,-3.4068,-3.3544,-3.3544,-3.3514,-3.3365,-3.2781,-3.2467,-3.2303,-3.178,-3.1496,-3.1496,-3.1496,-3.1496,-3.1496,-3.1496,-3.1496,-3.1496,-3.1582,-3.1853,-3.2342,-3.2453,-3.2734,-3.3224,-3.3261,-3.297,-3.2279,-3.2608,-3.2333,-3.1429,-3.0764,-3.0387,-3.033,-3.0981,-3.1669,-3.2472,-3.3072,-3.3655,-3.4194,-3.3649,-3.3275,-3.3161,-3.2586,-3.2222,-3.2238,-3.2255,-3.2724,-3.3987,-3.479,-3.5866,-3.7161,-3.7894,-3.8137,-3.7899,-3.7899,-3.7799,-3.7393,-3.6811,-3.6256,-3.5964,-3.525,-3.4447,-3.3612,-3.345,-3.3193,-3.2607,-3.2425,-3.2398,-3.2398,-3.2508,-3.2508,-3.2547,-3.2629,-3.2803,-3.3224,-3.3563,-3.3869,-3.402,-3.407,-3.4268,-3.4793,-3.5247,-3.5515,-3.5577,-3.5616,-3.5616,-3.5616,-3.5616,-3.5616,-3.5616,-3.5616,-3.5616,-3.5622,-3.5627,-3.5871,-3.6135,-3.6354,-3.6273,-3.6133,-3.567,-3.4946,-3.4063,-3.3622,-3.3506,-3.1024,-3.1024,-3.1024,-3.1024,-3.1061,-3.1334,-3.1418,-3.1505,-3.2245,-3.272,-3.3031,-3.3496,-3.4083,-3.465,-3.4681,-3.4457,-3.4068,-3.3815,-3.323,-3.2542,-3.2183,-3.1884,-3.1525,-3.1496,-3.1496,-3.1496,-3.1496,-3.1496,-3.1496,-3.1496,-3.164,-3.1824,-3.1853,-3.216,-3.268,-3.2707,-3.2658,-3.2646,-3.2392,-3.1831,-3.1039,-3.0926,-3.0696,-3.0271,-3.0435,-3.0865,-3.155,-3.1841,-3.2243,-3.2845,-3.2634,-3.2464,-3.2449,-3.2174,-3.2028,-3.206,-3.2805,-3.368,-3.4683,-3.5801,-3.6886,-3.789,-3.8028,-3.796,-3.7608,-3.7083,-3.6595,-3.6266,-3.5808,-3.5216,-3.4537,-3.3829,-3.3246,-3.2887,-3.2798,-3.269,-3.2444,-3.2398,-3.2398,-3.2398,-3.2398,-3.2398,-3.2398,-3.2398,-3.2492,-3.2695,-3.2964,-3.3188,-3.3459,-3.3537,-3.3754,-3.4219,-3.4526,-3.4934,-3.5424,-3.5616,-3.56,-3.56,-3.5616,-3.5616,-3.5616,-3.5616,-3.5616,-3.5616,-3.5616,-3.5667,-3.5844,-3.5864,-3.5784,-3.5399,-3.4653,-3.393,-3.3234,-3.3099,-3.319,-3.1024,-3.1024,-3.1024,-3.1024,-3.1024,-3.1024,-3.1024,-3.1061,-3.1579,-3.1919,-3.216,-3.2684,-3.361,-3.4787,-3.5067,-3.4884,-3.4471,-3.4483,-3.3978,-3.3066,-3.2706,-3.2228,-3.1795,-3.157,-3.1496,-3.1496,-3.1496,-3.1496,-3.1496,-3.1496,-3.1496,-3.1496,-3.1467,-3.1668,-3.2035,-3.2064,-3.2188,-3.2419,-3.2203,-3.1592,-3.0747,-3.102,-3.0852,-3.0016,-2.9951,-3.0315,-3.1008,-3.095,-3.1228,-3.1963,-3.1794,-3.1697,-3.1704,-3.1526,-3.1429,-3.1542,-3.2757,-3.3922,-3.4829,-3.6142,-3.7282,-3.8121,-3.7943,-3.7528,-3.6997,-3.6322,-3.5619,-3.4949,-3.4649,-3.4151,-3.3517,-3.2798,-3.2428,-3.2398,-3.2398,-3.2398,-3.2398,-3.2398,-3.2398,-3.2398,-3.2398,-3.2398,-3.2398,-3.2398,-3.2425,-3.2453,-3.2453,-3.2492,-3.2853,-3.3013,-3.3187,-3.367,-3.3781,-3.4211,-3.5153,-3.5351,-3.5391,-3.56,-3.5616,-3.5616,-3.5616,-3.5616,-3.5616,-3.5616,-3.5616,-3.5639,-3.5689,-3.5638,-3.5297,-3.4768,-3.3932,-3.3055,-3.2759,-3.2716,-3.2908,-3.1024,-3.1024,-3.1024,-3.1024,-3.1024,-3.1024,-3.1024,-3.1024,-3.1061,-3.1418,-3.2015,-3.2123,-3.2577,-3.3332,-3.3973,-3.4331,-3.4316,-3.4436,-3.4442,-3.4158,-3.3125,-3.2512,-3.2407,-3.1809,-3.1511,-3.1511,-3.1496,-3.1496,-3.1496,-3.1496,-3.1496,-3.1496,-3.138,-3.1336,-3.1394,-3.1322,-3.119,-3.1351,-3.206,-3.1905,-3.0817,-3.1029,-3.0581,-2.9413,-2.9621,-3.0138,-3.0736,-3.0865,-3.1172,-3.19,-3.123,-3.0907,-3.0881,-3.0338,-3.0008,-3.0214,-3.139,-3.2781,-3.4115,-3.5391,-3.657,-3.763,-3.756,-3.6999,-3.6215,-3.5815,-3.5078,-3.3688,-3.3581,-3.3426,-3.329,-3.2752,-3.2413,-3.2398,-3.2398,-3.2398,-3.2398,-3.2398,-3.2398,-3.2398,-3.2398,-3.2398,-3.2398,-3.2398,-3.2398,-3.2398,-3.2398,-3.2453,-3.248,-3.2492,-3.2714,-3.3077,-3.3312,-3.3613,-3.4552,-3.4828,-3.5052,-3.5293,-3.5424,-3.5577,-3.56,-3.5616,-3.5616,-3.5616,-3.5616,-3.5616,-3.5616,-3.5328,-3.4848,-3.409,-3.2857,-3.2121,-3.2266,-3.2586,-3.2765,-3.1024,-3.1024,-3.1024,-3.1024,-3.1024,-3.1024,-3.1024,-3.1024,-3.1024,-3.1123,-3.1357,-3.1394,-3.1542,-3.1823,-3.2577,-3.3408,-3.425,-3.4347,-3.4413,-3.4425,-3.4009,-3.3335,-3.2527,-3.2228,-3.1899,-3.154,-3.1496,-3.1496,-3.1496,-3.1496,-3.1496,-3.1467,-3.1365,-3.1322,-3.1292,-3.1161,-3.1043,-3.094,-3.1338,-3.0969,-3.0159,-3.0464,-3.0261,-2.9332,-2.9002,-2.8975,-2.9226,-2.9226,-2.9375,-2.9626,-2.9375,-2.9226,-2.9234,-2.9014,-2.9256,-3.0106,-3.1781,-3.3316,-3.4477,-3.6149,-3.724,-3.7451,-3.6857,-3.6322,-3.58,-3.4953,-3.4021,-3.3473,-3.2967,-3.2782,-3.2736,-3.2521,-3.2398,-3.2398,-3.2398,-3.2398,-3.2398,-3.2398,-3.2398,-3.2398,-3.2398,-3.2398,-3.2398,-3.2398,-3.2398,-3.2398,-3.2398,-3.2398,-3.2398,-3.2398,-3.2504,-3.2637,-3.2691,-3.2942,-3.3598,-3.4111,-3.4415,-3.4857,-3.5108,-3.5293,-3.5362,-3.5447,-3.5447,-3.547,-3.5532,-3.5509,-3.5419,-3.4658,-3.4198,-3.3233,-3.1991,-3.1701,-3.1841,-3.2127,-3.2299,-3.1024,-3.1024,-3.1024,-3.1024,-3.1024,-3.1024,-3.1024,-3.1024,-3.1024,-3.1024,-3.1024,-3.1024,-3.1024,-3.1099,-3.1529,-3.2398,-3.3581,-3.4047,-3.4347,-3.4436,-3.4467,-3.3919,-3.2946,-3.2617,-3.2138,-3.1585,-3.1438,-3.1438,-3.1453,-3.1453,-3.1424,-3.1366,-3.1278,-3.1205,-3.1146,-3.0999,-3.0851,-3.0791,-3.0921,-3.0672,-3.0075,-3.025,-3.0141,-2.95,-2.8805,-2.8617,-2.8901,-2.8925,-2.8818,-2.8649,-2.8602,-2.8535,-2.8334,-2.8288,-2.8835,-3.0132,-3.1924,-3.3549,-3.4738,-3.6432,-3.7261,-3.6938,-3.6218,-3.5666,-3.5109,-3.4037,-3.3411,-3.3044,-3.2705,-3.2398,-3.2398,-3.2398,-3.2398,-3.2398,-3.2398,-3.2398,-3.2398,-3.2398,-3.2398,-3.2398,-3.2398,-3.2398,-3.2398,-3.2398,-3.2398,-3.2398,-3.2398,-3.2398,-3.2398,-3.2398,-3.2398,-3.2398,-3.2398,-3.2557,-3.2889,-3.3208,-3.3793,-3.4243,-3.4553,-3.4793,-3.4998,-3.5131,-3.5224,-3.5293,-3.5311,-3.5312,-3.4891,-3.4095,-3.3254,-3.2429,-3.1828,-3.1421,-3.1543,-3.164,-3.186,-3.0986,-3.0986,-3.1024,-3.0986,-3.0986,-3.0949,-3.0986,-3.0986,-3.1024,-3.1024,-3.1024,-3.1024,-3.1024,-3.1024,-3.1086,-3.1468,-3.229,-3.3478,-3.4182,-3.4316,-3.4419,-3.4125,-3.3469,-3.2886,-3.2198,-3.1511,-3.1351,-3.1292,-3.1322,-3.1292,-3.1249,-3.1132,-3.1117,-3.1014,-3.0836,-3.0732,-3.0628,-3.0699,-3.1092,-3.1121,-3.067,-3.0585,-3.0294,-2.9697,-2.9157,-2.9309,-3.0116,-3.0077,-2.9643,-2.9251,-2.9215,-2.8953,-2.8434,-2.8388,-2.8937,-3.0262,-3.1678,-3.3141,-3.4581,-3.5765,-3.6274,-3.5838,-3.5564,-3.4827,-3.3917,-3.3457,-3.3075,-3.2613,-3.2459,-3.2398,-3.2398,-3.2398,-3.2398,-3.2398,-3.2398,-3.2398,-3.2398,-3.2398,-3.2398,-3.2398,-3.2398,-3.2398,-3.2398,-3.2398,-3.2398,-3.2398,-3.2398,-3.2398,-3.2398,-3.2398,-3.2398,-3.2385,-3.2358,-3.2404,-3.2361,-3.2398,-3.3029,-3.3604,-3.3869,-3.4119,-3.4292,-3.4456,-3.4601,-3.4681,-3.4605,-3.4565,-3.4346,-3.3562,-3.2929,-3.2171,-3.163,-3.121,-3.1329,-3.1449,-3.1564,-3.0811,-3.0773,-3.0647,-3.0685,-3.0773,-3.0811,-3.0811,-3.0811,-3.0949,-3.0986,-3.1024,-3.1024,-3.1024,-3.0986,-3.1024,-3.1123,-3.1431,-3.2362,-3.329,-3.4119,-3.4343,-3.4227,-3.3893,-3.3423,-3.2557,-3.1514,-3.122,-3.1161,-3.1176,-3.1161,-3.1132,-3.1073,-3.0955,-3.0866,-3.0791,-3.0672,-3.0612,-3.0627,-3.0756,-3.0756,-3.0612,-3.0612,-3.0496,-3.0335,-3.0495,-3.0805,-3.1014,-2.9875,-2.9106,-2.8941,-2.887,-2.8781,-2.869,-2.8988,-2.9761,-3.102,-3.2254,-3.3201,-3.3969,-3.4927,-3.5202,-3.4591,-3.4219,-3.3906,-3.3429,-3.2939,-3.2631,-3.237,-3.2398,-3.2398,-3.2398,-3.2398,-3.2398,-3.2398,-3.2398,-3.2398,-3.2398,-3.2398,-3.2398,-3.2398,-3.2398,-3.2398,-3.2398,-3.2398,-3.2398,-3.2398,-3.2398,-3.2398,-3.2398,-3.2398,-3.2398,-3.2398,-3.233,-3.2265,-3.2242,-3.2239,-3.2547,-3.3002,-3.3251,-3.3485,-3.3681,-3.3783,-3.3919,-3.4038,-3.3941,-3.3759,-3.3539,-3.3119,-3.2492,-3.1925,-3.1337,-3.1171,-3.121,-3.1291,-3.1408,-3.066,-3.0571,-3.0444,-3.0482,-3.0571,-3.0571,-3.0609,-3.0609,-3.071,-3.0785,-3.0874,-3.0798,-3.0823,-3.0874,-3.0836,-3.0836,-3.0911,-3.132,-3.2146,-3.3374,-3.4041,-3.4012,-3.3742,-3.3441,-3.2912,-3.2034,-3.1544,-3.1337,-3.1322,-3.1102,-3.0955,-3.0881,-3.0836,-3.0762,-3.0732,-3.0672,-3.0612,-3.0612,-3.0612,-3.0612,-3.0612,-3.0612,-3.0612,-3.0685,-3.1177,-3.1466,-3.1393,-3.0335,-2.9624,-2.9363,-2.8999,-2.8825,-2.9029,-2.9392,-3.0206,-3.1526,-3.2306,-3.2939,-3.358,-3.42,-3.4162,-3.3336,-3.2974,-3.2758,-3.2516,-3.2061,-3.1894,-3.1879,-3.2035,-3.2132,-3.2148,-3.2327,-3.2398,-3.2398,-3.2398,-3.2398,-3.2398,-3.2398,-3.2398,-3.2398,-3.2398,-3.2398,-3.2398,-3.2398,-3.2398,-3.2398,-3.2398,-3.2398,-3.2398,-3.2398,-3.2398,-3.237,-3.2247,-3.2214,-3.2196,-3.2205,-3.2165,-3.2425,-3.2668,-3.2895,-3.3108,-3.3135,-3.324,-3.3505,-3.3551,-3.3113,-3.284,-3.2613,-3.2142,-3.1583,-3.0992,-3.1131,-3.1151,-3.119,-3.1271,-3.0571,-3.0406,-3.0368,-3.0368,-3.0368,-3.0368,-3.0368,-3.0406,-3.0444,-3.0533,-3.0609,-3.052,-3.052,-3.0622,-3.052,-3.0558,-3.0647,-3.0596,-3.0985,-3.1978,-3.2975,-3.3337,-3.2825,-3.2717,-3.2625,-3.2566,-3.193,-3.1667,-3.164,-3.1069,-3.0717,-3.0672,-3.0732,-3.0732,-3.0628,-3.0612,-3.0612,-3.0612,-3.0612,-3.0612,-3.0612,-3.0612,-3.0612,-3.0627,-3.1177,-3.1495,-3.1451,-3.1277,-3.1047,-3.0525,-2.9479,-2.9247,-2.958,-2.9579,-3.0456,-3.1971,-3.1986,-3.2378,-3.3068,-3.3223,-3.2928,-3.2059,-3.1959,-3.1692,-3.1309,-3.1264,-3.1204,-3.119,-3.1523,-3.1768,-3.1838,-3.2132,-3.237,-3.2398,-3.2398,-3.2398,-3.2398,-3.2398,-3.2398,-3.2398,-3.2398,-3.2398,-3.2398,-3.2398,-3.2398,-3.2398,-3.2398,-3.2398,-3.2398,-3.2398,-3.2398,-3.2342,-3.2247,-3.2185,-3.2152,-3.2146,-3.2122,-3.2122,-3.2342,-3.2547,-3.2656,-3.2656,-3.2722,-3.2997,-3.2961,-3.2536,-3.2144,-3.1885,-3.1401,-3.07,-3.0572,-3.0915,-3.1092,-3.1075,-3.1171,-3.0228,-3.0152,-3.0011,-3.0049,-3.0152,-3.019,-3.019,-3.0177,-3.033,-3.0419,-3.0444,-3.0394,-3.0406,-3.0495,-3.0406,-3.0444,-3.0444,-3.0406,-3.0368,-3.0659,-3.1466,-3.1971,-3.1868,-3.1722,-3.1803,-3.1889,-3.1333,-3.1045,-3.1498,-3.0962,-3.0657,-3.0612,-3.0642,-3.0672,-3.0612,-3.0612,-3.0612,-3.0612,-3.0612,-3.0612,-3.0612,-3.0612,-3.0612,-3.067,-3.1192,-3.1466,-3.1495,-3.1495,-3.1221,-3.0656,-3.0322,-3.0319,-3.0704,-3.0744,-3.1082,-3.1772,-3.187,-3.1634,-3.1579,-3.1728,-3.1486,-3.0915,-3.1069,-3.1205,-3.1043,-3.0999,-3.0999,-3.1087,-3.1408,-3.1667,-3.1768,-3.2092,-3.2342,-3.2398,-3.2398,-3.2398,-3.2398,-3.2398,-3.2398,-3.2398,-3.2398,-3.2398,-3.2398,-3.2398,-3.2398,-3.2398,-3.2398,-3.2398,-3.2398,-3.2398,-3.2398,-3.2382,-3.233,-3.2185,-3.2133,-3.2127,-3.2081,-3.194,-3.2094,-3.2315,-3.237,-3.2358,-3.2453,-3.2641,-3.2276,-3.1862,-3.1435,-3.1078,-3.0424,-2.9915,-3.0118,-3.0456,-3.074,-3.0858,-3.1055,-3.0049,-2.9972,-2.983,-2.9869,-2.9972,-2.9972,-2.9972,-3.0011,-3.0075,-3.019,-3.0216,-3.019,-3.019,-3.0267,-3.019,-3.019,-3.0254,-3.019,-3.0113,-3.019,-3.0508,-3.1045,-3.1563,-3.158,-3.1615,-3.1729,-3.1095,-3.1039,-3.1271,-3.0865,-3.0656,-3.0612,-3.0612,-3.0612,-3.0612,-3.0612,-3.0612,-3.0612,-3.0612,-3.0612,-3.0612,-3.0612,-3.0612,-3.0728,-3.1177,-3.1495,-3.1495,-3.1495,-3.1438,-3.1264,-3.0945,-3.0812,-3.1233,-3.1211,-3.1389,-3.1813,-3.1721,-3.134,-3.0831,-3.0821,-3.0586,-3.0178,-3.0296,-3.0387,-3.0372,-3.0403,-3.0403,-3.0447,-3.0837,-3.1043,-3.1234,-3.1695,-3.2176,-3.237,-3.2398,-3.2398,-3.2398,-3.2398,-3.2398,-3.2398,-3.2398,-3.2398,-3.2398,-3.2398,-3.2398,-3.2398,-3.2398,-3.2398,-3.2398,-3.2398,-3.2385,-3.2342,-3.2274,-3.2114,-3.1976,-3.1915,-3.1983,-3.187,-3.1968,-3.2191,-3.2163,-3.2122,-3.215,-3.2127,-3.1668,-3.1192,-3.0742,-3.0351,-2.998,-2.9721,-2.9826,-2.9935,-3.0187,-3.0539,-3.0781,-2.9972,-2.9779,-2.9779,-2.9779,-2.9792,-2.9779,-2.9818,-2.9792,-2.9818,-2.9946,-3.0011,-2.9869,-2.9946,-3.0049,-2.9934,-2.9908,-3.0088,-2.9946,-2.9934,-2.9972,-3.0088,-3.0519,-3.1422,-3.1469,-3.1575,-3.1663,-3.1399,-3.1152,-3.1012,-3.0711,-3.0518,-3.0476,-3.0507,-3.0612,-3.0612,-3.0612,-3.0612,-3.0612,-3.0612,-3.0612,-3.0612,-3.0612,-3.0612,-3.0685,-3.1003,-3.1395,-3.1453,-3.1467,-3.1567,-3.2275,-3.1221,-3.0866,-3.1159,-3.1057,-3.1098,-3.132,-3.1246,-3.0867,-3.0516,-3.0351,-3.0224,-2.9763,-2.9665,-2.9602,-2.9727,-2.9758,-2.9758,-2.9789,-3.0052,-3.0433,-3.0673,-3.1204,-3.1695,-3.202,-3.2176,-3.2259,-3.2342,-3.237,-3.2398,-3.2398,-3.2398,-3.2398,-3.2398,-3.2398,-3.2398,-3.2398,-3.2398,-3.2398,-3.2398,-3.2398,-3.233,-3.2249,-3.2124,-3.1999,-3.1829,-3.1701,-3.1786,-3.1799,-3.194,-3.2066,-3.2066,-3.2025,-3.1912,-3.1749,-3.1511,-3.0895,-3.003,-2.9687,-2.9521,-2.9171,-2.9045,-2.9271,-2.954,-3.0016,-3.0335,-2.983,-2.9779,-2.9779,-2.9779,-2.9779,-2.9779,-2.9779,-2.9779,-2.9779,-2.983,-2.9869,-2.983,-2.983,-2.9869,-2.9818,-2.983,-2.9869,-2.983,-2.983,-2.983,-2.983,-2.9934,-3.033,-3.0394,-3.0671,-3.0874,-3.0543,-3.04,-3.0446,-3.0485,-3.0213,-2.9955,-3.0382,-3.0612,-3.0612,-3.0612,-3.0612,-3.0612,-3.0612,-3.0612,-3.0612,-3.0612,-3.0612,-3.0627,-3.0772,-3.1047,-3.1308,-3.1032,-3.1058,-3.1226,-3.0875,-3.0584,-3.0785,-3.0429,-3.0358,-3.057,-3.0337,-2.9996,-2.9855,-2.9855,-2.9771,-2.9659,-2.9602,-2.9602,-2.9602,-2.9602,-2.9602,-2.9696,-3.0021,-3.0372,-3.0732,-3.097,-3.1234,-3.1364,-3.1422,-3.1508,-3.1809,-3.2176,-3.2342,-3.2398,-3.2398,-3.2398,-3.2398,-3.2398,-3.2398,-3.2398,-3.2398,-3.2398,-3.2398,-3.2398,-3.2318,-3.2193,-3.2109,-3.1983,-3.1831,-3.1687,-3.1671,-3.1742,-3.187,-3.1912,-3.1912,-3.194,-3.1855,-3.1712,-3.1523,-3.0761,-2.9981,-2.9544,-2.95,-2.8895,-2.8389,-2.8654,-2.9035,-2.9496,-2.9843,-2.9779,-2.9779,-2.9779,-2.9779,-2.9779,-2.9779,-2.9779,-2.9779,-2.9779,-2.9779,-2.9779,-2.9779,-2.9779,-2.9779,-2.9779,-2.9779,-2.9779,-2.9779,-2.9792,-2.9792,-2.9792,-2.9792,-2.9779,-2.9792,-3.0024,-3.0329,-3.0175,-3.0082,-3.0161,-3.0222,-3.0197,-3.0006,-3.0327,-3.0524,-3.0581,-3.0612,-3.0612,-3.0612,-3.0612,-3.0612,-3.0612,-3.0612,-3.0612,-3.0612,-3.0612,-3.0801,-3.0974,-3.0771,-3.0694,-3.0702,-3.0436,-3.0242,-3.0344,-3.0038,-2.9942,-2.9957,-2.9841,-2.9617,-2.9617,-2.9602,-2.9617,-2.9602,-2.9602,-2.9602,-2.9602,-2.9602,-2.9602,-2.9634,-2.9837,-3.0144,-3.0613,-3.0673,-3.0732,-3.097,-3.0999,-3.1102,-3.1379,-3.1766,-3.2188,-3.2315,-3.2398,-3.2398,-3.2398,-3.2342,-3.2398,-3.2398,-3.2398,-3.2398,-3.2398,-3.2398,-3.2302,-3.2206,-3.2122,-3.2012,-3.1846,-3.1702,-3.1598,-3.167,-3.1756,-3.1741,-3.1668,-3.1769,-3.1798,-3.1655,-3.1481,-3.1062,-3.0372,-2.9939,-2.9352,-2.8781,-2.8404,-2.8373,-2.8479,-2.8935,-2.9212,-2.9779,-2.9779,-2.9779,-2.9779,-2.9779,-2.9779,-2.9779,-2.9779,-2.9779,-2.9779,-2.9779,-2.9779,-2.9779,-2.9779,-2.9779,-2.9779,-2.9779,-2.9779,-2.9779,-2.9779,-2.9779,-2.9779,-2.9779,-2.9792,-2.9818,-2.9806,-2.9908,-2.9934,-2.9868,-3.0011,-2.9971,-3.0085,-3.0349,-3.0347,-3.0441,-3.0582,-3.0612,-3.0612,-3.0612,-3.0612,-3.0612,-3.0612,-3.0612,-3.0612,-3.0612,-3.0627,-3.0699,-3.0597,-3.0536,-3.031,-3.0158,-2.996,-2.9822,-2.9747,-2.973,-2.9631,-2.9631,-2.9617,-2.9602,-2.9602,-2.9602,-2.9602,-2.9602,-2.9602,-2.9602,-2.9602,-2.9602,-2.9602,-2.9696,-2.982,-3.0144,-3.0205,-3.0372,-3.0613,-3.0762,-3.0822,-3.097,-3.1248,-3.1595,-3.1992,-3.1964,-3.1936,-3.2104,-3.2176,-3.2287,-3.237,-3.237,-3.237,-3.237,-3.2327,-3.2216,-3.2033,-3.1905,-3.1695,-3.1526,-3.1629,-3.1554,-3.1539,-3.1641,-3.1597,-3.1524,-3.1597,-3.1655,-3.1582,-3.1361,-3.0987,-3.0537,-2.9894,-2.9292,-2.8678,-2.8256,-2.8046,-2.8155,-2.8374,-2.859,-2.9779,-2.9779,-2.9779,-2.9779,-2.9779,-2.9779,-2.9779,-2.9779,-2.9779,-2.9779,-2.9779,-2.9779,-2.9779,-2.9779,-2.9779,-2.9779,-2.9779,-2.9779,-2.9779,-2.9779,-2.9779,-2.9779,-2.9779,-2.9779,-2.9779,-2.983,-2.9834,-2.9631,-2.9452,-2.9637,-2.968,-2.9179,-2.9786,-3.0175,-3.0035,-3.0251,-3.0507,-3.0507,-3.0582,-3.0612,-3.0612,-3.0612,-3.0612,-3.0612,-3.0612,-3.0612,-3.0612,-3.0582,-3.0462,-3.0172,-3.0111,-2.9927,-2.9727,-2.9665,-2.9634,-2.9602,-2.9602,-2.9602,-2.9602,-2.9602,-2.9602,-2.9602,-2.9602,-2.9602,-2.9602,-2.9602,-2.9602,-2.9602,-2.9602,-2.9665,-2.9696,-2.9775,-2.9758,-2.9867,-2.996,-3.0083,-3.0357,-3.0553,-3.0748,-3.116,-3.1248,-3.1422,-3.1652,-3.1823,-3.1879,-3.1964,-3.2064,-3.2076,-3.2076,-3.2074,-3.2043,-3.1832,-3.1603,-3.1377,-3.1161,-3.1366,-3.1453,-3.1409,-3.1467,-3.1568,-3.1524,-3.1539,-3.1511,-3.1496,-3.1361,-3.1047,-3.0507,-2.9951,-2.9262,-2.8648,-2.8175,-2.769,-2.7875,-2.8082,-2.8097,-2.9779,-2.9779,-2.9779,-2.9779,-2.9779,-2.9779,-2.9779,-2.9779,-2.9779,-2.9779,-2.9779,-2.9779,-2.9779,-2.9779,-2.9779,-2.9779,-2.9779,-2.9779,-2.9779,-2.9779,-2.9779,-2.9779,-2.9779,-2.9779,-2.9779,-2.9792,-2.9767,-2.9679,-2.9441,-2.9707,-2.958,-2.9428,-2.9642,-2.9583,-2.9573,-2.984,-3.0066,-3.0129,-3.0387,-3.0612,-3.0612,-3.0612,-3.0612,-3.0612,-3.0612,-3.0612,-3.0612,-3.0612,-3.0431,-3.0172,-3.008,-2.9896,-2.9696,-2.9602,-2.9602,-2.9602,-2.9602,-2.9602,-2.9602,-2.9602,-2.9602,-2.9602,-2.9602,-2.9602,-2.9602,-2.9602,-2.9602,-2.9602,-2.9602,-2.9602,-2.9602,-2.9602,-2.9602,-2.9602,-2.9602,-2.9727,-2.9882,-2.9929,-3.0144,-3.0403,-3.0777,-3.1043,-3.1219,-3.1364,-3.1451,-3.1566,-3.1695,-3.1737,-3.1766,-3.1736,-3.169,-3.1404,-3.113,-3.0852,-3.0717,-3.0881,-3.0999,-3.1029,-3.1248,-3.1336,-3.1467,-3.1453,-3.1482,-3.1496,-3.1286,-3.1021,-3.0806,-3.0313,-2.946,-2.8633,-2.8135,-2.7755,-2.773,-2.775,-2.7815,-2.9779,-2.9779,-2.9779,-2.9779,-2.9779,-2.9779,-2.9779,-2.9779,-2.9779,-2.9779,-2.9779,-2.9779,-2.9779,-2.9779,-2.9779,-2.9779,-2.9779,-2.9779,-2.9779,-2.9779,-2.9779,-2.9779,-2.9779,-2.9779,-2.9779,-2.9779,-2.9779,-2.9779,-2.9716,-2.9781,-2.9796,-2.9529,-2.923,-2.9057,-2.9141,-2.926,-2.938,-2.9747,-3.0068,-3.0417,-3.0568,-3.0612,-3.0612,-3.0612,-3.0612,-3.0612,-3.0612,-3.0612,-3.0431,-3.0203,-3.005,-2.9958,-2.9665,-2.9602,-2.9602,-2.9602,-2.9602,-2.9602,-2.9602,-2.9602,-2.9602,-2.9602,-2.9602,-2.9602,-2.9602,-2.9602,-2.9602,-2.9602,-2.9602,-2.9602,-2.9602,-2.9602,-2.9602,-2.9602,-2.9602,-2.9602,-2.9634,-2.9665,-2.9696,-3.0021,-3.0433,-3.0673,-3.0777,-3.0896,-3.0984,-3.1234,-3.135,-3.1321,-3.1335,-3.1292,-3.116,-3.0896,-3.0585,-3.031,-3.0233,-3.0343,-3.0374,-3.0329,-3.0703,-3.1014,-3.1219,-3.1351,-3.138,-3.1365,-3.116,-3.0881,-3.0801,-3.0494,-2.9549,-2.8738,-2.8139,-2.779,-2.7695,-2.7675,-2.77,-2.9779,-2.9779,-2.9779,-2.9779,-2.9779,-2.9779,-2.9779,-2.9779,-2.9779,-2.9779,-2.9779,-2.9779,-2.9779,-2.9779,-2.9779,-2.9779,-2.9779,-2.9779,-2.9779,-2.9779,-2.9779,-2.9779,-2.9779,-2.9779,-2.9779,-2.9779,-2.9779,-2.9779,-2.9779,-2.9779,-2.9554,-2.9238,-2.9168,-2.8886,-2.8541,-2.8677,-2.898,-2.9467,-2.967,-2.9993,-3.0433,-3.0582,-3.0612,-3.0612,-3.0612,-3.0612,-3.0612,-3.0582,-3.0401,-3.0142,-3.008,-2.9927,-2.9665,-2.9602,-2.9602,-2.9602,-2.9602,-2.9602,-2.9602,-2.9602,-2.9602,-2.9602,-2.9602,-2.9602,-2.9602,-2.9602,-2.9602,-2.9602,-2.9602,-2.9602,-2.9602,-2.9602,-2.9602,-2.9602,-2.9602,-2.9602,-2.9602,-2.9602,-2.9602,-2.9634,-3.0052,-3.019,-3.0312,-3.0403,-3.0523,-3.0792,-3.0999,-3.094,-3.0851,-3.0732,-3.0673,-3.0404,-3.0011,-2.9727,-2.9585,-2.9716,-2.9718,-2.9642,-3.0117,-3.0614,-3.0673,-3.0837,-3.119,-3.1117,-3.0866,-3.0601,-3.0382,-2.9978,-2.9396,-2.8843,-2.8229,-2.7869,-2.7615,-2.7625,-2.765,-2.9779,-2.9779,-2.9779,-2.9779,-2.9779,-2.9779,-2.9779,-2.9779,-2.9779,-2.9779,-2.9779,-2.9779,-2.9779,-2.9779,-2.9779,-2.9779,-2.9779,-2.9779,-2.9779,-2.9779,-2.9779,-2.9779,-2.9779,-2.9779,-2.9779,-2.9779,-2.9779,-2.9779,-2.9779,-2.9779,-2.9616,-2.9403,-2.9086,-2.8737,-2.8264,-2.8344,-2.8345,-2.8627,-2.9139,-2.9716,-3.0068,-3.0387,-3.0612,-3.0582,-3.0582,-3.0582,-3.0552,-3.0477,-3.0326,-3.0111,-3.0005,-2.9837,-2.9665,-2.9602,-2.9602,-2.9602,-2.9602,-2.9602,-2.9602,-2.9602,-2.9602,-2.9602,-2.9602,-2.9602,-2.9602,-2.9602,-2.9602,-2.9602,-2.9602,-2.9602,-2.9602,-2.9602,-2.9602,-2.9602,-2.9602,-2.9602,-2.9602,-2.9602,-2.9602,-2.9602,-2.9602,-2.9806,-2.9929,-2.9991,-3.0052,-3.0174,-3.0296,-3.0235,-3.0174,-3.0083,-2.9991,-2.9929,-2.9512,-2.9117,-2.9022,-2.9026,-2.9012,-2.9062,-2.9518,-2.9889,-2.995,-3.0163,-3.051,-3.048,-3.0103,-2.9932,-2.9884,-2.9477,-2.8941,-2.8622,-2.8334,-2.7919,-2.7549,-2.7585,-2.7625,-2.9779,-2.9779,-2.9779,-2.9779,-2.9779,-2.9779,-2.9779,-2.9779,-2.9779,-2.9779,-2.9779,-2.9779,-2.9779,-2.9779,-2.9779,-2.9779,-2.9779,-2.9779,-2.9779,-2.9779,-2.9779,-2.9779,-2.9779,-2.9779,-2.9779,-2.9779,-2.9779,-2.9779,-2.9779,-2.9779,-2.9779,-2.9754,-2.9164,-2.8636,-2.8255,-2.8193,-2.82,-2.8369,-2.9527,-2.9879,-2.9761,-3.0233,-3.0242,-3.0217,-3.0221,-3.0357,-3.0357,-3.0387,-3.0249,-3.0111,-2.9929,-2.9761,-2.9634,-2.9602,-2.9602,-2.9602,-2.9602,-2.9602,-2.9602,-2.9602,-2.9602,-2.9602,-2.9602,-2.9602,-2.9602,-2.9602,-2.9602,-2.9602,-2.9602,-2.9602,-2.9602,-2.9602,-2.9602,-2.9602,-2.9602,-2.9602,-2.9602,-2.9602,-2.9602,-2.9602,-2.9602,-2.9602,-2.9696,-2.9634,-2.9634,-2.9634,-2.9602,-2.9602,-2.9602,-2.9634,-2.9665,-2.9696,-2.9509,-2.9053,-2.8766,-2.8638,-2.8495,-2.8481,-2.8935,-2.9174,-2.9268,-2.9487,-2.9827,-2.9642,-2.9362,-2.9479,-2.9602,-2.9043,-2.8509,-2.8364,-2.8175,-2.7776,-2.7499,-2.7534,-2.7585,-2.9779,-2.9779,-2.9779,-2.9779,-2.9779,-2.9779,-2.9779,-2.9779,-2.9779,-2.9779,-2.9779,-2.9779,-2.9779,-2.9779,-2.9779,-2.9779,-2.9779,-2.9779,-2.9779,-2.9779,-2.9779,-2.9779,-2.9779,-2.9779,-2.9779,-2.9779,-2.9779,-2.9779,-2.9779,-2.9779,-2.9779,-2.9704,-2.9315,-2.8699,-2.8309,-2.8191,-2.8362,-2.8747,-2.9937,-3.0044,-2.975,-2.9818,-2.9861,-2.9113,-2.9314,-2.9685,-2.9685,-2.9976,-3.0083,-2.9958,-2.9867,-2.973,-2.9634,-2.9602,-2.9602,-2.9602,-2.9602,-2.9602,-2.9602,-2.9602,-2.9602,-2.9602,-2.9602,-2.9602,-2.9602,-2.9602,-2.9602,-2.9602,-2.9602,-2.9602,-2.9602,-2.9602,-2.9602,-2.9602,-2.9602,-2.9602,-2.9602,-2.9602,-2.9602,-2.9602,-2.9602,-2.9602,-2.9602,-2.9602,-2.9602,-2.9602,-2.9602,-2.9602,-2.9602,-2.9602,-2.9602,-2.9602,-2.9571,-2.9226,-2.8748,-2.8554,-2.8346,-2.8216,-2.8384,-2.85,-2.8565,-2.8839,-2.9048,-2.9016,-2.8826,-2.9048,-2.908,-2.8377,-2.796,-2.8124,-2.7921,-2.7308,-2.7203,-2.7331,-2.7458,-2.9779,-2.9779,-2.9779,-2.9779,-2.9779,-2.9779,-2.9779,-2.9779,-2.9779,-2.9779,-2.9779,-2.9779,-2.9779,-2.9779,-2.9779,-2.9779,-2.9779,-2.9779,-2.9779,-2.9779,-2.9779,-2.9779,-2.9779,-2.9779,-2.9779,-2.9779,-2.9779,-2.9779,-2.9779,-2.9779,-2.9779,-2.9679,-2.9503,-2.9151,-2.8762,-2.831,-2.8342,-2.8666,-2.9359,-2.9417,-2.8938,-2.926,-2.9299,-2.8495,-2.8473,-2.8794,-2.8953,-2.9202,-2.9355,-2.9526,-2.962,-2.9634,-2.9571,-2.9571,-2.9571,-2.9571,-2.9571,-2.9602,-2.9602,-2.9602,-2.9602,-2.9602,-2.9602,-2.9602,-2.9602,-2.9602,-2.9602,-2.9602,-2.9602,-2.9602,-2.9602,-2.9602,-2.9602,-2.9602,-2.9602,-2.9602,-2.9602,-2.9602,-2.9602,-2.9602,-2.9602,-2.9602,-2.9602,-2.9602,-2.9602,-2.9602,-2.9602,-2.9602,-2.9602,-2.9602,-2.9602,-2.9571,-2.9509,-2.9383,-2.8908,-2.8554,-2.8243,-2.8066,-2.7934,-2.7987,-2.8072,-2.7908,-2.8091,-2.8111,-2.8208,-2.8274,-2.8109,-2.7552,-2.7414,-2.7693,-2.727,-2.6562,-2.6695,-2.7008,-2.7137,-2.9779,-2.9779,-2.9779,-2.9779,-2.9779,-2.9779,-2.9779,-2.9779,-2.9779,-2.9779,-2.9779,-2.9779,-2.9779,-2.9779,-2.9779,-2.9779,-2.9779,-2.9779,-2.9779,-2.9779,-2.9779,-2.9779,-2.9779,-2.9779,-2.9779,-2.9779,-2.9779,-2.9779,-2.9779,-2.9779,-2.9779,-2.9779,-2.9741,-2.9415,-2.895,-2.8562,-2.8423,-2.871,-2.91,-2.9024,-2.8489,-2.8926,-2.8699,-2.8084,-2.8173,-2.8395,-2.8651,-2.8949,-2.931,-2.9432,-2.9495,-2.9477,-2.9446,-2.9432,-2.9432,-2.9432,-2.9495,-2.9571,-2.9602,-2.9602,-2.9602,-2.9602,-2.9602,-2.9602,-2.9602,-2.9602,-2.9602,-2.9602,-2.9602,-2.9602,-2.9602,-2.9602,-2.9602,-2.9602,-2.9602,-2.9602,-2.9602,-2.9602,-2.9602,-2.9602,-2.9602,-2.9602,-2.9602,-2.9602,-2.9602,-2.9602,-2.9602,-2.9602,-2.9602,-2.9602,-2.9602,-2.954,-2.9477,-2.9289,-2.9067,-2.8844,-2.8554,-2.8112,-2.7967,-2.7769,-2.7703,-2.7536,-2.7503,-2.7709,-2.7743,-2.7556,-2.7374,-2.7226,-2.7211,-2.7288,-2.6692,-2.6045,-2.6149,-2.6443,-2.6575,-2.9779,-2.9779,-2.9779,-2.9779,-2.9779,-2.9779,-2.9779,-2.9779,-2.9779,-2.9779,-2.9779,-2.9779,-2.9779,-2.9779,-2.9779,-2.9779,-2.9779,-2.9779,-2.9779,-2.9779,-2.9779,-2.9779,-2.9779,-2.9779,-2.9779,-2.9779,-2.9779,-2.9779,-2.9779,-2.9779,-2.9779,-2.9779,-2.9754,-2.9553,-2.895,-2.89,-2.9202,-2.9705,-3.0163,-2.9516,-2.8874,-2.903,-2.8337,-2.7657,-2.7812,-2.8043,-2.8299,-2.8753,-2.9089,-2.9247,-2.9355,-2.9135,-2.8648,-2.9166,-2.9166,-2.8744,-2.9293,-2.954,-2.9557,-2.9571,-2.9602,-2.9602,-2.9602,-2.9602,-2.9602,-2.9602,-2.9602,-2.9602,-2.9602,-2.9602,-2.9602,-2.9602,-2.9602,-2.9602,-2.9602,-2.9602,-2.9602,-2.9602,-2.9602,-2.9602,-2.9602,-2.9602,-2.9602,-2.9602,-2.9602,-2.9602,-2.9602,-2.9602,-2.9602,-2.9602,-2.9602,-2.9571,-2.9477,-2.9415,-2.9257,-2.9162,-2.8844,-2.8373,-2.798,-2.7815,-2.7636,-2.7536,-2.7503,-2.7503,-2.7503,-2.7503,-2.7281,-2.7072,-2.7067,-2.6938,-2.6249,-2.5772,-2.5798,-2.5864,-2.6014,-2.9779,-2.9779,-2.9779,-2.9779,-2.9779,-2.9779,-2.9779,-2.9779,-2.9779,-2.9779,-2.9779,-2.9779,-2.9779,-2.9779,-2.9779,-2.9779,-2.9779,-2.9779,-2.9779,-2.9779,-2.9779,-2.9779,-2.9779,-2.9779,-2.9779,-2.9779,-2.9779,-2.9779,-2.9779,-2.9779,-2.9779,-2.9779,-2.9779,-2.9691,-2.9553,-2.9515,-2.9641,-2.9741,-2.9705,-2.9338,-2.8572,-2.8586,-2.8201,-2.7078,-2.7351,-2.7602,-2.7824,-2.8384,-2.8554,-2.8675,-2.8739,-2.8551,-2.8084,-2.85,-2.8744,-2.8634,-2.9153,-2.9338,-2.923,-2.9198,-2.9571,-2.9599,-2.9617,-2.9617,-2.9602,-2.9602,-2.9602,-2.9602,-2.9602,-2.9602,-2.9602,-2.9602,-2.9602,-2.9602,-2.9602,-2.9602,-2.9602,-2.9602,-2.9602,-2.9602,-2.9602,-2.9617,-2.9631,-2.9617,-2.9602,-2.9602,-2.9602,-2.9602,-2.9602,-2.9602,-2.9602,-2.9602,-2.9571,-2.9509,-2.9446,-2.932,-2.9067,-2.8619,-2.821,-2.7881,-2.7703,-2.757,-2.7503,-2.7503,-2.7503,-2.7477,-2.732,-2.7144,-2.6875,-2.6547,-2.6058,-2.5607,-2.5517,-2.5507,-2.5508,-2.9779,-2.9779,-2.9779,-2.9779,-2.9779,-2.9779,-2.9779,-2.9779,-2.9779,-2.9779,-2.9779,-2.9779,-2.9779,-2.9779,-2.9779,-2.9779,-2.9779,-2.9779,-2.9779,-2.9779,-2.9779,-2.9779,-2.9779,-2.9779,-2.9779,-2.9779,-2.9779,-2.9779,-2.9779,-2.9779,-2.9779,-2.9779,-2.9779,-2.9767,-2.9741,-2.9741,-2.9703,-2.965,-2.9433,-2.9139,-2.8635,-2.8411,-2.81,-2.7563,-2.7422,-2.7466,-2.7586,-2.7679,-2.776,-2.7855,-2.7848,-2.7822,-2.7571,-2.7703,-2.8117,-2.8357,-2.8712,-2.8757,-2.8487,-2.8789,-2.9186,-2.9527,-2.9568,-2.9599,-2.9602,-2.9602,-2.9602,-2.9602,-2.9602,-2.9631,-2.9631,-2.9631,-2.9729,-2.9743,-2.994,-2.9954,-3.0052,-3.008,-3.0263,-3.0193,-2.9897,-2.9841,-2.9631,-2.9617,-2.9602,-2.9602,-2.9602,-2.9602,-2.9602,-2.9602,-2.9602,-2.9602,-2.9602,-2.9571,-2.9509,-2.9446,-2.9194,-2.8844,-2.849,-2.8131,-2.7848,-2.7669,-2.7603,-2.7503,-2.7503,-2.7477,-2.7425,-2.7282,-2.704,-2.6699,-2.6288,-2.5834,-2.5357,-2.5264,-2.5288,-2.9779,-2.9779,-2.9779,-2.9779,-2.9779,-2.9779,-2.9779,-2.9779,-2.9779,-2.9779,-2.9779,-2.9779,-2.9779,-2.9779,-2.9779,-2.9779,-2.9779,-2.9779,-2.9779,-2.9779,-2.9779,-2.9779,-2.9779,-2.9779,-2.9779,-2.9779,-2.9779,-2.9779,-2.9779,-2.9779,-2.9779,-2.9779,-2.9779,-2.9779,-2.9779,-2.974,-2.965,-2.9482,-2.9275,-2.9018,-2.8712,-2.8536,-2.8255,-2.7932,-2.7997,-2.7891,-2.7889,-2.7818,-2.7781,-2.7657,-2.7443,-2.7053,-2.6918,-2.7142,-2.7377,-2.7756,-2.8276,-2.8079,-2.7716,-2.8143,-2.8616,-2.9011,-2.943,-2.9533,-2.9673,-2.9701,-2.9602,-2.9602,-2.9602,-2.9659,-2.9687,-2.9841,-2.9996,-3.0221,-3.053,-3.0642,-3.0769,-3.0923,-3.1176,-3.105,-3.06,-3.0291,-2.9743,-2.9602,-2.9602,-2.9602,-2.9602,-2.9602,-2.9602,-2.9602,-2.9602,-2.9602,-2.9602,-2.9602,-2.9571,-2.9509,-2.932,-2.8972,-2.878,-2.849,-2.8164,-2.7815,-2.7669,-2.7603,-2.7536,-2.7477,-2.7438,-2.7372,-2.7275,-2.6922,-2.6634,-2.6162,-2.5739,-2.5374,-2.5279,-2.9779,-2.9779,-2.9779,-2.9779,-2.9779,-2.9779,-2.9779,-2.9779,-2.9779,-2.9779,-2.9779,-2.9779,-2.9779,-2.9779,-2.9779,-2.9779,-2.9779,-2.9779,-2.9779,-2.9779,-2.9779,-2.9779,-2.9779,-2.9779,-2.9779,-2.9779,-2.9779,-2.9779,-2.9779,-2.9779,-2.9779,-2.9779,-2.9779,-2.9779,-2.974,-2.9599,-2.9509,-2.9353,-2.9157,-2.8961,-2.8816,-2.8578,-2.8342,-2.834,-2.8142,-2.8074,-2.8188,-2.7704,-2.7538,-2.7322,-2.6925,-2.6656,-2.7167,-2.7237,-2.7423,-2.803,-2.8182,-2.7941,-2.7148,-2.7715,-2.8326,-2.8382,-2.8786,-2.967,-2.9854,-2.9782,-2.953,-2.946,-2.946,-2.9516,-3.0031,-3.0389,-3.0726,-3.1162,-3.1485,-3.1752,-3.1822,-3.178,-3.1949,-3.1373,-3.0937,-3.0357,-2.9855,-2.9602,-2.9602,-2.9602,-2.9602,-2.9602,-2.9602,-2.9602,-2.9602,-2.9602,-2.954,-2.9509,-2.954,-2.9509,-2.9352,-2.9162,-2.8876,-2.8587,-2.8243,-2.7914,-2.7769,-2.7636,-2.7536,-2.7503,-2.749,-2.7411,-2.7346,-2.7398,-2.715,-2.6634,-2.6151,-2.5824,-2.5528,-2.9779,-2.9779,-2.9779,-2.9779,-2.9779,-2.9779,-2.9779,-2.9779,-2.9779,-2.9779,-2.9779,-2.9779,-2.9779,-2.9779,-2.9779,-2.9779,-2.9779,-2.9779,-2.9779,-2.9779,-2.9779,-2.9779,-2.9779,-2.9779,-2.9779,-2.9779,-2.9779,-2.9779,-2.9779,-2.9779,-2.9779,-2.9779,-2.9779,-2.9779,-2.974,-2.956,-2.938,-2.9223,-2.9079,-2.8882,-2.8736,-2.859,-2.855,-2.845,-2.8126,-2.8268,-2.8282,-2.7607,-2.7385,-2.7126,-2.667,-2.6732,-2.7209,-2.7366,-2.7106,-2.7576,-2.7624,-2.7205,-2.6704,-2.7262,-2.7668,-2.7995,-2.8431,-2.9051,-2.9356,-2.93,-2.914,-2.9045,-2.9186,-2.9452,-3.0285,-3.1092,-3.1682,-3.2272,-3.2623,-3.2974,-3.2862,-3.2693,-3.2216,-3.1597,-3.1036,-3.0488,-3.0066,-2.9785,-2.9602,-2.9602,-2.9602,-2.9602,-2.9602,-2.9602,-2.9602,-2.9602,-2.9477,-2.9383,-2.9446,-2.9415,-2.9194,-2.894,-2.8651,-2.8373,-2.8145,-2.7914,-2.7669,-2.757,-2.7503,-2.7503,-2.7503,-2.7503,-2.7464,-2.7503,-2.7503,-2.7124,-2.6694,-2.6425,-2.6086,-2.9779,-2.9779,-2.9779,-2.9779,-2.9779,-2.9779,-2.9779,-2.9779,-2.9779,-2.9779,-2.9779,-2.9779,-2.9779,-2.9779,-2.9779,-2.9779,-2.9779,-2.9779,-2.9779,-2.9779,-2.9779,-2.9779,-2.9779,-2.9779,-2.9779,-2.9779,-2.9779,-2.9779,-2.9779,-2.9779,-2.9779,-2.9779,-2.9779,-2.9779,-2.974,-2.9482,-2.9275,-2.9157,-2.8922,-2.8697,-2.859,-2.851,-2.851,-2.851,-2.8414,-2.8333,-2.7972,-2.7645,-2.7462,-2.7114,-2.6899,-2.6888,-2.7247,-2.7693,-2.7372,-2.6968,-2.716,-2.6904,-2.6724,-2.7112,-2.779,-2.8196,-2.8528,-2.8682,-2.8747,-2.8641,-2.8424,-2.8554,-2.8712,-2.936,-3.018,-3.1606,-3.2547,-3.3231,-3.377,-3.406,-3.4098,-3.3635,-3.2806,-3.2117,-3.1345,-3.074,-2.9912,-2.9602,-2.9602,-2.9602,-2.9602,-2.9602,-2.9602,-2.9602,-2.9602,-2.9571,-2.9383,-2.9257,-2.9257,-2.9194,-2.8972,-2.8716,-2.8457,-2.8308,-2.8158,-2.7848,-2.7536,-2.7503,-2.7503,-2.7503,-2.7503,-2.7503,-2.7503,-2.7503,-2.7503,-2.7503,-2.7255,-2.6935,-2.6621,-2.9779,-2.9779,-2.9779,-2.9779,-2.9779,-2.9779,-2.9779,-2.9779,-2.9779,-2.9779,-2.9779,-2.9779,-2.9779,-2.9779,-2.9779,-2.9779,-2.9702,-2.974,-2.9779,-2.9753,-2.9753,-2.9779,-2.9779,-2.9779,-2.9779,-2.9779,-2.9779,-2.9779,-2.9779,-2.9779,-2.9779,-2.9779,-2.9779,-2.974,-2.9702,-2.9404,-2.9131,-2.9052,-2.8776,-2.8578,-2.851,-2.851,-2.851,-2.851,-2.8474,-2.8462,-2.8174,-2.787,-2.7714,-2.7474,-2.7078,-2.7138,-2.7488,-2.8237,-2.815,-2.7512,-2.7086,-2.6916,-2.6952,-2.7209,-2.7761,-2.8003,-2.8194,-2.8182,-2.8077,-2.7844,-2.7824,-2.8024,-2.8475,-2.9278,-3.0339,-3.1938,-3.3287,-3.4056,-3.4778,-3.498,-3.5153,-3.4315,-3.3403,-3.2581,-3.1752,-3.0834,-2.9919,-2.9554,-2.9602,-2.9602,-2.9602,-2.9602,-2.9602,-2.9602,-2.9602,-2.954,-2.9289,-2.9162,-2.9099,-2.8876,-2.8619,-2.8554,-2.8425,-2.8276,-2.8125,-2.7815,-2.7503,-2.7503,-2.7503,-2.7503,-2.7503,-2.7503,-2.7503,-2.7503,-2.7503,-2.7503,-2.7503,-2.7242,-2.7013,-2.9779,-2.9779,-2.9779,-2.9779,-2.9779,-2.9779,-2.9779,-2.9779,-2.9779,-2.9779,-2.9779,-2.9779,-2.9779,-2.9779,-2.9779,-2.9495,-2.9417,-2.9663,-2.9417,-2.9339,-2.9624,-2.9779,-2.9779,-2.9779,-2.9779,-2.9779,-2.9779,-2.9779,-2.9779,-2.9779,-2.9779,-2.9779,-2.9702,-2.9611,-2.956,-2.9209,-2.8961,-2.8934,-2.8618,-2.851,-2.851,-2.851,-2.851,-2.851,-2.851,-2.851,-2.845,-2.821,-2.8138,-2.8014,-2.7813,-2.7762,-2.8056,-2.8443,-2.8297,-2.7796,-2.7428,-2.7246,-2.7342,-2.756,-2.7861,-2.8065,-2.7957,-2.7946,-2.7801,-2.7628,-2.7839,-2.8094,-2.85,-2.9198,-3.0673,-3.223,-3.2996,-3.3724,-3.431,-3.471,-3.4736,-3.4395,-3.3639,-3.3002,-3.1906,-3.0522,-2.9702,-2.9077,-2.9127,-2.9153,-2.9216,-2.9571,-2.9571,-2.9571,-2.9571,-2.9477,-2.9162,-2.894,-2.8798,-2.8522,-2.8164,-2.8164,-2.8262,-2.8033,-2.7782,-2.7636,-2.7503,-2.7503,-2.7503,-2.7503,-2.7503,-2.7503,-2.7503,-2.7503,-2.7503,-2.7503,-2.7503,-2.7503,-2.7294,-2.9779,-2.9779,-2.9779,-2.9779,-2.9779,-2.9779,-2.9779,-2.9779,-2.9779,-2.9779,-2.9779,-2.9779,-2.9779,-2.9779,-2.974,-2.917,-2.8922,-2.9209,-2.9,-2.8961,-2.9248,-2.9534,-2.974,-2.9779,-2.9779,-2.9779,-2.9779,-2.9779,-2.9779,-2.9779,-2.9779,-2.974,-2.9599,-2.938,-2.9275,-2.9079,-2.8843,-2.8803,-2.8657,-2.851,-2.851,-2.851,-2.851,-2.851,-2.851,-2.851,-2.851,-2.851,-2.8486,-2.845,-2.8366,-2.8366,-2.8282,-2.8376,-2.8228,-2.7909,-2.769,-2.7666,-2.7801,-2.7834,-2.8098,-2.8246,-2.7918,-2.7762,-2.7705,-2.7847,-2.8084,-2.8471,-2.8885,-2.9465,-3.093,-3.2146,-3.2809,-3.3348,-3.389,-3.4332,-3.4296,-3.419,-3.3629,-3.3006,-3.1694,-3.0235,-2.9436,-2.8808,-2.8649,-2.8697,-2.8885,-2.9293,-2.9526,-2.954,-2.954,-2.932,-2.9004,-2.878,-2.8605,-2.8216,-2.7835,-2.7835,-2.7888,-2.7669,-2.7503,-2.7503,-2.7503,-2.7503,-2.7503,-2.7503,-2.7503,-2.7503,-2.7503,-2.7503,-2.7503,-2.7503,-2.7503,-2.7503,-2.7503,-2.9779,-2.9779,-2.9779,-2.9779,-2.9779,-2.9779,-2.9779,-2.9779,-2.9779,-2.9779,-2.9779,-2.9779,-2.9779,-2.9779,-2.9779,-2.9248,-2.8422,-2.8661,-2.8712,-2.8633,-2.8791,-2.9209,-2.9624,-2.9779,-2.9779,-2.9779,-2.9779,-2.9779,-2.9779,-2.9779,-2.9779,-2.9779,-2.9509,-2.938,-2.9289,-2.9028,-2.8764,-2.8724,-2.8618,-2.851,-2.851,-2.851,-2.851,-2.851,-2.851,-2.851,-2.851,-2.851,-2.851,-2.851,-2.851,-2.851,-2.8426,-2.827,-2.815,-2.8186,-2.7966,-2.8029,-2.8114,-2.821,-2.8426,-2.8426,-2.8258,-2.8266,-2.8378,-2.8655,-2.9003,-2.9464,-2.9719,-2.9683,-3.0832,-3.2089,-3.2921,-3.3173,-3.3601,-3.3744,-3.3779,-3.3369,-3.2846,-3.2006,-3.0967,-2.9825,-2.8947,-2.8528,-2.8326,-2.8358,-2.8417,-2.8849,-2.9355,-2.9432,-2.9474,-2.9236,-2.8917,-2.8716,-2.8587,-2.7987,-2.7636,-2.7603,-2.7556,-2.7536,-2.7503,-2.7503,-2.7503,-2.7503,-2.7503,-2.7503,-2.7503,-2.7503,-2.7503,-2.7503,-2.7503,-2.7503,-2.7503,-2.7503,-2.7503]},{"header":{"parameterUnit":"m.s-1","parameterCategory":1,"la1":31.0,"la2":29.5877,"lo1":-88.7671,"lo2":-86.6584,"dy":0.0162,"dx":0.0185,"nx":115,"ny":88,"refTime":"2024-05-28T06:00:00:Z","depth":0,"parameterNumber":3,"parameterNumberName":"V-component_of_WINDS"},"data":[0.0,0.0,0.0,0.0,0.0,0.0,0.0,0.0,0.0,0.0,0.0,0.0,0.0,0.0,0.0,0.0,0.0,0.0,0.0,0.0,0.0,0.0,0.0,0.0,0.0,0.0,0.0,0.0,0.0,0.0,0.0,0.0,0.0,0.0,0.0,0.0,0.0,0.0,0.0,0.0,0.0,0.0,0.0,0.0,0.0,0.0,0.0,0.0,0.0,0.0,0.0,0.0,0.0,0.0,0.0,0.0,0.0,0.0,0.0,0.0,0.0,0.0,0.0,0.0,0.0,0.0,0.0,0.0,0.0,0.0,0.0,0.0,0.0,0.0,0.0,0.0,0.0,0.0,0.0,0.0,0.0,0.0,0.0,0.0,0.0,0.0,0.0,0.0,0.0,0.0,0.0,0.0,0.0,0.0,0.0,0.0,0.0,0.0,0.0,0.0,0.0,0.0,0.0,0.0,0.0,0.0,0.0,0.0,0.0,0.0,0.0,0.0,0.0,0.0,0.0,0.0,0.0,0.0,0.0,0.0,0.0,0.0,0.0,0.0,0.0,0.0,0.0,0.0,0.0,0.0,0.0,0.0,0.0,0.0,0.0,0.0,0.0,0.0,0.0,0.0,0.0,0.0,0.0,0.0,0.0,0.0,0.0,0.0,0.0,0.0,0.0,0.0,0.0,0.0,0.0,0.0,0.0,0.0,0.0,0.0,0.0,0.0,0.0,0.0,0.0,0.0,0.0,0.0,0.0,0.0,0.0,0.0,0.0,0.0,0.0,0.0,0.0,0.0,0.0,0.0,0.0,0.0,0.0,0.0,0.0,0.0,0.0,0.0,0.0,0.0,0.0,0.0,0.0,0.0,0.0,0.0,0.0,0.0,0.0,0.0,0.0,0.0,0.0,0.0,0.0,0.0,0.0,0.0,0.0,0.0,0.0,0.0,0.0,0.0,0.0,0.0,0.0,0.0,0.0,0.0,0.0,0.0,0.0,0.0,0.0,0.0,0.0,0.0,0.0,0.0,0.0,0.0,0.0,0.0,0.0,0.0,0.0,0.0,0.0,0.0,0.0,0.0,0.0,0.0,0.0,0.0,0.0,0.0,0.0,0.0,0.0,0.0,0.0,0.0,0.0,0.0,0.0,0.0,0.0,0.0,0.0,0.0,0.0,0.0,0.0,0.0,0.0,0.0,0.0,0.0,0.0,0.0,0.0,0.0,0.0,0.0,0.0,0.0,0.0,0.0,0.0,0.0,0.0,0.0,0.0,0.0,0.0,0.0,0.0,0.0,0.0,0.0,0.0,0.0,0.0,0.0,0.0,0.0,0.0,0.0,0.0,0.0,0.0,0.0,0.0,0.0,0.0,0.0,0.0,0.0,0.0,0.0,0.0,0.0,0.0,0.0,0.0,0.0,0.0,0.0,0.0,0.0,0.0,0.0,0.0,0.0,0.0,0.0,0.0,0.0,0.0,0.0,0.0,0.0,0.0,0.0,0.0,0.0,0.0,0.0,0.0,0.0,0.0,0.0,0.0,0.0,0.0,0.0,0.0,0.0,0.0,0.0,0.0,0.0,0.0,0.0,0.0,0.0,0.0,0.0,0.0,0.0,0.0,0.0,0.0,0.0,0.0,0.0,0.0,0.0,0.0,0.0,0.0,0.0,0.0,0.0,0.0,0.0,0.0,0.0,0.0,0.0,0.0,0.0,0.0,0.0,0.0,0.0,0.0,0.0,0.0,0.0,0.0,0.0,0.0,0.0,0.0,0.0,0.0,0.0,0.0,0.0,0.0,0.0,0.0,0.0,0.0,0.0,0.0,0.0,0.0,0.0,0.0,0.0,0.0,0.0,0.0,0.0,0.0,0.0,0.0,0.0,0.0,0.0,0.0,0.0,0.0,0.0,0.0,0.0,0.0,0.0,0.0,0.0,0.0,0.0,0.0,0.0,0.0,0.0,0.0,0.0,0.0,0.0,0.0,0.0,0.0,0.0,0.0,0.0,0.0,0.0,0.0,0.0,0.0,0.0,0.0,0.0,0.0,0.0,0.0,0.0,0.0,0.0,0.0,0.0,0.0,0.0,0.0,0.0,0.0,0.0,0.0,0.0,0.0,0.0,0.0,0.0,0.0,0.0,0.0,0.0,0.0,0.0,0.0,0.0,0.0,0.0,0.0,0.0,0.0,0.0,0.0,0.0,0.0,0.0,0.0,0.0,0.0,0.0,0.0,0.0,0.0,0.0,0.0,0.0,0.0,0.0,0.0,0.0,0.0,0.0,0.0,0.0,0.0,0.0,0.0,0.0,0.0,0.0,0.0,0.0,0.0,0.0,0.0,0.0,0.0,0.0,0.0,0.0,0.0,0.0,0.0,0.0,0.0,0.0,0.0,0.0,0.0,0.0,0.0,0.0,0.0,0.0,0.0,0.0,0.0,0.0,0.0,0.0,0.0,0.0,0.0,0.0,0.0,0.0,0.0,0.0,0.0,0.0,0.0,0.0,0.0,0.0,0.0,0.0,0.0,0.0,0.0,0.0,0.0,0.0,0.0,0.0,0.0,0.0,0.0,0.0,0.0,0.0,0.0,0.0,0.0,0.0,0.0,0.0,0.0,0.0,0.0,0.0,0.0,0.0,0.0,0.0,0.0,0.0,0.0,0.0,0.0,0.0,0.0,0.0,0.0,0.0,0.0,0.0,0.0,0.0,0.0,0.0,0.0,0.0,0.0,0.0,0.0,0.0,0.0,0.0,0.0,0.0,0.0,0.0,0.0,0.0,0.0,0.0,0.0,0.0,0.0,0.0,0.0,0.0,0.0,0.0,0.0,0.0,0.0,0.0,0.0,0.0,0.0,0.0,0.0,0.0,0.0,0.0,0.0,0.0,0.0,0.0,0.0,0.0,0.0,0.0,0.0,0.0,0.0,0.0,0.0,0.0,0.0,0.0,0.0,0.0,0.0,0.0,0.0,0.0,0.0,0.0,0.0,0.0,0.0,0.0,0.0,0.0,0.0,0.0,0.0,0.0,0.0,0.0,0.0,0.0,0.0,0.0,0.0,0.0,0.0,0.0,0.0,0.0,0.0,0.0,0.0,0.0,0.0,0.0,0.0,0.0,0.0,0.0,0.0,0.0,0.0,0.0,0.0,0.0,0.0,0.0,0.0,0.0,0.0,0.0,0.0,0.0,0.0,0.0,0.0,0.0,0.0,0.0,0.0,0.0,0.0,0.0,0.0,0.0,0.0,0.0,0.0,0.0,0.0,0.0,0.0,0.0,0.0,0.0,0.0,0.0,0.0,0.0,0.0,0.0,0.0,0.0,0.0,0.0,0.0,0.0,0.0,0.0,0.0,0.0,0.0,0.0,0.0,0.0,0.0,0.0,0.0,0.0,0.0,0.0,0.0,0.0,0.0,0.0,0.0,0.0,0.0,0.0,0.0,0.0,0.0,0.0,0.0,0.0,0.0,0.0,0.0,0.0,0.0,0.0,0.0,0.0,0.0,0.0,0.0,0.0,0.0,0.0,0.0,0.0,0.0,0.0,0.0,0.0,0.0,0.0,0.0,0.0,0.0,0.0,0.0,0.0,0.0,0.0,0.0,0.0,0.0,0.0,0.0,0.0,0.0,0.0,0.0,0.0,0.0,0.0,0.0,0.0,0.0,0.0,0.0,0.0,0.0,0.0,0.0,0.0,0.0,0.0,0.0,0.0,0.0,0.0,0.0,0.0,0.0,0.0,0.0,0.0,0.0,0.0,0.0,0.0,0.0,0.0,0.0,0.0,0.0,0.0,0.0,0.0,0.0,0.0,0.0,0.0,0.0,0.0,0.0,0.0,0.0,0.0,0.0,0.0,0.0,0.0,0.0,0.0,0.0,0.0,0.0,0.0,0.0,0.0,0.0,0.0,0.0,0.0,0.0,0.0,0.0,0.0,0.0,0.0,0.0,0.0,0.0,0.0,0.0,0.0,0.0,0.0,0.0,0.0,0.0,0.0,0.0,0.0,0.0,0.0,0.0,0.0,0.0,0.0,0.0,0.0,0.0,0.0,0.0,0.0,0.0,0.0,0.0,0.0,0.0,0.0,0.0,0.0,0.0,0.0,0.0,0.0,0.0,0.0,0.0,0.0,0.0,0.0,0.0,0.0,0.0,0.0,0.0,0.0,0.0,0.0,0.0,0.0,0.0,0.0,0.0,0.0,0.0,0.0,0.0,0.0,0.0,0.0,0.0,0.0,0.0,0.0,0.0,0.0,0.0,0.0,0.0,0.0,0.0,0.0,0.0,0.0,0.0,0.0,0.6317,0.0,0.0,0.0,0.0,0.0,0.0,0.0,0.0,0.0,0.0,0.0,0.0,0.0,0.0,0.0,0.0,0.0,0.0,0.0,0.0,0.0,0.0,0.0,0.0,0.0,0.0,0.0,0.0,0.0,0.0,0.0,0.0,0.0,0.0,0.0,0.0,0.0,0.0,0.0,0.0,0.0,0.0,0.0,0.0,0.0,0.0,0.0,0.0,0.0,0.0,0.0,0.0,0.0,0.0,0.0,0.0,0.0,0.0,0.0,0.0,0.0,0.0,0.0,0.0,0.0,0.0,0.0,0.0,0.0,0.0,0.0,0.0,0.0,0.0,0.0,0.0,0.0,0.0,0.0,0.0,0.0,0.0,0.0,0.0,0.0,0.0,0.0,0.0,0.0,0.0,0.0,0.0,0.0,0.0,0.0,0.0,0.0,0.0,0.0,0.0,0.0,0.0,0.0,0.0,0.0,0.0,0.0,0.0,0.0,0.0,0.8585,0.8416,0.8112,0.7651,0.7048,0.0,0.0,0.0,0.0,0.0,0.0,0.0,0.0,0.0,0.0,0.0,0.0,0.0,0.0,0.0,0.0,0.0,0.0,0.0,0.0,0.0,0.0,0.0,0.0,0.0,0.0,0.0,0.0,0.0,0.0,0.0,0.0,0.0,0.0,0.0,0.0,0.0,0.0,0.0,0.0,0.0,0.0,0.0,0.0,0.0,0.0,0.0,0.0,0.0,0.0,0.0,0.0,0.0,0.0,0.0,0.0,0.0,0.0,0.0,0.0,0.0,0.0,0.0,0.0,0.0,0.0,0.0,0.0,0.0,0.0,0.0,0.0,0.0,0.0,0.0,0.0,0.0,0.0,0.0,0.0,0.0,0.0,0.0,0.0,0.0,0.0,0.0,0.0,0.0,0.0,0.0,0.0,0.0,0.0,0.0,0.0,0.0,0.0,0.0,0.0,0.0,0.0,0.0,0.0,0.0,0.0,0.0,0.0,0.0,0.0,0.0,0.0,0.8156,0.7746,0.7201,0.0,0.0,0.0,0.0,0.0,0.0,0.0,0.0,0.0,0.0,0.0,0.0,0.0,0.0,0.0,0.0,0.0,0.0,0.0,0.0,0.0,0.0,0.0,0.0,0.0,0.0,0.0,0.0,0.0,0.0,0.0,0.0,0.0,0.0,0.0,0.0,0.0,0.0,0.0,0.0,0.0,0.0,0.0,0.0,0.0,0.0,0.0,0.0,0.0,0.0,0.0,0.0,0.0,0.0,0.0,0.0,0.0,0.0,0.0,0.0,0.0,0.0,0.0,0.0,0.0,0.0,0.0,0.0,0.0,0.0,0.0,0.0,0.0,0.0,0.0,0.0,0.0,0.0,0.0,0.0,0.0,0.0,0.0,0.0,0.0,0.0,0.0,0.0,0.0,0.0,0.0,0.0,0.0,0.0,0.0,0.0,0.0,0.0,0.0,0.0,0.0,0.0,0.0,0.0,0.0,0.0,0.0,0.0,0.0,0.0,0.8308,0.8562,0.8073,0.0,0.5519,0.0,0.0,0.0,0.0,0.0,0.0,0.0,0.0,0.0,0.0,0.0,0.0,0.0,0.0,0.0,0.0,0.0,0.0,0.0,0.0,0.0,0.0,0.0,0.0,0.0,0.0,0.0,0.0,0.0,0.0,0.0,0.0,0.0,0.0,0.0,0.0,0.0,0.0,0.0,0.0,0.0,0.0,0.0,0.0,0.0,0.0,0.0,0.0,0.0,0.0,0.0,0.0,0.0,0.0,0.0,0.0,0.0,0.0,0.0,0.0,0.0,0.0,0.0,0.0,0.0,0.0,0.0,0.0,0.0,0.0,0.0,0.0,0.0,0.0,0.0,0.0,0.0,0.0,0.0,0.0,0.0,0.0,0.0,0.0,0.0,0.0,0.0,0.0,0.0,0.0,0.0,0.0,0.0,0.0,0.0,0.0,0.0,0.0,0.0,0.0,0.0,0.0,0.0,0.0,0.0,0.0,0.0,0.0,0.0,0.0,0.8398,0.8431,0.8037,0.6948,0.0,0.0,0.0,0.0,0.0,0.0,0.0,0.0,0.0,0.0,0.0,0.0,0.0,0.0,0.0,0.0,0.0,0.0,0.0,0.0,0.0,0.0,0.0,0.0,0.0,0.0,0.0,0.0,0.0,0.0,0.0,0.0,0.0,0.0,0.0,0.0,0.0,0.0,0.0,0.0,0.0,0.0,0.0,0.0,0.0,0.0,0.0,0.0,0.0,0.0,0.0,0.0,0.0,0.0,0.0,0.0,0.0,0.0,0.0,0.0,0.0,0.0,0.0,0.0,0.0,0.0,0.0,0.0,0.0,0.0,0.0,0.0,0.0,0.0,0.0,0.0,0.0,0.0,0.0,0.0,0.0,0.0,0.0,0.0,0.0,0.0,0.0,0.0,0.0,0.0,0.0,0.0,0.0,0.0,0.0,0.0,0.0,0.0,0.0,0.0,0.0,0.0,0.0,0.0,0.0,0.0,0.0,0.0,0.0,0.0,0.8386,0.8374,0.8288,0.7757,0.6709,0.5104,0.0,0.0,0.0,0.0,0.0,0.0,0.0,0.0,0.0,0.0,0.0,0.0,0.0,0.0,0.0,0.0,0.0,0.0,0.0,0.0,0.0,0.0,0.0,0.0,0.0,0.0,0.0,0.0,0.0,0.0,0.0,0.0,0.0,0.0,0.0,0.0,0.0,0.0,0.0,0.0,0.0,0.0,0.0,0.0,0.0,0.0,0.0,0.0,0.0,0.0,0.0,0.0,0.0,0.0,0.0,0.0,0.0,0.0,0.0,0.0,0.0,0.0,0.0,0.0,0.0,0.0,0.0,0.0,0.0,0.0,0.0,0.0,0.0,0.0,0.0,0.0,0.0,0.0,0.0,0.0,0.0,0.0,0.0,0.0,0.0,0.0,0.0,0.0,0.0,0.0,0.0,0.0,0.0,0.0,0.0,0.0,0.0,0.0,0.0,0.0,0.0,0.0,0.0,0.0,0.0,0.0,0.0,0.0,0.0,0.8308,0.8143,0.8272,0.7204,0.6174,0.0,0.0,0.0,0.0,0.0,0.0,0.0,0.0,0.0,0.0,0.0,0.0,0.0,0.0,0.0,0.0,0.0,0.0,0.0,0.0,0.0,0.0,0.0,0.0,0.0,0.0,0.0,0.0,0.0,0.0,0.0,0.0,0.0,0.0,0.0,0.0,0.0,0.0,0.0,0.0,0.0,0.0,0.0,0.0,0.0,0.0,0.0,0.0,0.0,0.0,0.0,0.0,0.0,0.0,0.0,0.0,0.0,0.0,0.0,0.0,0.0,0.0,0.0,0.0,0.0,0.0,0.0,0.0,0.0,0.0,0.0,0.0,0.0,0.0,0.0,0.0,0.0,0.0,0.0,0.0,0.0,0.0,0.0,0.0,0.0,0.0,0.0,0.0,0.0,0.0,0.0,0.0,0.0,0.0,0.0,0.0,0.0,0.0,0.0,0.0,0.0,0.0,0.0,0.0,0.0,0.0,0.0,0.0,0.0,0.8362,0.8378,0.8455,0.8565,0.7788,0.6695,0.0,0.0,0.0,0.0,0.0,0.0,0.0,0.0,0.0,0.0,0.0,0.0,0.0,0.0,0.0,0.0,0.0,0.0,0.0,0.0,0.0,0.0,0.0,0.0,0.0,0.0,0.0,0.0,0.0,0.0,0.0,0.0,0.0,0.0,0.0,0.0,0.0,0.0,0.0,0.0,0.0,0.0,0.0,0.0,0.0,0.0,0.0,0.0,0.0,0.0,0.0,0.0,0.0,0.0,0.0,0.0,0.0,0.0,0.0,0.0,0.0,0.0,0.0,0.0,0.0,0.0,0.0,0.0,0.0,0.0,0.0,0.0,0.0,0.0,0.0,0.0,0.0,0.0,0.0,0.0,0.0,0.0,0.0,0.0,0.0,0.0,0.0,0.0,0.0,0.0,0.0,0.0,0.0,0.0,0.0,0.0,0.0,0.0,0.0,0.0,0.0,0.0,0.0,0.0,0.0,0.0,0.0,0.0,0.0,0.8263,0.0,0.8739,0.0,0.7651,0.647,0.0,0.0,0.0,0.0,0.0,0.0,0.0,0.0,0.0,0.0,0.0,0.0,0.0,0.0,0.0,0.0,0.0,0.0,0.0,0.0,0.0,0.0,0.0,0.0,0.0,0.0,0.0,0.0,0.0,0.0,0.0,0.0,0.0,0.0,0.0,0.0,0.0,0.0,0.0,0.0,0.0,0.0,0.0,0.0,0.0,0.0,0.0,0.0,0.0,0.0,0.0,0.0,0.0,0.0,0.0,0.0,0.0,0.0,0.0,0.0,0.0,0.0,0.0,0.0,0.0,0.0,0.0,0.0,0.0,0.0,0.0,0.0,0.0,0.0,0.0,0.0,0.0,0.0,0.0,0.0,0.0,0.0,0.0,0.0,0.0,0.0,0.0,0.0,0.0,0.0,0.0,0.0,0.0,0.0,0.0,0.0,0.0,0.0,0.0,0.0,0.0,0.0,0.0,0.0,0.0,0.0,0.0,0.0,0.7882,0.858,0.8889,0.8905,0.858,0.6671,0.5328,0.0,0.0,0.0,0.0,0.0,0.0,0.0,0.0,0.0,0.0,0.0,0.0,0.0,0.0,0.0,0.0,0.0,0.0,0.0,0.0,0.0,0.0,0.0,0.0,0.0,0.0,0.0,0.0,0.0,0.0,0.0,0.0,0.0,0.0,0.0,0.0,0.0,0.0,0.0,0.0,0.0,0.0,0.0,0.0,0.0,0.0,0.0,0.0,0.0,0.0,0.0,0.0,0.0,0.0,0.0,0.0,0.0,0.0,0.0,0.0,0.0,0.0,0.0,0.0,0.0,0.0,0.0,0.0,0.0,0.0,0.0,0.0,0.0,0.0,0.0,0.0,0.0,0.0,0.0,0.0,0.0,0.0,0.0,0.0,0.0,0.0,0.0,0.0,0.0,0.0,0.0,0.0,0.0,0.0,0.0,0.0,0.0,0.0,0.0,0.0,0.0,0.0,0.0,0.0,0.0,0.0,0.0,0.0,0.0,0.86,0.8718,0.8735,0.8674,0.7098,0.588,0.0,0.0,0.0,0.0,0.0,0.0,0.0,0.0,0.0,0.0,0.0,0.0,0.0,0.0,0.0,0.0,0.0,0.0,0.0,0.0,0.0,0.0,0.0,0.0,0.0,0.0,0.0,0.0,0.0,0.0,0.0,0.0,0.0,0.0,0.0,0.0,0.0,0.0,0.0,0.0,0.0,0.0,0.0,0.0,0.0,0.0,0.0,0.0,0.0,0.0,0.0,0.0,0.0,0.0,0.0,0.0,0.0,0.0,0.0,0.0,0.0,0.0,0.0,0.0,0.0,0.0,0.0,0.0,0.0,0.0,0.0,0.0,0.0,0.0,0.0,0.0,0.0,0.0,0.0,0.0,0.0,0.0,0.0,0.0,0.0,0.0,0.0,0.0,0.0,0.0,0.0,0.0,0.0,0.0,0.0,0.0,0.0,0.0,0.0,0.0,0.0,0.0,0.0,0.0,0.0,0.0,0.0,0.0,0.0,0.8751,0.8763,0.8783,0.8775,0.7429,0.6228,0.5239,0.0,0.0,0.0,0.0,0.0,0.0,0.0,0.0,0.0,0.0,0.0,0.0,0.0,0.0,0.0,0.0,0.0,0.0,0.0,0.0,0.0,0.0,0.0,0.0,0.0,0.0,0.0,0.0,0.0,0.0,0.0,0.0,0.0,0.0,0.0,0.0,0.0,0.0,0.0,0.0,0.0,0.0,0.0,0.0,0.0,0.0,0.0,0.0,0.0,0.0,0.0,0.0,0.0,0.0,0.0,0.0,0.0,0.0,0.0,0.0,0.0,0.0,0.0,0.0,0.0,0.0,0.0,0.0,0.0,0.0,0.0,0.0,0.0,0.0,0.0,0.0,0.0,0.0,0.0,0.0,0.0,0.0,0.0,0.0,0.0,0.0,0.0,0.0,0.0,0.0,0.0,0.0,0.0,0.0,0.0,0.0,0.0,0.0,0.0,0.0,0.0,0.0,0.0,0.0,0.0,0.0,0.0,0.0,0.9088,0.9084,0.8999,0.8836,0.7629,0.6414,0.0,0.0,0.0,0.0,0.0,0.0,0.0,0.0,0.0,0.0,0.0,0.0,0.0,0.0,0.0,0.0,0.0,0.0,0.0,0.0,0.0,0.0,0.0,0.0,0.0,0.0,0.0,0.0,0.0,0.0,0.0,0.0,0.0,0.0,0.0,0.0,0.0,0.0,0.0,0.0,0.0,0.0,0.0,0.0,0.0,0.0,0.0,0.0,0.0,0.0,0.0,0.0,0.0,0.0,0.0,0.0,0.0,0.0,0.0,0.0,0.0,0.0,0.0,0.0,0.0,0.0,0.0,0.0,0.0,0.0,0.0,0.0,0.0,0.0,0.0,0.0,0.0,0.0,0.0,0.0,0.0,0.0,0.0,0.0,0.0,0.0,0.0,0.0,0.0,0.0,0.0,0.0,0.0,0.0,0.0,0.0,0.0,0.0,0.0,0.0,0.0,0.0,0.0,0.0,0.0,0.0,0.0,0.0,0.0,0.9076,0.8962,0.8934,0.8961,0.7709,0.6488,0.0,0.0,0.0,0.0,0.0,0.0,0.0,0.0,0.0,0.0,0.0,0.0,0.0,0.0,0.0,0.0,0.0,0.0,0.0,0.0,0.0,0.0,0.0,0.0,0.0,0.0,0.0,0.0,0.0,0.0,0.0,0.0,0.0,0.0,0.0,0.0,0.0,0.0,0.0,0.0,0.0,0.0,0.0,0.0,0.0,0.0,0.0,0.0,0.0,0.0,0.0,0.0,0.0,0.0,0.0,0.0,0.0,0.0,0.0,0.0,0.0,0.0,0.0,0.0,0.0,0.0,0.0,0.0,0.0,0.0,0.0,0.0,0.0,0.0,0.0,0.0,0.0,0.0,0.0,0.0,0.0,0.0,0.0,0.0,0.0,0.0,0.0,0.0,0.0,0.0,0.0,0.0,0.0,0.0,0.0,0.0,0.0,0.0,0.0,0.0,0.0,0.0,0.0,0.0,0.0,0.0,0.0,0.0,0.8889,0.9092,0.9068,0.9064,0.9092,0.808,0.6857,0.0,0.0,0.0,0.0,0.0,0.0,0.0,0.0,0.0,0.0,0.0,0.0,0.0,0.0,0.0,0.0,0.0,0.0,0.0,0.0,0.0,0.0,0.0,0.0,0.0,0.0,0.0,0.0,0.0,0.0,0.0,0.0,0.0,0.0,0.0,0.0,0.0,0.0,0.0,0.0,0.0,0.0,0.0,0.0,0.0,0.0,0.0,0.0,0.0,0.0,0.0,0.0,0.0,0.0,0.0,0.0,0.0,0.0,0.0,0.0,0.0,0.0,0.0,0.0,0.0,0.0,0.0,0.0,0.0,0.0,0.0,0.0,0.0,0.0,0.0,0.0,0.0,0.0,0.0,0.0,0.0,0.0,0.0,0.0,0.0,0.0,0.0,0.0,0.0,0.0,0.0,0.0,0.0,0.0,0.0,0.0,0.0,0.0,0.0,0.0,0.0,0.0,0.0,0.0,0.0,0.0,0.0,0.0,0.9088,0.9072,0.9286,0.9294,0.9064,0.858,0.7468,0.0,0.0,0.0,0.0,0.0,0.0,0.0,0.0,0.0,0.0,0.0,0.0,0.0,0.0,0.0,0.0,0.0,0.0,0.0,0.0,0.0,0.0,0.0,0.0,0.0,0.0,0.0,0.0,0.0,0.0,0.0,0.0,0.0,0.0,0.0,0.0,0.0,0.0,0.0,0.0,0.0,0.0,0.0,0.0,0.0,0.0,0.0,0.0,0.0,0.0,0.0,0.0,0.0,0.0,0.0,0.0,0.0,0.0,0.0,0.0,0.0,0.0,0.0,0.0,0.0,0.0,0.0,0.0,0.0,0.0,0.0,0.0,0.0,0.0,0.0,0.0,0.0,0.0,0.0,0.0,0.0,0.0,0.0,0.0,0.0,0.0,0.0,0.0,0.0,0.0,0.0,0.0,0.0,0.0,0.0,0.0,0.0,0.0,0.0,0.0,0.0,0.0,0.0,0.0,0.0,0.0,0.0,0.0,0.9023,0.8885,0.906,0.9064,0.8881,0.8641,0.7901,0.0,0.0,0.0,0.0,0.0,0.0,0.0,0.0,0.0,0.0,0.0,0.0,0.0,0.0,0.0,0.0,0.0,0.0,0.0,0.0,0.0,0.0,0.0,0.0,0.0,0.0,0.0,0.0,0.0,0.0,0.0,0.0,0.0,0.0,0.0,0.0,0.0,0.0,0.0,0.0,0.0,0.0,0.0,0.0,0.0,0.0,0.0,0.0,0.5455,0.0,0.0,0.0,0.0,0.0,0.0,0.0,0.0,0.0,0.0,0.0,0.0,0.0,0.0,0.0,0.0,0.0,0.0,0.0,0.0,0.0,0.0,0.0,0.0,0.0,0.0,0.0,0.0,0.0,0.0,0.0,0.0,0.0,0.0,0.0,0.0,0.0,0.0,0.0,0.0,0.0,0.0,0.0,0.0,0.0,0.0,0.0,0.0,0.0,0.0,0.0,0.0,0.0,0.0,0.0,0.0,0.0,0.0,0.0,0.8917,0.8779,0.8913,0.8922,0.882,0.8698,0.7868,0.0,0.0,0.0,0.0,0.0,0.0,0.0,0.0,0.0,0.0,0.0,0.0,0.0,0.0,0.0,0.0,0.0,0.0,0.0,0.0,0.0,0.0,0.0,0.0,0.0,0.0,0.0,0.0,0.0,0.0,0.0,0.0,0.0,0.0,0.0,0.0,0.0,0.0,0.0,0.0,0.0,0.0,0.0,0.0,0.0,0.0,0.0,0.0,0.0,0.0,0.0,0.0,0.0,0.0,0.0,0.0,0.0,0.0,0.0,0.0,0.0,0.0,0.0,0.0,0.0,0.0,0.0,0.0,0.0,0.0,0.0,0.0,0.0,0.0,0.0,0.0,0.0,0.0,0.0,0.0,0.0,0.0,0.0,0.0,0.0,0.0,0.0,0.0,0.0,0.0,0.0,0.0,0.0,0.0,0.0,0.0,0.0,0.0,0.0,0.0,0.0,0.0,0.0,0.0,0.0,0.0,0.0,0.8532,0.8779,0.8783,0.8808,0.8808,0.8779,0.8641,0.7696,0.5826,0.0,0.0,0.0,0.0,0.0,0.0,0.0,0.0,0.0,0.0,0.0,0.0,0.0,0.0,0.0,0.0,0.0,0.0,0.0,0.0,0.0,0.0,0.0,0.0,0.0,0.0,0.0,0.0,0.0,0.0,0.0,0.0,0.0,0.0,0.0,0.0,0.0,0.0,0.8836,0.9319,0.0,0.0,0.0,0.0,0.0,0.0,0.0,0.0,0.5849,0.0,0.0,0.0,0.0,0.0,0.0,0.0,0.0,0.0,0.0,0.0,0.0,0.0,0.0,0.0,0.0,0.0,0.0,0.0,0.0,0.0,0.0,0.0,0.0,0.0,0.0,0.0,0.0,0.0,0.0,0.0,0.0,0.0,0.0,0.0,0.0,0.0,0.0,0.0,0.0,0.0,0.0,0.0,0.0,0.0,0.0,0.0,0.0,0.0,0.0,0.0,0.0,0.0,0.0,0.0,0.0,0.8239,0.8487,0.8613,0.8657,0.8747,0.8751,0.8617,0.8624,0.7959,0.6657,0.0,0.0,0.0,0.0,0.0,0.0,0.0,0.0,0.0,0.0,0.0,0.0,0.0,0.0,0.0,0.0,0.0,0.0,0.0,0.0,0.0,0.0,0.0,0.0,0.0,0.0,0.0,0.0,0.0,0.0,0.0,0.0,0.0,0.0,0.0,0.0,0.0,0.0,0.0,0.9885,1.0244,0.0,0.0,0.0,0.0,0.0,0.0,0.0,0.0,0.6633,0.0,0.0,0.0,0.0,0.0,0.0,0.0,0.0,0.0,0.0,0.0,0.0,0.0,0.0,0.0,0.0,0.0,0.0,0.0,0.0,0.0,0.0,0.0,0.0,0.0,0.0,0.0,0.0,0.0,0.0,0.0,0.0,0.0,0.0,0.0,0.0,0.0,0.0,0.0,0.0,0.0,0.0,0.0,0.0,0.0,0.0,0.0,0.0,0.0,0.0,0.0,0.0,0.0,0.0,0.0,0.815,0.8426,0.8616,0.8616,0.8645,0.8649,0.8612,0.8475,0.8122,0.0,0.0,0.0,0.0,0.0,0.0,0.0,0.0,0.0,0.0,0.0,0.0,0.0,0.0,0.0,0.0,0.0,0.0,0.0,0.0,0.0,0.0,0.0,0.0,0.0,0.0,0.0,0.0,0.0,0.0,0.0,0.0,0.0,0.0,0.0,0.0,0.0,0.0,0.0,0.0,1.0123,1.0348,1.0588,0.0,0.0,0.0,0.0,0.0,0.0,0.7186,0.6791,0.0,0.0,0.0,0.0,0.0,0.0,0.0,0.0,0.0,0.0,0.0,0.0,0.0,0.0,0.0,0.0,0.0,0.0,0.0,0.0,0.0,0.0,0.0,0.0,0.0,0.0,0.0,0.0,0.0,0.0,0.0,0.0,0.0,0.0,0.0,0.0,0.0,0.0,0.0,0.0,0.0,0.0,0.0,0.0,0.0,0.0,0.0,0.0,0.0,0.0,0.0,0.0,0.0,0.0,0.0,0.8106,0.8593,0.879,0.8612,0.8616,0.8596,0.8551,0.8408,0.8187,0.0,0.0,0.0,0.0,0.0,0.0,0.0,0.0,0.0,0.0,0.0,0.0,0.0,0.0,0.0,0.0,0.0,0.0,0.0,0.0,0.0,0.0,0.0,0.0,0.0,0.0,0.0,0.0,0.0,0.0,0.0,0.0,0.0,0.0,0.0,0.0,0.0,0.0,0.0,0.0,0.0,1.0545,1.0664,1.0687,0.0,0.0,0.0,0.0,0.8689,0.7896,0.0,0.0,0.0,0.0,0.0,0.0,0.0,0.0,0.0,0.0,0.0,0.0,0.0,0.0,0.0,0.0,0.0,0.0,0.0,0.0,0.0,0.0,0.0,0.0,0.0,0.0,0.0,0.0,0.0,0.0,0.0,0.0,0.0,0.0,0.0,0.0,0.0,0.0,0.0,0.0,0.0,0.0,0.0,0.0,0.0,0.0,0.0,0.0,0.0,0.0,0.0,0.0,0.0,0.0,0.0,0.0,0.8353,0.9298,0.9463,0.8648,0.8612,0.8535,0.8329,0.83,0.8175,0.0,0.0,0.0,0.0,0.0,0.0,0.0,0.0,0.0,0.0,0.0,0.0,0.0,0.0,0.0,0.0,0.0,0.0,0.0,0.0,0.0,0.0,0.0,0.0,0.0,0.0,0.0,0.0,0.0,0.0,0.0,0.0,0.0,0.0,0.0,0.0,0.0,0.0,0.0,0.0,0.0,1.1033,1.0882,1.0858,1.0811,0.0,0.0,1.0251,0.8965,0.8571,0.0,0.0,0.0,0.0,0.0,0.0,0.0,0.0,0.0,0.0,0.0,0.0,0.0,0.0,0.0,0.0,0.0,0.0,0.0,0.0,0.0,0.0,0.0,0.0,0.0,0.0,0.0,0.0,0.0,0.0,0.0,0.0,0.0,0.0,0.0,0.0,0.0,0.0,0.0,0.0,0.0,0.0,0.0,0.0,0.0,0.0,0.0,0.0,0.0,0.0,0.0,0.0,0.0,0.0,0.0,1.0098,0.9806,1.0554,1.0444,0.9379,0.9345,0.8992,0.8339,0.8187,0.7967,0.0,0.0,0.0,0.0,0.0,0.0,0.0,0.0,0.0,0.0,0.0,0.0,0.0,0.0,0.0,0.0,0.0,0.0,0.0,0.0,0.0,0.0,0.0,0.0,0.0,0.0,0.0,0.0,0.0,0.0,0.0,0.0,0.0,0.0,0.0,0.0,0.0,0.0,0.0,0.0,0.0,0.0,1.1525,1.1451,0.0,0.0,0.0,1.0725,1.0216,0.0,0.0,0.0,0.0,0.0,0.0,0.0,0.0,0.0,0.0,0.0,0.0,0.0,0.0,0.0,0.0,0.0,0.0,0.0,0.0,0.0,0.0,0.0,0.0,0.0,0.0,0.0,0.0,0.0,0.0,0.0,0.0,0.0,0.0,0.0,0.0,0.0,0.0,0.0,0.0,0.0,0.0,0.0,0.0,0.0,0.0,0.0,0.0,0.0,0.0,0.0,0.0,0.0,0.0,0.0,0.0,0.0,1.1049,1.1719,1.1512,1.033,1.0244,0.9781,0.8906,0.8709,0.0,0.0,0.0,0.0,0.0,0.0,0.0,0.0,0.0,0.0,0.0,0.0,0.0,0.0,0.0,0.0,0.0,0.0,0.0,0.0,0.0,0.0,0.0,0.0,0.0,0.0,0.0,0.8608,0.0,0.0,0.0,0.0,0.0,0.0,0.0,0.0,0.0,0.0,0.0,0.0,0.0,0.0,1.2124,1.2085,1.1996,1.1791,0.0,0.0,1.1173,1.1204,0.9905,0.8538,0.0,0.0,0.0,0.0,0.0,0.0,0.0,0.0,0.0,0.0,0.0,0.0,0.0,0.0,0.0,0.0,0.0,0.0,0.0,0.0,0.0,0.0,0.0,0.0,0.0,0.0,0.0,0.0,0.0,0.0,0.0,0.0,0.0,0.0,0.0,0.0,0.0,0.0,0.0,0.0,0.0,0.0,0.0,0.0,0.0,0.0,0.0,0.0,0.0,0.0,0.0,0.0,0.0,0.0,0.0,1.1513,1.2535,1.2548,1.1424,1.1222,1.0879,1.0359,1.0366,0.9794,0.0,0.0,0.0,0.0,0.0,0.0,0.0,0.0,0.0,0.0,0.0,0.0,0.0,0.0,0.0,0.0,0.0,0.0,0.0,0.0,0.0,0.0,0.0,0.0,0.0,0.0,0.0,0.0,0.0,0.0,0.0,0.0,0.0,0.0,0.0,0.0,0.0,0.0,0.0,0.0,0.0,1.2393,1.2367,1.2603,1.2387,0.0,1.1648,1.177,1.1266,1.0493,0.9429,0.8045,0.0,0.0,0.0,0.0,0.0,0.0,0.0,0.0,0.0,0.0,0.0,0.0,0.0,0.0,0.0,0.0,0.0,0.0,0.0,0.0,0.0,0.0,0.0,0.0,0.0,0.0,0.0,0.0,0.0,0.0,0.0,0.0,0.0,0.0,0.0,0.0,0.0,0.0,0.0,0.0,0.0,0.0,0.0,0.0,0.0,0.0,0.0,0.0,0.0,0.0,0.0,0.0,0.0,1.268,1.2809,1.3423,1.3213,1.2109,1.1988,1.1541,1.0734,1.0684,1.0262,0.0,0.0,0.0,0.0,0.0,0.0,0.0,0.0,0.0,0.0,0.0,0.0,0.0,0.0,0.0,0.0,0.0,0.0,0.0,0.0,0.0,0.0,0.0,0.0,0.0,0.0,0.0,0.0,1.0562,1.0382,1.041,0.0,0.0,0.0,0.0,0.0,0.0,0.0,0.0,0.0,0.0,1.3089,1.3054,1.3182,0.0,0.0,1.2365,1.2424,1.2201,1.1429,1.0477,0.9252,0.8632,0.0,0.0,0.0,0.0,0.0,0.0,0.0,0.0,0.0,0.0,0.0,0.0,0.0,0.0,0.0,0.0,0.0,0.0,0.0,0.0,0.0,0.0,0.0,0.0,0.0,0.0,0.0,0.0,0.0,0.0,0.0,0.0,0.0,0.0,0.0,0.0,0.0,0.0,0.0,0.0,0.0,0.0,0.0,0.0,0.0,0.0,0.0,0.0,0.0,0.0,0.0,0.0,1.3251,1.3696,1.3964,1.3677,1.2876,1.2798,1.2389,1.1542,1.153,1.1112,0.0,0.0,0.0,0.0,0.0,0.0,0.0,0.0,0.0,0.0,0.0,0.0,0.0,0.0,0.0,0.0,0.0,0.0,0.0,0.0,0.0,0.0,0.0,0.0,0.0,0.0,0.0,0.0,1.1485,1.1179,1.0846,0.0,0.0,0.0,0.0,0.0,0.0,0.0,0.0,0.0,0.0,1.3658,1.3717,1.3727,1.3642,1.3314,1.3109,1.3007,1.2969,1.2325,1.1532,1.0617,0.0,0.0,0.0,0.0,0.0,0.0,0.0,0.0,0.0,0.0,0.0,0.0,0.0,0.0,0.0,0.0,0.0,0.0,0.0,0.0,0.0,0.0,0.0,0.0,0.0,0.0,0.0,1.5234,0.0,0.0,1.5569,0.0,0.0,0.0,0.0,0.0,0.0,0.0,0.0,0.0,0.0,0.0,0.0,0.0,0.0,0.0,0.0,0.0,0.0,0.0,0.0,0.0,0.0,1.3323,1.396,1.3975,1.3951,1.3951,1.3755,1.3492,1.3118,1.3134,1.2673,1.166,0.0,0.0,0.0,0.0,0.0,0.0,0.0,0.0,0.0,0.0,0.0,0.0,0.0,0.0,0.0,0.0,0.0,0.0,0.0,0.0,0.0,0.0,0.0,0.0,0.0,0.0,1.2071,1.1823,1.1503,0.0,0.0,0.0,0.0,0.0,0.0,0.0,0.0,0.0,0.0,1.4145,1.399,1.4262,1.4298,1.4268,1.4226,1.381,1.3454,1.3331,1.3012,1.2603,0.0,0.0,0.0,0.0,0.0,0.0,0.0,0.0,0.0,0.0,0.0,0.0,0.0,0.0,0.0,0.0,0.0,0.0,0.0,0.0,0.0,0.0,0.0,0.0,0.0,0.0,0.0,1.7985,1.7497,0.0,0.0,0.0,0.0,0.0,0.0,0.0,0.0,0.0,0.0,0.0,1.7073,1.8115,0.0,0.0,0.0,0.0,0.0,0.0,0.0,0.0,0.0,0.0,0.0,0.0,1.3119,1.3331,1.3543,1.366,1.366,1.3616,1.3528,1.339,1.339,1.2827,1.1598,0.0,0.0,0.0,0.0,0.0,0.0,0.0,0.0,0.0,0.0,0.0,0.0,0.0,0.0,0.0,0.0,0.0,0.0,0.0,0.0,0.0,0.0,0.0,0.0,0.0,1.2998,0.0,0.0,0.0,0.0,0.0,0.0,0.0,0.0,0.0,0.0,0.0,1.6015,1.6504,1.5741,1.5279,1.5515,1.4854,1.4304,0.0,0.0,0.0,0.0,0.0,0.0,0.0,0.0,0.0,0.0,0.0,0.0,0.0,0.0,1.2464,1.081,1.0126,0.9835,0.9855,0.0,0.0,0.0,0.0,0.0,0.0,0.0,0.0,0.0,0.0,0.0,0.0,0.0,0.0,1.9656,1.9046,1.889,0.0,0.0,0.0,0.0,0.0,0.0,0.0,0.0,1.8974,1.8991,1.8314,1.9308,1.9355,0.0,1.8631,1.7905,0.0,0.0,0.0,0.0,0.0,0.0,0.0,0.0,1.3177,1.3184,1.3389,1.3492,1.3492,1.3492,1.3492,1.3492,1.3492,1.3057,1.2075,1.1574,1.1035,0.0,0.0,0.0,0.0,0.0,0.0,0.0,0.0,0.0,0.0,0.0,0.0,0.0,0.0,0.0,0.0,0.0,0.0,0.0,0.0,0.0,0.0,0.0,1.4049,0.0,0.0,0.0,0.0,0.0,0.0,0.0,0.0,0.0,1.6219,1.6824,1.7492,1.7887,1.7167,1.6501,1.6317,0.0,0.0,0.0,0.0,0.0,0.0,0.0,1.4052,1.3366,1.327,1.2898,1.1753,1.2353,1.2869,1.2484,0.0,0.0,1.2097,1.1471,1.1187,1.1141,1.0039,0.9035,0.8684,0.7797,0.7015,0.0,0.0,0.0,0.0,0.0,0.0,0.0,0.0,2.1693,2.1168,0.0,1.9578,0.0,0.0,0.0,0.0,0.0,1.9699,0.0,0.0,2.0361,2.0605,2.0557,2.0596,2.083,2.1151,2.0791,2.0215,1.9383,1.7911,0.0,0.0,0.0,0.0,0.0,0.0,1.3543,1.3484,1.3492,1.3492,1.3492,1.3492,1.3492,1.3492,1.3492,1.3338,1.2988,1.2375,1.175,1.1101,1.0441,0.0,0.0,0.0,0.0,0.0,0.0,0.0,0.0,0.0,0.0,0.0,0.0,0.0,0.0,0.0,0.0,0.0,0.0,0.0,0.0,1.4657,0.0,0.0,0.0,0.0,0.0,0.0,0.0,0.0,0.0,0.0,1.7909,1.7791,1.7971,1.8657,0.0,0.0,0.0,0.0,1.6224,1.5315,1.4933,1.4736,1.4736,1.449,1.4346,1.428,0.0,0.0,1.2598,1.298,1.3207,1.2175,1.2894,1.3676,1.4153,1.3237,1.2491,1.2328,1.1066,0.9807,0.9063,0.8392,0.7684,2.539,0.0,0.0,0.0,0.0,2.3539,2.3209,2.2934,2.2471,2.2262,2.2121,2.1118,0.0,0.0,0.0,0.0,0.0,0.0,2.0419,2.0391,2.0546,2.0615,2.0625,2.1211,2.1416,2.121,2.1719,2.1673,2.1168,2.0716,1.8971,1.6009,0.0,0.0,0.0,0.0,1.4382,1.3543,1.3492,1.3492,1.3492,1.3492,1.3492,1.3492,1.3492,1.3338,1.3023,1.2931,1.2735,1.2294,1.1996,0.0,0.0,0.0,0.0,0.0,0.0,0.0,0.0,0.0,0.0,0.0,0.0,0.0,0.0,0.0,0.0,0.0,0.0,0.0,1.5393,1.571,1.611,0.0,0.0,0.0,0.0,0.0,0.0,0.0,0.0,0.0,2.0136,2.0316,2.0588,0.0,0.0,1.9247,1.8964,1.8172,1.725,1.6217,1.6035,0.0,1.5077,1.4933,1.4775,1.4575,1.4387,1.408,1.3726,1.3835,1.3882,1.3553,1.3791,1.4074,1.4153,1.3682,1.321,1.3083,1.2097,1.1136,1.0702,0.9344,0.7983,2.6804,2.5908,2.4699,2.4368,2.4575,2.4312,2.404,2.3857,2.3515,2.3351,2.3268,2.2321,2.1765,2.1443,2.0125,0.0,0.0,0.0,2.0731,2.0731,2.0731,2.077,2.0848,2.1282,2.1489,2.145,2.2004,2.2211,2.2122,2.1986,2.0692,1.8332,0.0,0.0,1.5223,1.551,1.5347,1.4633,1.431,1.4137,1.4065,1.3746,1.3704,1.3933,1.3813,1.3649,1.3456,1.3547,1.3467,1.315,1.3047,1.2877,0.0,0.0,0.0,0.0,0.0,0.0,0.0,0.0,0.0,0.0,0.0,1.4093,1.4264,0.0,0.0,0.0,1.521,1.5642,1.6464,1.6732,0.0,0.0,0.0,0.0,0.0,0.0,0.0,2.108,2.1255,2.1312,2.1365,2.1575,2.1687,2.1687,2.1096,2.0492,2.0121,0.0,1.8534,1.7569,1.6969,1.6418,1.5765,1.5241,1.4775,1.4496,1.4217,1.4034,1.4027,1.3945,1.3869,1.3869,1.3913,1.3862,1.3862,1.3642,1.3465,1.3459,1.2797,1.2086,1.1396,0.9993,0.8792,2.7898,2.7582,2.5852,2.5082,2.503,2.5024,2.4713,2.4296,2.4708,2.448,2.3765,2.3279,2.2649,2.1811,2.0695,0.0,2.2551,2.1482,2.1012,2.1022,2.0945,2.1012,2.1215,2.1052,2.1242,2.1779,2.1899,2.2151,2.2502,2.2191,2.1757,2.1265,1.9976,1.8267,1.6334,1.6368,1.6421,1.6351,1.563,1.5204,1.5051,1.4392,1.43,1.477,1.4475,1.4341,1.4266,1.4302,1.4134,1.3777,1.3735,1.3536,1.3041,0.0,0.0,0.0,0.0,0.0,0.0,0.0,0.0,0.0,0.0,0.0,0.0,0.0,0.0,0.0,1.6317,0.0,1.7622,1.7757,0.0,0.0,0.0,1.9687,1.9989,2.0686,2.1126,2.1154,0.0,0.0,2.1731,2.1741,2.1687,2.1741,2.1687,2.1365,2.0529,2.043,2.0022,1.9018,1.7925,1.7025,1.668,1.562,1.4669,1.434,1.4008,1.3873,1.3854,1.3681,1.3502,1.3521,1.3447,1.3453,1.3489,1.3521,1.3421,1.3389,1.322,1.2644,1.1352,1.0608,0.9817,2.8205,2.8079,2.7222,2.6923,2.6954,2.6134,2.5718,2.5574,2.5055,2.5064,2.5421,2.4403,2.3454,2.2686,2.2519,2.2475,2.2597,2.2227,2.2031,2.1993,2.1425,2.1138,2.1225,2.1469,2.1669,2.1839,2.2171,2.2593,2.3016,2.2915,2.2695,2.2261,2.1669,2.0225,1.8062,1.7754,1.7356,1.6687,1.6254,1.6166,1.6489,1.6327,1.6297,1.642,1.637,1.6144,1.5789,1.5904,1.5729,1.5091,1.5145,1.5019,1.4639,1.3785,0.0,0.0,0.0,0.0,0.0,0.0,0.0,0.0,0.0,1.5201,1.5487,0.0,1.5972,0.0,1.7817,1.8306,1.8483,1.9017,0.0,0.0,2.0641,2.0823,2.1229,2.119,2.1227,2.1504,2.1348,2.1418,2.1971,2.183,2.1785,2.1963,2.183,2.1597,2.141,2.1365,2.1042,2.0079,1.9364,1.8726,1.7792,1.6492,1.526,1.4548,1.4203,1.4018,1.4025,1.4014,1.3913,1.3913,1.3913,1.3962,1.3913,1.3913,1.3741,1.3344,1.3097,1.2855,1.2215,1.1376,1.0612,2.8753,2.86,2.8098,2.7885,2.7876,2.6964,2.6469,2.6178,2.5716,2.567,2.5805,2.4843,2.4524,2.4563,2.3737,2.3529,2.3822,2.3283,2.301,2.2984,2.222,2.1901,2.1997,2.1757,2.1713,2.1812,2.2259,2.2645,2.289,2.3083,2.2961,2.2563,2.2377,2.1531,2.0058,1.9229,1.8701,1.8411,1.7446,1.702,1.7162,1.7144,1.7144,1.7189,1.7424,1.7207,1.6603,1.6843,1.65,1.5436,1.5598,1.5618,1.5299,1.4818,1.4859,0.0,0.0,0.0,0.0,0.0,0.0,0.0,0.0,0.0,0.0,0.0,1.7128,1.8057,1.8838,1.9448,1.9792,2.0194,2.0662,2.1319,2.1392,2.141,2.1456,2.1202,2.1126,2.1181,2.1075,2.117,2.1752,2.1624,2.1631,2.193,2.1668,2.1447,2.1445,2.1362,2.1051,2.0456,1.9931,1.9115,1.7922,1.6881,1.5903,1.5149,1.5106,1.5026,1.425,1.4412,1.458,1.4215,1.4088,1.4088,1.4088,1.4088,1.3895,1.3373,1.3133,1.2875,1.2383,1.1849,1.1337,2.9484,2.9264,2.8742,2.8507,2.8431,2.7751,2.7139,2.653,2.6469,2.614,2.5606,2.5075,2.5529,2.6454,2.469,2.447,2.5488,2.4472,2.4011,2.3927,2.3243,2.2957,2.3102,2.2241,2.1911,2.2111,2.2405,2.2585,2.2658,2.2984,2.2925,2.2594,2.2522,2.2325,2.1932,2.0617,2.0069,2.0292,1.87,1.7839,1.7709,1.7719,1.7711,1.782,1.8293,1.8161,1.7338,1.764,1.7183,1.5789,1.607,1.6184,1.5918,1.6104,1.6559,0.0,1.7486,0.0,0.0,0.0,0.0,0.0,0.0,0.0,0.0,1.8872,1.8665,1.9141,1.9725,2.042,2.1182,2.1197,2.1328,2.1765,2.173,2.1467,2.1154,2.1025,2.0885,2.0549,2.0676,2.0964,2.1433,2.1292,2.1329,2.1655,2.1419,2.1076,2.1065,2.0977,2.0829,2.0605,1.9951,1.9066,1.7736,1.707,1.6591,1.5891,1.6098,1.6124,1.4741,1.5068,1.5269,1.4538,1.4334,1.4257,1.413,1.4088,1.3901,1.3394,1.3227,1.2961,1.23,1.2067,1.1796,3.0594,3.0519,2.9795,2.9513,2.95,2.9131,2.8347,2.7262,2.6821,2.6343,2.584,2.5711,2.5819,2.6045,2.5807,2.5854,2.601,2.5348,2.5016,2.4969,2.4192,2.3866,2.3866,2.372,2.3647,2.361,2.3141,2.3091,2.347,2.2927,2.277,2.3039,2.2687,2.2635,2.2832,0.0,0.0,0.0,1.9209,1.9012,1.9357,1.9641,1.9824,1.9834,2.0295,0.0,1.9306,1.9616,1.9288,1.8164,1.8691,0.0,0.0,0.0,0.0,0.0,0.0,0.0,0.0,0.0,0.0,0.0,2.0651,2.0636,2.0477,2.1007,2.1301,2.1116,2.1262,2.1528,2.1945,2.1727,2.1871,2.2467,2.178,2.12,2.1089,2.0708,2.0467,2.0727,2.0673,2.0892,2.1406,2.1332,2.1281,2.1453,2.1047,2.0737,2.0712,2.0897,2.1066,2.1034,2.0393,1.9543,1.8273,1.7919,1.7504,1.6731,1.6527,1.6576,1.6247,1.6288,1.6173,1.5352,1.5151,1.4908,1.4292,1.4088,1.3975,1.358,1.3333,1.2987,1.2364,1.224,1.2223,3.1267,3.0895,3.0921,3.0508,0.0,3.0037,2.9555,2.8612,2.7916,2.7223,2.6574,2.63,2.6211,2.6223,2.6292,2.6339,2.6339,2.6025,2.5886,2.5851,2.5087,2.4707,2.4671,2.4264,2.412,2.4084,2.3731,2.3682,2.3869,2.3124,2.2881,2.3087,2.2686,2.2615,2.2811,2.1921,2.0897,1.9803,1.9564,1.945,1.9471,1.9872,2.01,2.011,2.0762,0.0,0.0,0.0,0.0,0.0,0.0,0.0,0.0,0.0,0.0,2.0519,2.0273,2.016,2.0436,2.0767,2.123,2.1866,2.259,2.2656,2.1778,2.2615,2.293,2.2448,2.2615,2.2809,2.2951,2.2814,2.2766,2.2928,2.2598,2.2211,2.1814,2.1628,2.1551,2.1491,2.1273,2.1243,2.1738,2.1257,2.1065,2.125,2.0931,2.0621,2.0591,2.0694,2.0757,2.0707,2.0344,1.982,1.925,1.9006,1.8607,1.7917,1.7997,1.7868,1.7139,1.7342,1.7342,1.6527,1.5918,1.5387,1.4985,1.4489,1.4001,1.3673,1.3487,1.3187,1.2659,1.2405,1.2305,3.1892,3.1365,3.1892,3.1355,3.0254,3.0833,3.0696,2.9922,0.0,0.0,0.0,2.6839,2.6587,2.6487,2.6487,2.6487,2.6487,2.6487,2.6487,2.6452,2.5816,2.5523,2.5488,2.485,2.4516,2.4516,2.4373,2.4301,2.4276,2.3559,2.3213,2.3172,2.2796,2.2533,2.2346,2.2004,2.1166,1.9979,1.9834,1.9564,1.9129,1.9554,1.9793,1.9793,2.0638,2.0897,2.0416,2.0948,2.0626,1.9359,1.9791,2.0022,2.0042,2.0585,2.1298,2.2134,2.2515,2.2703,2.2777,2.2927,2.3034,2.3121,2.4039,2.4223,2.3281,2.3861,2.4013,2.352,2.3675,2.3877,2.4049,2.3963,2.3791,2.3533,2.3639,2.3359,2.2631,2.2713,2.2618,2.2365,2.2004,2.189,2.2203,2.161,2.1073,2.1204,2.1085,2.0722,2.0605,2.0508,2.0429,2.041,2.0214,2.0,1.9951,1.9863,1.9618,1.8966,1.9381,1.9332,1.831,1.8359,1.8439,1.7626,1.6764,1.6191,1.5786,1.5054,1.433,1.3891,1.3702,1.3501,1.3056,1.2658,1.2355,3.2981,3.2812,3.2326,3.1978,3.1783,3.1905,3.1452,3.0644,2.9403,2.8261,2.7316,2.7228,2.6939,2.6487,2.6487,2.6487,2.6487,2.6487,2.6487,2.6487,2.6396,2.6349,2.6314,2.6233,2.6164,2.6129,2.5488,2.5123,2.5052,2.4348,2.3938,2.3877,2.3268,2.2584,2.1939,2.1838,2.1321,2.0312,1.999,1.9575,1.9119,1.9554,1.9793,1.9834,2.0627,2.0907,2.0416,2.1248,2.1503,2.1068,2.1501,2.1826,2.1987,2.2066,2.2291,2.259,2.2676,2.2777,2.2927,2.3001,2.3187,2.3585,2.453,2.5043,2.4908,2.4827,2.4756,2.4628,2.419,2.4231,2.5062,2.4755,2.4577,2.4865,2.4253,2.3475,2.2935,2.2821,2.2762,2.2675,2.2713,2.2782,2.2832,2.2703,2.2306,2.1887,2.1675,2.1385,2.0828,2.0566,2.0566,2.0527,2.0372,2.0264,2.0225,2.0029,1.9863,1.9736,1.9824,1.9854,1.949,1.9539,1.9371,1.8598,1.8189,1.7577,1.6404,1.5876,1.5391,1.4774,1.4252,1.3815,1.3648,1.3065,1.2509,3.3604,3.3227,3.3311,3.2889,3.2123,3.2123,3.1892,3.1462,3.0448,2.9299,2.8185,2.7858,2.7595,2.7356,2.7356,2.7228,2.6939,2.6939,2.6788,2.6499,2.6487,2.6487,2.6487,2.6487,2.6487,2.6452,2.6129,2.5955,2.5886,2.5146,2.4755,2.4707,2.3998,2.3228,2.2515,2.244,2.1876,2.0814,2.0348,1.9779,1.9139,1.9305,1.9533,1.9793,2.0298,2.0631,2.0938,2.1466,2.1818,2.1924,2.2248,2.2402,2.2402,2.2628,2.274,2.2703,2.2815,2.2889,2.3001,2.3252,2.3722,2.4454,2.4912,2.5406,2.5894,2.5617,2.5538,2.5726,2.5206,2.517,2.5887,2.5462,2.511,2.5132,2.4812,2.4487,2.4048,2.4025,2.4084,2.4036,2.3781,2.361,2.361,2.3254,2.292,2.2499,2.2435,2.2134,2.1385,2.1242,2.1088,2.0683,2.0527,2.045,2.045,2.0372,2.0294,2.0294,2.0294,2.0284,2.0294,2.0294,2.0098,1.9726,1.9234,1.8559,1.7658,1.7098,1.6404,1.5625,1.5076,1.4652,1.3967,1.3251,1.2714,3.4045,3.3541,3.4147,3.3722,3.2627,3.2412,3.2326,3.2254,3.1513,3.0474,2.9352,2.8598,2.8222,2.8109,2.8109,2.7871,2.7494,2.7331,2.709,2.67,2.6549,2.6487,2.6487,2.6487,2.6487,2.6487,2.6487,2.6487,2.6418,2.5886,2.5453,2.5276,2.4671,2.3975,2.3276,2.3239,2.2713,2.169,2.1149,2.0387,1.9328,1.9193,1.9341,1.9719,1.9968,2.0467,2.1271,2.1564,2.195,2.2435,2.252,2.2515,2.2392,2.2555,2.2611,2.2501,2.2611,2.2783,2.3012,2.3449,2.4148,2.5128,2.5314,2.5686,2.6348,2.6207,2.6218,2.6524,2.6183,2.6103,2.6393,2.6081,2.5589,2.5254,2.5444,2.5367,2.5016,2.5135,2.5312,2.5241,2.4743,2.4373,2.4264,2.3866,2.35,2.3316,2.3143,2.2734,2.2209,2.2059,2.1728,2.1088,2.0712,2.0605,2.0615,2.0576,2.0566,2.0615,2.0566,2.0566,2.0566,2.0566,2.0566,2.044,1.9923,1.9323,1.9036,1.8399,1.7463,1.6555,1.5871,1.5153,1.3877,1.3304,1.2877,3.4346,3.4298,3.438,3.4346,3.4045,3.3416,3.3122,3.3003,3.229,3.1499,3.0651,2.9377,2.8586,2.8147,2.8147,2.8122,2.7996,2.7507,2.7304,2.7165,2.6725,2.6487,2.6487,2.6487,2.6487,2.6487,2.6487,2.6487,2.6487,2.6383,2.6025,2.5382,2.5241,2.4779,2.4084,2.4,2.3735,2.3291,2.2726,2.1604,2.0023,1.9504,1.9405,1.9603,2.0071,2.0517,2.1037,2.1477,2.2013,2.2579,2.2271,2.2129,2.2263,2.1928,2.1734,2.1745,2.1756,2.2073,2.2925,2.3411,2.4192,2.5065,2.562,2.6027,2.6475,2.6475,2.6652,2.6919,2.6623,2.6523,2.6917,2.6502,2.6075,2.585,2.59,2.5817,2.5361,2.5276,2.5312,2.5312,2.517,2.517,2.5087,2.4981,2.4719,2.4084,2.361,2.3169,2.2947,2.2872,2.2574,2.1794,2.1126,2.0712,2.0644,2.0615,2.0615,2.0615,2.0615,2.0615,2.0615,2.0615,2.0615,2.0566,2.0518,2.0089,1.9569,1.9076,1.8682,1.7429,1.6397,1.524,1.3762,1.3287,1.3156,3.438,3.438,3.438,3.438,3.4346,3.4045,3.3914,3.3859,3.3101,3.2577,3.2177,3.1236,3.0154,2.9139,2.9101,2.8913,2.8586,2.8311,2.7883,2.7306,2.7065,2.6813,2.6512,2.6487,2.6487,2.6487,2.6487,2.6487,2.6487,2.6487,2.6314,2.606,2.6025,2.5581,2.485,2.4814,2.4554,2.4047,2.3534,2.281,2.1936,2.0616,1.9792,1.9658,1.9907,2.0284,2.0735,2.1075,2.1493,2.1998,2.1857,2.1794,2.1887,2.1701,2.1603,2.1625,2.2127,2.2717,2.3394,2.4148,2.488,2.5557,2.6014,2.6456,2.6887,2.6881,2.7017,2.7328,2.68,2.6417,2.6441,2.6016,2.5684,2.5637,2.5624,2.554,2.5348,2.5312,2.5312,2.5312,2.5312,2.5312,2.5312,2.5312,2.5158,2.4862,2.4504,2.4168,2.3756,2.3647,2.3198,2.2328,2.1996,2.1565,2.0867,2.0615,2.0605,2.0605,2.0615,2.0615,2.0615,2.0615,2.0615,2.0615,2.0615,2.0489,2.0177,1.9982,1.9683,1.833,1.6901,1.5552,1.4279,1.4049,1.3833,3.438,3.438,3.438,3.438,3.438,3.438,3.438,3.4346,3.3791,3.3416,3.3157,3.2613,3.1686,3.0508,3.0216,2.9859,2.9441,2.9063,2.8511,2.7745,2.7444,2.7102,2.6738,2.6549,2.6487,2.6487,2.6487,2.6487,2.6487,2.6487,2.6487,2.6487,2.6521,2.628,2.5769,2.5734,2.5546,2.5158,2.4766,2.4406,2.3807,2.2332,2.1006,2.0151,1.9966,2.016,2.067,2.0827,2.1113,2.1559,2.1496,2.143,2.1385,2.1265,2.1199,2.1275,2.2095,2.2881,2.3493,2.455,2.5444,2.6016,2.6445,2.683,2.7065,2.7123,2.7147,2.7122,2.6647,2.6205,2.6068,2.5624,2.5336,2.5312,2.5312,2.5312,2.5312,2.5312,2.5312,2.5312,2.5312,2.5312,2.5312,2.5312,2.5276,2.5241,2.5241,2.5158,2.4588,2.4373,2.4002,2.2871,2.3055,2.2483,2.1018,2.0875,2.0847,2.0605,2.0615,2.0615,2.0615,2.0615,2.0615,2.0615,2.0615,2.0576,2.045,2.0421,2.0072,1.873,1.7382,1.6122,1.5059,1.4824,1.4394,3.438,3.438,3.438,3.438,3.438,3.438,3.438,3.438,3.4346,3.3914,3.3297,3.3192,3.272,3.1978,3.1267,3.0844,3.0628,2.9541,2.89,2.8662,2.7795,2.7281,2.7253,2.6751,2.6499,2.6499,2.6487,2.6487,2.6487,2.6487,2.6487,2.6487,2.6624,2.6645,2.6577,2.6692,2.6875,2.6717,2.6664,2.63,2.5347,2.4682,2.3254,2.1321,2.0453,2.0424,2.0829,2.0917,2.1125,2.1618,2.1214,2.0994,2.0928,2.0511,2.0336,2.038,2.1222,2.2163,2.3119,2.4437,2.5547,2.6349,2.6853,2.7129,2.7104,2.705,2.6795,2.6261,2.6177,2.6057,2.6009,2.5588,2.5324,2.5312,2.5312,2.5312,2.5312,2.5312,2.5312,2.5312,2.5312,2.5312,2.5312,2.5312,2.5312,2.5312,2.5312,2.5241,2.5206,2.5158,2.4708,2.4087,2.3761,2.3264,2.1329,2.1291,2.1375,2.1049,2.0867,2.0644,2.0605,2.0615,2.0615,2.0615,2.0615,2.0615,2.0615,2.0294,1.9716,1.8751,1.7747,1.6632,1.5824,1.5108,1.4716,3.438,3.438,3.438,3.438,3.438,3.438,3.438,3.438,3.438,3.4264,3.3997,3.3962,3.3825,3.3534,3.272,3.1842,3.0906,3.0387,2.9718,2.895,2.8474,2.7971,2.7293,2.7102,2.6826,2.6524,2.6487,2.6487,2.6487,2.6487,2.6487,2.6521,2.6611,2.6692,2.6726,2.6909,2.7045,2.7193,2.7182,2.6862,2.6217,2.5619,2.467,2.3489,2.2104,2.1489,2.1675,2.1675,2.1737,2.1922,2.1737,2.1675,2.1632,2.1469,2.1305,2.1326,2.2409,2.3383,2.3973,2.5194,2.6258,2.6837,2.7025,2.7123,2.7038,2.67,2.6342,2.6093,2.5757,2.5612,2.5576,2.5408,2.5312,2.5312,2.5312,2.5312,2.5312,2.5312,2.5312,2.5312,2.5312,2.5312,2.5312,2.5312,2.5312,2.5312,2.5312,2.5312,2.5312,2.5312,2.5111,2.4874,2.4803,2.4599,2.3965,2.2846,2.2349,2.1728,2.1357,2.1049,2.0934,2.0828,2.0828,2.0789,2.0722,2.0605,2.0604,2.001,1.9398,1.8802,1.7824,1.7257,1.662,1.6018,1.5666,3.438,3.438,3.438,3.438,3.438,3.438,3.438,3.438,3.438,3.438,3.438,3.438,3.438,3.4312,3.3811,3.2897,3.1659,3.113,3.0387,2.9541,2.9114,2.8399,2.7645,2.7369,2.7027,2.6562,2.6555,2.6555,2.6568,2.6568,2.6602,2.6671,2.6773,2.6829,2.6897,2.7066,2.7235,2.7361,2.7538,2.7436,2.6961,2.6528,2.6028,2.5307,2.401,2.307,2.2681,2.265,2.2566,2.2433,2.2397,2.2294,2.2137,2.2101,2.2226,2.2552,2.3677,2.4599,2.5123,2.6348,2.7134,2.7146,2.723,2.7183,2.6818,2.6354,2.6045,2.5817,2.5552,2.5312,2.5312,2.5312,2.5312,2.5312,2.5312,2.5312,2.5312,2.5312,2.5312,2.5312,2.5312,2.5312,2.5312,2.5312,2.5312,2.5312,2.5312,2.5312,2.5312,2.5312,2.5312,2.5312,2.5312,2.5266,2.4897,2.4238,2.3279,2.2611,2.2172,2.1794,2.1499,2.1318,2.1165,2.1049,2.0904,2.0749,2.0348,1.9734,1.9199,1.8676,1.8191,1.7642,1.726,1.7001,1.6585,3.4414,3.4414,3.438,3.4414,3.4414,3.4448,3.4414,3.4414,3.438,3.438,3.438,3.438,3.438,3.438,3.4298,3.3894,3.3003,3.1769,3.0981,3.0628,2.9592,2.8761,2.8146,2.7595,2.7077,2.6559,2.6658,2.6726,2.6692,2.6726,2.6807,2.6943,2.699,2.7079,2.7281,2.7369,2.7456,2.7581,2.7934,2.796,2.7555,2.7358,2.7097,2.6622,2.6024,2.5199,2.4009,2.3871,2.3632,2.3215,2.3135,2.2773,2.2516,2.248,2.2761,2.3857,2.4805,2.566,2.6415,2.7567,2.7834,2.7376,2.7412,2.7088,2.638,2.6081,2.5841,2.548,2.536,2.5312,2.5312,2.5312,2.5312,2.5312,2.5312,2.5312,2.5312,2.5312,2.5312,2.5312,2.5312,2.5312,2.5312,2.5312,2.5312,2.5312,2.5312,2.5312,2.5312,2.5312,2.5312,2.5359,2.5394,2.5431,2.5454,2.5312,2.4384,2.3585,2.3169,2.2798,2.2537,2.2322,2.2096,2.1935,2.1467,2.1234,2.008,1.9524,1.9059,1.8574,1.8262,1.7974,1.7725,1.7432,1.7182,3.4597,3.4631,3.4716,3.4683,3.4631,3.4597,3.4597,3.4597,3.4448,3.4414,3.438,3.438,3.438,3.4414,3.438,3.4264,3.3928,3.2932,3.1938,3.0992,3.0451,2.9753,2.8884,2.817,2.744,2.6797,2.6841,2.6909,2.6922,2.6909,2.6943,2.7011,2.7146,2.7248,2.7302,2.7436,2.7503,2.7516,2.7693,2.7693,2.7503,2.7503,2.7398,2.7314,2.7458,2.7374,2.696,2.5799,2.5135,2.4937,2.4931,2.4854,2.4721,2.5033,2.5362,2.5685,2.6706,2.7308,2.7385,2.7845,2.8064,2.7515,2.6976,2.649,2.6117,2.5793,2.5552,2.5347,2.5312,2.5312,2.5312,2.5312,2.5312,2.5312,2.5312,2.5312,2.5312,2.5312,2.5312,2.5312,2.5312,2.5312,2.5312,2.5312,2.5312,2.5312,2.5312,2.5312,2.5312,2.5312,2.5312,2.5312,2.543,2.5607,2.5761,2.5702,2.5087,2.442,2.4047,2.372,2.3475,2.3327,2.3095,2.2744,2.2253,2.1455,2.0252,1.9508,1.9187,1.8571,1.8184,1.8042,1.7974,1.7794,1.7545,3.4731,3.4783,3.4868,3.4835,3.4783,3.4783,3.475,3.475,3.4635,3.4568,3.4515,3.4582,3.4534,3.4515,3.4549,3.4549,3.4481,3.4031,3.3143,3.1878,3.1193,3.0557,2.9656,2.8751,2.8048,2.7542,2.7421,2.7421,2.7408,2.7216,2.7146,2.7201,2.7281,2.7335,2.7369,2.7436,2.7503,2.7503,2.7503,2.7503,2.7503,2.7503,2.7503,2.7568,2.8072,2.8394,2.8328,2.7314,2.6674,2.638,2.6054,2.5897,2.6138,2.6523,2.7019,2.7709,2.8331,2.8823,2.868,2.8824,2.8413,2.7787,2.7122,2.6646,2.6448,2.6079,2.5943,2.5931,2.5769,2.5616,2.5629,2.537,2.5312,2.5312,2.5312,2.5312,2.5312,2.5312,2.5312,2.5312,2.5312,2.5312,2.5312,2.5312,2.5312,2.5312,2.5312,2.5312,2.5312,2.5312,2.5312,2.5347,2.5535,2.5796,2.613,2.5963,2.57,2.5276,2.4898,2.4564,2.4276,2.424,2.4095,2.3624,2.3113,2.2335,2.1225,2.0379,1.9842,1.9071,1.8347,1.811,1.8076,1.8008,1.7828,3.4783,3.4902,3.4935,3.4935,3.4935,3.4935,3.4935,3.4902,3.4868,3.4817,3.475,3.4802,3.4802,3.4765,3.4802,3.4769,3.4716,3.4735,3.4337,3.3332,3.2263,3.1292,3.061,2.9718,2.9119,2.8686,2.8373,2.814,2.7993,2.7548,2.7356,2.7436,2.7369,2.7369,2.7456,2.7503,2.7503,2.7503,2.7503,2.7503,2.7503,2.7503,2.7503,2.7516,2.8072,2.842,2.8381,2.8224,2.7954,2.7425,2.6485,2.6334,2.6751,2.6985,2.7908,2.9232,2.9763,2.9799,2.9971,2.9652,2.9132,2.793,2.7599,2.7549,2.6977,2.682,2.6769,2.6756,2.6393,2.6129,2.6013,2.5616,2.5347,2.5312,2.5312,2.5312,2.5312,2.5312,2.5312,2.5312,2.5312,2.5312,2.5312,2.5312,2.5312,2.5312,2.5312,2.5312,2.5312,2.5312,2.5312,2.5382,2.5535,2.5832,2.6153,2.5974,2.5723,2.5723,2.5382,2.5087,2.4945,2.4945,2.4826,2.4361,2.3948,2.31,2.2195,2.1255,2.0392,1.9605,1.8965,1.8438,1.8178,1.8168,1.8042,3.5082,3.5148,3.5294,3.5261,3.5148,3.5115,3.5115,3.51,3.4968,3.4916,3.4868,3.4887,3.4902,3.485,3.4902,3.4868,3.4868,3.4902,3.4935,3.4654,3.3817,3.2605,3.1799,3.1447,3.0779,2.9867,2.9346,2.8824,2.8299,2.7756,2.7482,2.7503,2.7469,2.7436,2.7503,2.7503,2.7503,2.7503,2.7503,2.7503,2.7503,2.7503,2.7503,2.7555,2.8085,2.8394,2.842,2.842,2.8111,2.7542,2.7242,2.7419,2.8012,2.8172,2.8669,2.9563,2.9915,2.9824,2.9512,2.9265,2.8662,2.7897,2.7548,2.7126,2.7045,2.7007,2.7007,2.6905,2.653,2.622,2.6129,2.5699,2.5382,2.5312,2.5312,2.5312,2.5312,2.5312,2.5312,2.5312,2.5312,2.5312,2.5312,2.5312,2.5312,2.5312,2.5312,2.5312,2.5312,2.5312,2.5312,2.53,2.543,2.5832,2.6021,2.5842,2.5805,2.598,2.5758,2.5418,2.5347,2.5394,2.5241,2.4933,2.4767,2.4119,2.2891,2.1812,2.1008,2.0369,1.9606,1.9077,1.8654,1.8496,1.8202,3.5261,3.5326,3.5472,3.5439,3.5326,3.5326,3.5326,3.5294,3.5213,3.5115,3.5067,3.5115,3.5115,3.5049,3.5115,3.5115,3.5034,3.5115,3.518,3.5115,3.4787,3.3806,3.2756,3.2631,3.2242,3.1385,3.0358,2.9713,2.9097,2.8097,2.7542,2.7503,2.7503,2.7503,2.7503,2.7503,2.7503,2.7503,2.7503,2.7503,2.7503,2.7503,2.7503,2.7607,2.8072,2.842,2.842,2.842,2.8307,2.815,2.7863,2.7865,2.862,2.8788,2.9143,2.9862,3.0102,2.9936,2.945,2.9121,2.8772,2.8265,2.7822,2.7723,2.7709,2.7676,2.7676,2.7656,2.7162,2.6926,2.6735,2.6186,2.5594,2.5347,2.5312,2.5312,2.5312,2.5312,2.5312,2.5312,2.5312,2.5312,2.5312,2.5312,2.5312,2.5312,2.5312,2.5312,2.5312,2.5312,2.5359,2.5382,2.55,2.5889,2.6183,2.6134,2.5957,2.6097,2.5945,2.5606,2.5641,2.5723,2.5688,2.5498,2.5416,2.4978,2.375,2.2716,2.2134,2.1396,2.0499,1.9814,1.9464,1.8944,1.8586,3.5326,3.5489,3.5489,3.5489,3.5504,3.5489,3.5457,3.5504,3.5457,3.5374,3.5294,3.5439,3.5374,3.5261,3.5359,3.5407,3.5228,3.5374,3.5359,3.5326,3.5228,3.4647,3.3696,3.3599,3.3419,3.2931,3.1467,3.0746,3.0079,2.8639,2.7782,2.7683,2.759,2.7503,2.7503,2.7503,2.7503,2.7503,2.7503,2.7503,2.7503,2.7503,2.7503,2.7568,2.7915,2.8268,2.832,2.8333,2.8486,2.9188,2.8111,2.8037,2.8615,2.8898,2.9254,2.9787,2.9977,2.9808,2.9469,2.9246,2.9124,2.8617,2.8522,2.8587,2.8457,2.8425,2.8425,2.8392,2.8085,2.7643,2.7377,2.6769,2.6186,2.5756,2.5594,2.5488,2.5382,2.5347,2.5312,2.5312,2.5312,2.5312,2.5312,2.5312,2.5312,2.5312,2.5312,2.5312,2.5312,2.5312,2.543,2.5595,2.5783,2.597,2.6238,2.6424,2.626,2.6213,2.598,2.5793,2.5793,2.5875,2.6015,2.5998,2.5918,2.5468,2.4645,2.3827,2.322,2.2333,2.1296,2.0782,2.0398,1.9726,1.9233,3.5472,3.5489,3.5489,3.5489,3.5489,3.5489,3.5489,3.5489,3.5489,3.5472,3.5439,3.5472,3.5472,3.5439,3.5457,3.5472,3.5439,3.5472,3.5472,3.5472,3.5472,3.5359,3.4968,3.4887,3.4591,3.3989,3.3259,3.2246,3.1118,2.9892,2.8797,2.8302,2.7901,2.7503,2.7503,2.7503,2.7503,2.7503,2.7503,2.7503,2.7503,2.7503,2.7503,2.7516,2.7646,2.7954,2.819,2.7941,2.8088,2.8426,2.823,2.8086,2.8645,2.8625,2.8871,2.9328,2.9232,2.8967,2.8831,2.8831,2.875,2.8641,2.8587,2.8587,2.8587,2.8587,2.8587,2.849,2.8118,2.7709,2.731,2.704,2.6735,2.6552,2.6483,2.638,2.6047,2.5594,2.5382,2.5312,2.5312,2.5312,2.5312,2.5312,2.5312,2.5312,2.5312,2.5312,2.5312,2.5312,2.5477,2.5665,2.577,2.5957,2.6298,2.6471,2.6399,2.6283,2.6097,2.6015,2.6015,2.598,2.6084,2.6258,2.6393,2.5812,2.5101,2.468,2.3996,2.3035,2.213,2.169,2.1144,2.0462,1.9987,3.5489,3.5489,3.5489,3.5489,3.5489,3.5489,3.5489,3.5489,3.5489,3.5489,3.5489,3.5489,3.5489,3.5489,3.5489,3.5489,3.5489,3.5489,3.5504,3.5504,3.5504,3.5504,3.5489,3.5504,3.5231,3.4736,3.3882,3.3046,3.2202,3.1091,2.9934,2.904,2.8591,2.8093,2.7596,2.7503,2.7503,2.7503,2.7503,2.7503,2.7503,2.7503,2.7503,2.7503,2.7503,2.7673,2.7889,2.7706,2.782,2.8072,2.8073,2.8139,2.8545,2.8442,2.86,2.8866,2.8817,2.86,2.86,2.8587,2.86,2.8587,2.8587,2.8587,2.8587,2.8587,2.8587,2.8554,2.8314,2.7987,2.7443,2.7377,2.731,2.704,2.7007,2.6858,2.6564,2.607,2.5546,2.5418,2.5312,2.5312,2.5312,2.5382,2.5312,2.5312,2.5312,2.5312,2.5312,2.5312,2.5465,2.5618,2.5723,2.5923,2.631,2.6483,2.6455,2.6339,2.6236,2.6223,2.628,2.6188,2.6154,2.6327,2.6474,2.6122,2.5485,2.5121,2.4575,2.3672,2.2898,2.2468,2.1951,2.1313,2.0933,3.5489,3.5489,3.5489,3.5489,3.5489,3.5489,3.5489,3.5489,3.5489,3.5489,3.5489,3.5489,3.5489,3.5489,3.5489,3.5489,3.5489,3.5489,3.5489,3.5489,3.5489,3.5489,3.5489,3.5504,3.5457,3.5365,3.4481,3.3835,3.3318,3.2395,3.1171,3.0019,2.95,2.8798,2.7894,2.7536,2.7503,2.7503,2.7503,2.7503,2.7503,2.7503,2.7503,2.7503,2.7503,2.7516,2.7581,2.7549,2.7616,2.7835,2.8,2.8183,2.83,2.8352,2.8398,2.8614,2.8614,2.86,2.8587,2.8587,2.8587,2.8587,2.8587,2.8587,2.8587,2.8587,2.8587,2.8587,2.849,2.836,2.7987,2.7921,2.7709,2.7443,2.7276,2.7209,2.704,2.6688,2.6277,2.5791,2.5826,2.5861,2.5652,2.5594,2.5453,2.5347,2.5347,2.5347,2.5347,2.537,2.5511,2.5709,2.5836,2.6186,2.6571,2.654,2.6477,2.6465,2.6374,2.6396,2.6452,2.6396,2.6327,2.6383,2.6373,2.6059,2.5624,2.5084,2.4525,2.401,2.3449,2.2813,2.2396,2.2118,2.1839,3.5489,3.5489,3.5489,3.5489,3.5489,3.5489,3.5489,3.5489,3.5489,3.5489,3.5489,3.5489,3.5489,3.5489,3.5489,3.5489,3.5489,3.5489,3.5489,3.5489,3.5489,3.5489,3.5489,3.5489,3.5489,3.5472,3.5085,3.477,3.4256,3.3498,3.2461,3.1222,3.0179,2.9203,2.8502,2.7842,2.759,2.759,2.7536,2.7503,2.7503,2.7503,2.7503,2.7503,2.7503,2.7503,2.7503,2.7536,2.7669,2.8013,2.8079,2.8276,2.8457,2.8522,2.8554,2.8587,2.8587,2.8587,2.8587,2.8587,2.8587,2.8587,2.8587,2.8587,2.8587,2.8587,2.8587,2.8587,2.8587,2.8522,2.849,2.8379,2.8425,2.8281,2.8183,2.8052,2.7756,2.751,2.7263,2.679,2.6688,2.6483,2.6208,2.6,2.5931,2.5826,2.5734,2.5687,2.5687,2.5627,2.5603,2.5834,2.6052,2.6445,2.685,2.6671,2.6568,2.6589,2.6521,2.643,2.6452,2.6465,2.6499,2.6487,2.6373,2.6109,2.5598,2.5076,2.4499,2.3985,2.3485,2.303,2.2775,2.2488,2.25,3.5489,3.5489,3.5489,3.5489,3.5489,3.5489,3.5489,3.5489,3.5489,3.5489,3.5489,3.5489,3.5489,3.5489,3.5489,3.5489,3.5489,3.5489,3.5489,3.5489,3.5489,3.5489,3.5489,3.5489,3.5489,3.5504,3.5474,3.537,3.5008,3.4706,3.373,3.2611,3.1511,3.0568,2.9509,2.8565,2.8099,2.7973,2.7723,2.7503,2.7503,2.7503,2.7503,2.7503,2.7503,2.7503,2.7503,2.7503,2.7703,2.8013,2.8112,2.8308,2.849,2.8587,2.8587,2.8587,2.8587,2.8587,2.8587,2.8587,2.8587,2.8587,2.8587,2.8587,2.8587,2.8587,2.8587,2.8587,2.8587,2.8587,2.8587,2.8587,2.8587,2.8587,2.8587,2.8457,2.8295,2.8216,2.7987,2.7676,2.7229,2.6926,2.6722,2.6552,2.6449,2.6311,2.6186,2.6104,2.607,2.6045,2.6008,2.6292,2.6646,2.7116,2.7356,2.7142,2.7007,2.6973,2.6748,2.6645,2.6521,2.6568,2.6533,2.6487,2.6311,2.6261,2.585,2.5435,2.472,2.3973,2.3503,2.3135,2.3012,2.2927,2.2878,3.5489,3.5489,3.5489,3.5489,3.5489,3.5489,3.5489,3.5489,3.5489,3.5489,3.5489,3.5489,3.5489,3.5489,3.5489,3.5489,3.5489,3.5489,3.5489,3.5489,3.5489,3.5489,3.5489,3.5489,3.5489,3.5489,3.5489,3.5489,3.5415,3.5335,3.4732,3.3671,3.2893,3.1919,3.0641,2.9324,2.8871,2.8352,2.8039,2.7689,2.7523,2.7503,2.7503,2.7503,2.7503,2.7503,2.7503,2.7503,2.7703,2.798,2.8145,2.8243,2.8522,2.8587,2.8587,2.8587,2.8587,2.8587,2.8587,2.8587,2.8587,2.8587,2.8587,2.8587,2.8587,2.8587,2.8587,2.8587,2.8587,2.8587,2.8587,2.8587,2.8587,2.8587,2.8587,2.8587,2.8554,2.8522,2.849,2.8118,2.7643,2.7377,2.7229,2.7095,2.6994,2.6735,2.6598,2.6633,2.6586,2.6667,2.6731,2.6976,2.7358,2.7835,2.7947,2.7683,2.765,2.767,2.7284,2.696,2.6782,2.6658,2.6624,2.6611,2.679,2.6726,2.6249,2.5644,2.4795,2.4061,2.3559,2.3215,2.3085,2.3017,2.2987,3.5489,3.5489,3.5489,3.5489,3.5489,3.5489,3.5489,3.5489,3.5489,3.5489,3.5489,3.5489,3.5489,3.5489,3.5489,3.5489,3.5489,3.5489,3.5489,3.5489,3.5489,3.5489,3.5489,3.5489,3.5489,3.5489,3.5489,3.5489,3.5489,3.5489,3.5143,3.431,3.326,3.2152,3.149,3.0219,2.9107,2.8643,2.8403,2.8091,2.7643,2.7536,2.7503,2.7503,2.7503,2.7503,2.7503,2.7536,2.7736,2.8046,2.8112,2.8276,2.8522,2.8587,2.8587,2.8587,2.8587,2.8587,2.8587,2.8587,2.8587,2.8587,2.8587,2.8587,2.8587,2.8587,2.8587,2.8587,2.8587,2.8587,2.8587,2.8587,2.8587,2.8587,2.8587,2.8587,2.8587,2.8587,2.8587,2.8554,2.8085,2.7908,2.7776,2.7676,2.7543,2.7242,2.7007,2.7074,2.7175,2.731,2.7377,2.7617,2.7986,2.8457,2.8633,2.8384,2.8325,2.8376,2.7901,2.7384,2.7317,2.7162,2.6816,2.6871,2.7129,2.7133,2.6644,2.5888,2.4886,2.4148,2.3634,2.3333,2.312,2.3078,2.3047,3.5489,3.5489,3.5489,3.5489,3.5489,3.5489,3.5489,3.5489,3.5489,3.5489,3.5489,3.5489,3.5489,3.5489,3.5489,3.5489,3.5489,3.5489,3.5489,3.5489,3.5489,3.5489,3.5489,3.5489,3.5489,3.5489,3.5489,3.5489,3.5489,3.5489,3.5295,3.4964,3.4131,3.3351,3.2442,3.1273,3.0397,2.9645,2.8949,2.8384,2.8039,2.7723,2.7503,2.7536,2.7536,2.7536,2.757,2.7623,2.7789,2.8079,2.8164,2.8314,2.8522,2.8587,2.8587,2.8587,2.8587,2.8587,2.8587,2.8587,2.8587,2.8587,2.8587,2.8587,2.8587,2.8587,2.8587,2.8587,2.8587,2.8587,2.8587,2.8587,2.8587,2.8587,2.8587,2.8587,2.8587,2.8587,2.8587,2.8587,2.8587,2.8346,2.8216,2.8151,2.8085,2.7954,2.7822,2.7888,2.7954,2.8052,2.8151,2.8216,2.8624,2.9053,2.9149,2.9089,2.9075,2.8998,2.8505,2.8117,2.8051,2.7822,2.7471,2.7504,2.7887,2.7669,2.7085,2.6252,2.5325,2.45,2.3722,2.3427,2.3168,2.3095,2.3078,3.5489,3.5489,3.5489,3.5489,3.5489,3.5489,3.5489,3.5489,3.5489,3.5489,3.5489,3.5489,3.5489,3.5489,3.5489,3.5489,3.5489,3.5489,3.5489,3.5489,3.5489,3.5489,3.5489,3.5489,3.5489,3.5489,3.5489,3.5489,3.5489,3.5489,3.5489,3.5459,3.468,3.4052,3.3376,3.2504,3.1665,3.096,2.9721,2.9171,2.8929,2.8378,2.8139,2.7994,2.7875,2.7756,2.7756,2.7723,2.7901,2.8079,2.8216,2.8365,2.8554,2.8587,2.8587,2.8587,2.8587,2.8587,2.8587,2.8587,2.8587,2.8587,2.8587,2.8587,2.8587,2.8587,2.8587,2.8587,2.8587,2.8587,2.8587,2.8587,2.8587,2.8587,2.8587,2.8587,2.8587,2.8587,2.8587,2.8587,2.8587,2.8587,2.849,2.8554,2.8554,2.8554,2.8587,2.8587,2.8587,2.8554,2.8522,2.849,2.8683,2.9117,2.9401,2.9526,2.9637,2.9623,2.9125,2.8857,2.8762,2.8538,2.8182,2.8376,2.8666,2.8405,2.7908,2.6847,2.5839,2.5094,2.4331,2.3566,2.3228,2.3155,2.3095,3.5489,3.5489,3.5489,3.5489,3.5489,3.5489,3.5489,3.5489,3.5489,3.5489,3.5489,3.5489,3.5489,3.5489,3.5489,3.5489,3.5489,3.5489,3.5489,3.5489,3.5489,3.5489,3.5489,3.5489,3.5489,3.5489,3.5489,3.5489,3.5489,3.5489,3.5489,3.54,3.4936,3.4203,3.3663,3.3226,3.2771,3.2067,3.0933,3.0308,3.0077,2.9623,2.9217,2.9113,2.8744,2.8417,2.8417,2.8137,2.8052,2.8243,2.8281,2.8398,2.8554,2.8587,2.8587,2.8587,2.8587,2.8587,2.8587,2.8587,2.8587,2.8587,2.8587,2.8587,2.8587,2.8587,2.8587,2.8587,2.8587,2.8587,2.8587,2.8587,2.8587,2.8587,2.8587,2.8587,2.8587,2.8587,2.8587,2.8587,2.8587,2.8587,2.8587,2.8587,2.8587,2.8587,2.8587,2.8587,2.8587,2.8587,2.8587,2.8587,2.8619,2.8972,2.9446,2.9634,2.9806,2.9929,2.9716,2.9577,2.9515,2.9219,2.8985,2.9016,2.9205,2.8985,2.8702,2.7886,2.6942,2.5884,2.4975,2.4107,2.3543,2.3395,2.3245,3.5489,3.5489,3.5489,3.5489,3.5489,3.5489,3.5489,3.5489,3.5489,3.5489,3.5489,3.5489,3.5489,3.5489,3.5489,3.5489,3.5489,3.5489,3.5489,3.5489,3.5489,3.5489,3.5489,3.5489,3.5489,3.5489,3.5489,3.5489,3.5489,3.5489,3.5489,3.537,3.516,3.4741,3.4277,3.3739,3.3405,3.305,3.2251,3.1615,3.11,3.0499,2.9945,2.9637,2.9549,2.9237,2.9079,2.8885,2.8785,2.8638,2.8541,2.8554,2.8619,2.8619,2.8619,2.8619,2.8619,2.8587,2.8587,2.8587,2.8587,2.8587,2.8587,2.8587,2.8587,2.8587,2.8587,2.8587,2.8587,2.8587,2.8587,2.8587,2.8587,2.8587,2.8587,2.8587,2.8587,2.8587,2.8587,2.8587,2.8587,2.8587,2.8587,2.8587,2.8587,2.8587,2.8587,2.8587,2.8587,2.8587,2.8587,2.8619,2.8683,2.8812,2.9289,2.9634,2.9958,3.0097,3.0219,3.0144,3.0038,3.019,2.9993,2.9948,2.9856,2.9794,2.9492,2.8971,2.8019,2.6684,2.5541,2.4553,2.4089,2.3738,2.359,3.5489,3.5489,3.5489,3.5489,3.5489,3.5489,3.5489,3.5489,3.5489,3.5489,3.5489,3.5489,3.5489,3.5489,3.5489,3.5489,3.5489,3.5489,3.5489,3.5489,3.5489,3.5489,3.5489,3.5489,3.5489,3.5489,3.5489,3.5489,3.5489,3.5489,3.5489,3.5489,3.5444,3.5055,3.4502,3.4114,3.3873,3.3913,3.3475,3.3023,3.2557,3.1985,3.132,3.085,3.0477,2.9922,2.954,2.9139,2.8803,2.8734,2.867,2.8716,2.8748,2.8734,2.8734,2.8734,2.867,2.8619,2.8587,2.8587,2.8587,2.8587,2.8587,2.8587,2.8587,2.8587,2.8587,2.8587,2.8587,2.8587,2.8587,2.8587,2.8587,2.8587,2.8587,2.8587,2.8587,2.8587,2.8587,2.8587,2.8587,2.8587,2.8587,2.8587,2.8587,2.8587,2.8587,2.8587,2.8587,2.8587,2.8587,2.8651,2.8716,2.8908,2.9131,2.9352,2.9634,3.008,3.0189,3.0371,3.0431,3.0582,3.0612,3.0372,3.0342,3.0538,3.0202,2.9517,2.8487,2.7347,2.6173,2.4932,2.4652,2.4337,2.4192,3.5489,3.5489,3.5489,3.5489,3.5489,3.5489,3.5489,3.5489,3.5489,3.5489,3.5489,3.5489,3.5489,3.5489,3.5489,3.5489,3.5489,3.5489,3.5489,3.5489,3.5489,3.5489,3.5489,3.5489,3.5489,3.5489,3.5489,3.5489,3.5489,3.5489,3.5489,3.5489,3.5459,3.522,3.4578,3.4518,3.4801,3.5245,3.4699,3.4483,3.4183,3.3691,3.3179,3.2526,3.1644,3.094,3.028,2.9387,2.9026,2.8867,2.8785,2.9008,2.9407,2.8976,2.8976,2.9314,2.8849,2.8651,2.8605,2.8619,2.8587,2.8587,2.8587,2.8587,2.8587,2.8587,2.8587,2.8587,2.8587,2.8587,2.8587,2.8587,2.8587,2.8587,2.8587,2.8587,2.8587,2.8587,2.8587,2.8587,2.8587,2.8587,2.8587,2.8587,2.8587,2.8587,2.8587,2.8587,2.8587,2.8587,2.8587,2.8619,2.8716,2.878,2.894,2.9035,2.9352,2.9834,3.0203,3.0355,3.0492,3.0582,3.0612,3.0612,3.0612,3.0612,3.0365,3.0001,2.9026,2.8017,2.6479,2.5381,2.5131,2.4922,2.4794,3.5489,3.5489,3.5489,3.5489,3.5489,3.5489,3.5489,3.5489,3.5489,3.5489,3.5489,3.5489,3.5489,3.5489,3.5489,3.5489,3.5489,3.5489,3.5489,3.5489,3.5489,3.5489,3.5489,3.5489,3.5489,3.5489,3.5489,3.5489,3.5489,3.5489,3.5489,3.5489,3.5489,3.5385,3.522,3.5175,3.5325,3.5444,3.5322,3.5197,3.4892,3.4678,3.4363,3.3814,3.2886,3.2034,3.1242,3.0173,2.9634,2.9435,2.9373,2.9501,2.9919,2.9577,2.9314,2.9393,2.8962,2.883,2.8912,2.8944,2.8619,2.8646,2.86,2.86,2.8587,2.8587,2.8587,2.8587,2.8587,2.8587,2.8587,2.8587,2.8587,2.8587,2.8587,2.8587,2.8587,2.8587,2.8587,2.8587,2.8587,2.86,2.8614,2.86,2.8587,2.8587,2.8587,2.8587,2.8587,2.8587,2.8587,2.8587,2.8619,2.8683,2.8748,2.8876,2.9131,2.9571,2.9988,3.0294,3.0431,3.0552,3.0612,3.0612,3.0612,3.0583,3.0409,3.0147,2.9652,2.8655,2.74,2.6344,2.5967,2.5675,2.5342,3.5489,3.5489,3.5489,3.5489,3.5489,3.5489,3.5489,3.5489,3.5489,3.5489,3.5489,3.5489,3.5489,3.5489,3.5489,3.5489,3.5489,3.5489,3.5489,3.5489,3.5489,3.5489,3.5489,3.5489,3.5489,3.5489,3.5489,3.5489,3.5489,3.5489,3.5489,3.5489,3.5489,3.5474,3.5444,3.5444,3.5477,3.5572,3.5625,3.5664,3.552,3.5399,3.5248,3.4652,3.3939,3.3171,3.2228,3.1423,3.0696,3.0398,3.0192,3.0163,3.0419,3.0299,2.9889,2.9687,2.9345,2.9328,2.9563,2.9296,2.9122,2.9334,2.893,2.8646,2.8587,2.8587,2.8587,2.8587,2.8587,2.8614,2.8614,2.8614,2.8709,2.8722,2.8912,2.8926,2.9021,2.9048,2.9224,2.9157,2.8872,2.8817,2.8614,2.86,2.8587,2.8587,2.8587,2.8587,2.8587,2.8587,2.8587,2.8587,2.8587,2.8619,2.8683,2.8748,2.9004,2.9352,2.9696,3.0036,3.0325,3.0462,3.0522,3.0612,3.0612,3.0583,3.0525,3.0233,2.9899,2.9522,2.8814,2.7825,2.7014,2.6565,2.6244,3.5489,3.5489,3.5489,3.5489,3.5489,3.5489,3.5489,3.5489,3.5489,3.5489,3.5489,3.5489,3.5489,3.5489,3.5489,3.5489,3.5489,3.5489,3.5489,3.5489,3.5489,3.5489,3.5489,3.5489,3.5489,3.5489,3.5489,3.5489,3.5489,3.5489,3.5489,3.5489,3.5489,3.5489,3.5489,3.5522,3.5572,3.5686,3.5831,3.5914,3.5934,3.6198,3.5922,3.5431,3.4805,3.391,3.2944,3.2001,3.1332,3.092,3.0613,3.0984,3.1102,3.0881,3.0673,3.0357,2.9927,3.0111,3.0313,2.9917,3.0089,3.0305,2.9624,2.9022,2.8655,2.8682,2.8587,2.8587,2.8587,2.8641,2.8668,2.8817,2.8967,2.9184,2.9482,2.9591,2.9713,2.9862,3.0106,2.9984,2.955,2.9252,2.8722,2.8587,2.8587,2.8587,2.8587,2.8587,2.8587,2.8587,2.8587,2.8587,2.8587,2.8587,2.8619,2.8683,2.8876,2.9226,2.9415,2.9696,3.0005,3.0355,3.0462,3.0522,3.0582,3.0583,3.0539,3.0467,3.0292,2.99,2.9581,2.8928,2.7966,2.7691,2.7407,3.5489,3.5489,3.5489,3.5489,3.5489,3.5489,3.5489,3.5489,3.5489,3.5489,3.5489,3.5489,3.5489,3.5489,3.5489,3.5489,3.5489,3.5489,3.5489,3.5489,3.5489,3.5489,3.5489,3.5489,3.5489,3.5489,3.5489,3.5489,3.5489,3.5489,3.5489,3.5489,3.5489,3.5489,3.5522,3.5589,3.5638,3.5767,3.5926,3.6085,3.6226,3.6414,3.6276,3.603,3.5539,3.4668,3.3892,3.287,3.2243,3.199,3.1456,3.1557,3.202,3.1961,3.1827,3.1267,3.1025,3.1032,3.1161,3.1052,3.1185,3.166,3.1346,3.0457,2.9725,2.9075,2.883,2.8761,2.8761,2.8816,2.9127,2.9347,2.9672,3.0093,3.0405,3.0663,3.073,3.069,3.0853,3.0296,2.9876,2.938,2.8831,2.8587,2.8587,2.8587,2.8587,2.8587,2.8587,2.8587,2.8587,2.8587,2.8651,2.8683,2.8651,2.8683,2.8844,2.9035,2.932,2.9602,2.9958,3.0264,3.0371,3.0492,3.0582,3.0612,3.0598,3.051,3.0438,3.0496,3.022,2.9581,2.9044,2.8681,2.829,3.5489,3.5489,3.5489,3.5489,3.5489,3.5489,3.5489,3.5489,3.5489,3.5489,3.5489,3.5489,3.5489,3.5489,3.5489,3.5489,3.5489,3.5489,3.5489,3.5489,3.5489,3.5489,3.5489,3.5489,3.5489,3.5489,3.5489,3.5489,3.5489,3.5489,3.5489,3.5489,3.5489,3.5489,3.5522,3.5621,3.572,3.5847,3.599,3.6148,3.6289,3.6429,3.646,3.6415,3.5999,3.5538,3.4926,3.3864,3.3592,3.3349,3.2788,3.2864,3.3155,3.3051,3.281,3.2287,3.1989,3.2065,3.2179,3.199,3.2466,3.2778,3.2634,3.1634,3.1002,3.0407,2.9718,2.9236,2.9122,2.9132,2.9566,3.0025,3.0595,3.1165,3.1504,3.1843,3.1734,3.1572,3.111,3.0513,2.9971,2.9442,2.9034,2.8763,2.8587,2.8587,2.8587,2.8587,2.8587,2.8587,2.8587,2.8587,2.8716,2.8812,2.8748,2.878,2.9004,2.9257,2.954,2.9834,3.005,3.0264,3.0462,3.0552,3.0612,3.0612,3.0612,3.0612,3.0569,3.0612,3.0612,3.0191,2.9711,2.9348,2.8971,3.5489,3.5489,3.5489,3.5489,3.5489,3.5489,3.5489,3.5489,3.5489,3.5489,3.5489,3.5489,3.5489,3.5489,3.5489,3.5489,3.5489,3.5489,3.5489,3.5489,3.5489,3.5489,3.5489,3.5489,3.5489,3.5489,3.5489,3.5489,3.5489,3.5489,3.5489,3.5489,3.5489,3.5489,3.5522,3.5686,3.5831,3.5926,3.6116,3.632,3.6429,3.6492,3.6492,3.6492,3.6368,3.6184,3.5722,3.5383,3.5229,3.4782,3.4429,3.4338,3.4254,3.3895,3.3577,3.3452,3.3094,3.3076,3.3223,3.3184,3.3562,3.3529,3.2963,3.2777,3.2564,3.1188,3.0216,2.9959,2.9862,3.0403,3.0914,3.1675,3.2335,3.2727,3.3042,3.3108,3.2928,3.2481,3.168,3.1015,3.0269,2.9686,2.8885,2.8587,2.8587,2.8587,2.8587,2.8587,2.8587,2.8587,2.8587,2.8619,2.8812,2.894,2.894,2.9004,2.9226,2.9477,2.9727,2.9896,3.0064,3.0325,3.0582,3.0612,3.0612,3.0612,3.0612,3.0612,3.0612,3.0612,3.0612,3.0612,3.0336,2.9914,2.9566,3.5489,3.5489,3.5489,3.5489,3.5489,3.5489,3.5489,3.5489,3.5489,3.5489,3.5489,3.5489,3.5489,3.5489,3.5489,3.5489,3.5554,3.5522,3.5489,3.5537,3.5537,3.5489,3.5489,3.5489,3.5489,3.5489,3.5489,3.5489,3.5489,3.5489,3.5489,3.5489,3.5489,3.5522,3.5554,3.575,3.5973,3.6037,3.6258,3.6414,3.6492,3.6492,3.6492,3.6492,3.6445,3.643,3.6061,3.5752,3.5552,3.5244,3.4736,3.4813,3.5183,3.456,3.453,3.4742,3.4282,3.4143,3.4189,3.436,3.4744,3.5126,3.4972,3.4957,3.4136,3.2031,3.0901,3.0852,3.1075,3.1743,3.2464,3.329,3.4022,3.4279,3.4551,3.4375,3.417,3.321,3.2327,3.1463,3.0663,2.9841,2.9018,2.8665,2.8587,2.8587,2.8587,2.8587,2.8587,2.8587,2.8587,2.8651,2.8908,2.9035,2.9099,2.932,2.9571,2.9634,2.9758,2.9927,3.0095,3.0355,3.0612,3.0612,3.0612,3.0612,3.0612,3.0612,3.0612,3.0612,3.0612,3.0612,3.0612,3.0322,3.0001,3.5489,3.5489,3.5489,3.5489,3.5489,3.5489,3.5489,3.5489,3.5489,3.5489,3.5489,3.5489,3.5489,3.5489,3.5489,3.5701,3.5765,3.5587,3.5765,3.5829,3.5619,3.5489,3.5489,3.5489,3.5489,3.5489,3.5489,3.5489,3.5489,3.5489,3.5489,3.5489,3.5554,3.5604,3.5621,3.591,3.6085,3.6132,3.6383,3.6492,3.6492,3.6492,3.6492,3.6492,3.6492,3.6492,3.6415,3.6107,3.6014,3.5937,3.5599,3.5614,3.583,3.5599,3.5415,3.5339,3.5106,3.4951,3.5075,3.5276,3.566,3.5922,3.5784,3.537,3.5186,3.3367,3.2885,3.2821,3.2858,3.3441,3.4066,3.4866,3.5461,3.5849,3.6155,3.6179,3.5117,3.38,3.2841,3.187,3.1149,3.0522,2.9767,2.9204,2.9127,2.8962,2.8899,2.8619,2.8619,2.8619,2.8619,2.8716,2.9035,2.9257,2.9369,2.9665,3.0005,3.0005,2.9913,3.0127,3.0385,3.0492,3.0612,3.0612,3.0612,3.0612,3.0612,3.0612,3.0612,3.0612,3.0612,3.0612,3.0612,3.0612,3.038,3.5489,3.5489,3.5489,3.5489,3.5489,3.5489,3.5489,3.5489,3.5489,3.5489,3.5489,3.5489,3.5489,3.5489,3.5522,3.5941,3.6116,3.591,3.6053,3.6085,3.5878,3.5668,3.5522,3.5489,3.5489,3.5489,3.5489,3.5489,3.5489,3.5489,3.5489,3.5522,3.5589,3.572,3.5831,3.599,3.6179,3.6211,3.6352,3.6492,3.6492,3.6492,3.6492,3.6492,3.6492,3.6492,3.6492,3.6492,3.6461,3.6415,3.6307,3.6307,3.6199,3.6076,3.5968,3.5722,3.5521,3.5491,3.5584,3.5706,3.6045,3.6153,3.5814,3.5614,3.546,3.5324,3.4836,3.4924,3.4963,3.5192,3.5817,3.6415,3.7002,3.7281,3.7556,3.7549,3.6061,3.4641,3.3629,3.2648,3.1972,3.1378,3.0682,3.0094,2.9732,2.9523,2.9202,2.8849,2.8638,2.8651,2.8651,2.8876,2.9194,2.9415,2.9557,2.9929,3.031,3.031,3.0235,3.0462,3.0612,3.0612,3.0612,3.0612,3.0612,3.0612,3.0612,3.0612,3.0612,3.0612,3.0612,3.0612,3.0612,3.0612,3.0612,3.5489,3.5489,3.5489,3.5489,3.5489,3.5489,3.5489,3.5489,3.5489,3.5489,3.5489,3.5489,3.5489,3.5489,3.5489,3.5878,3.6461,3.6274,3.6258,3.6321,3.6196,3.591,3.5619,3.5489,3.5489,3.5489,3.5489,3.5489,3.5489,3.5489,3.5489,3.5489,3.5638,3.572,3.5769,3.6006,3.6242,3.6274,3.6383,3.6492,3.6492,3.6492,3.6492,3.6492,3.6492,3.6492,3.6492,3.6492,3.6492,3.6492,3.6492,3.6492,3.6384,3.6184,3.603,3.6076,3.5876,3.5876,3.5984,3.6107,3.6384,3.6384,3.6168,3.6261,3.6322,3.6676,3.6626,3.7208,3.7279,3.7233,3.7736,3.8242,3.8716,3.85,3.8568,3.7974,3.6944,3.602,3.5146,3.4247,3.3427,3.262,3.1729,3.1133,3.0575,3.0278,2.9685,2.9293,2.8785,2.8734,2.8775,2.9045,2.9362,2.9477,2.9602,3.0144,3.0492,3.0522,3.0538,3.0582,3.0612,3.0612,3.0612,3.0612,3.0612,3.0612,3.0612,3.0612,3.0612,3.0612,3.0612,3.0612,3.0612,3.0612,3.0612]}]]